[[{"header":{"parameterUnit":"m.s-1","parameterCategory":1,"la1":30.6,"la2":29.2853,"lo1":-89.7004,"lo2":-87.6739,"dy":0.0162,"dx":0.0183,"nx":112,"ny":82,"refTime":"2023-05-11T12:00:00:Z","depth":0,"parameterNumber":2,"parameterNumberName":"U-component_of_WINDS"},"data":[0.0,0.0,0.0,0.0,0.0,0.0,0.0,0.0,0.0,0.0,0.0,0.0,0.0,0.0,0.0,0.0,0.0,0.0,0.0,0.0,0.0,0.0,0.0,0.0,0.0,0.0,0.0,0.0,0.0,0.0,0.0,0.0,0.0,0.0,0.0,0.0,0.0,0.0,0.0,0.0,0.0,0.0,0.0,0.0,0.0,0.0,0.0,0.0,0.0,0.0,0.0,0.0,0.0,0.0,0.0,0.0,0.0,0.0,0.0,0.0,0.0,0.0,0.0,0.0,0.0,0.0,0.0,0.0,0.0,0.0,0.0,0.0,0.0,0.0,0.0,0.0,0.0,0.0,0.0,0.0,0.0,0.0,0.0,0.0,0.0,0.0,0.0,0.0,0.0,0.0,-2.2435,-2.4909,-2.7663,-2.8402,-2.603,-2.4909,-2.2662,-1.8772,0.0,0.0,0.0,0.0,0.0,0.0,0.0,0.0,0.0,0.0,0.0,0.0,0.0,0.0,0.0,0.0,0.0,0.0,0.0,0.0,0.0,0.0,0.0,0.0,0.0,0.0,0.0,0.0,0.0,0.0,0.0,0.0,0.0,0.0,0.0,0.0,0.0,0.0,0.0,0.0,0.0,0.0,0.0,0.0,0.0,0.0,0.0,0.0,0.0,0.0,0.0,0.0,0.0,0.0,0.0,0.0,0.0,0.0,0.0,0.0,0.0,0.0,0.0,0.0,0.0,0.0,0.0,0.0,0.0,0.0,0.0,0.0,0.0,0.0,0.0,0.0,0.0,0.0,0.0,0.0,0.0,0.0,0.0,0.0,0.0,0.0,0.0,0.0,0.0,0.0,0.0,0.0,0.0,0.0,0.0,0.0,0.0,0.0,0.0,0.0,0.0,0.0,0.0,0.0,-2.3537,-2.687,-2.8066,-2.8066,-2.668,-2.455,-2.2139,-1.9328,0.0,0.0,0.0,0.0,0.0,0.0,0.0,0.0,0.0,0.0,0.0,0.0,0.0,0.0,0.0,0.0,0.0,0.0,0.0,0.0,0.0,0.0,0.0,0.0,0.0,0.0,0.0,0.0,0.0,0.0,0.0,0.0,0.0,0.0,0.0,0.0,0.0,0.0,0.0,0.0,0.0,0.0,0.0,0.0,0.0,0.0,0.0,0.0,0.0,0.0,0.0,0.0,0.0,0.0,0.0,0.0,0.0,0.0,0.0,0.0,0.0,0.0,0.0,0.0,0.0,0.0,0.0,0.0,0.0,0.0,0.0,0.0,0.0,0.0,0.0,0.0,0.0,0.0,0.0,0.0,0.0,0.0,0.0,0.0,0.0,0.0,0.0,0.0,0.0,0.0,0.0,0.0,0.0,0.0,0.0,0.0,0.0,0.0,0.0,0.0,0.0,0.0,0.0,-2.4012,-2.5907,-2.8208,-2.8607,-2.8018,-2.6271,-2.4368,-2.2268,-1.9924,-1.7299,0.0,0.0,0.0,0.0,0.0,0.0,0.0,0.0,0.0,0.0,0.0,0.0,0.0,0.0,0.0,0.0,0.0,0.0,0.0,0.0,0.0,0.0,0.0,0.0,0.0,0.0,0.0,0.0,0.0,0.0,0.0,0.0,0.0,0.0,0.0,0.0,0.0,0.0,0.0,0.0,0.0,0.0,0.0,0.0,0.0,0.0,0.0,0.0,0.0,0.0,0.0,0.0,0.0,0.0,0.0,0.0,0.0,0.0,0.0,0.0,0.0,0.0,0.0,0.0,0.0,0.0,0.0,0.0,0.0,0.0,0.0,0.0,0.0,0.0,0.0,0.0,0.0,0.0,0.0,0.0,0.0,0.0,0.0,0.0,0.0,0.0,0.0,0.0,0.0,0.0,0.0,0.0,0.0,0.0,0.0,0.0,0.0,0.0,0.0,0.0,0.0,0.0,-2.661,-2.7626,-2.8761,-2.8742,-2.7832,-2.5777,-2.3917,-2.2105,-2.0212,-1.729,0.0,0.0,0.0,0.0,0.0,0.0,0.0,0.0,0.0,0.0,0.0,0.0,0.0,0.0,0.0,0.0,0.0,0.0,0.0,0.0,0.0,0.0,0.0,0.0,0.0,0.0,0.0,0.0,0.0,0.0,0.0,0.0,0.0,0.0,0.0,0.0,0.0,0.0,0.0,0.0,0.0,0.0,0.0,0.0,0.0,0.0,0.0,0.0,0.0,0.0,0.0,0.0,0.0,0.0,0.0,0.0,0.0,0.0,0.0,0.0,0.0,0.0,0.0,0.0,0.0,0.0,0.0,0.0,0.0,0.0,0.0,0.0,0.0,0.0,0.0,0.0,0.0,0.0,0.0,0.0,0.0,0.0,0.0,0.0,0.0,0.0,0.0,0.0,0.0,0.0,0.0,0.0,0.0,0.0,0.0,0.0,0.0,0.0,0.0,0.0,0.0,0.0,-2.6322,-2.7513,-2.8121,-2.8051,-2.734,-2.5751,-2.3001,-2.0921,-1.9866,-1.6063,0.0,0.0,0.0,0.0,0.0,0.0,0.0,0.0,0.0,0.0,0.0,0.0,0.0,0.0,0.0,0.0,0.0,0.0,0.0,0.0,0.0,0.0,0.0,0.0,0.0,0.0,0.0,0.0,0.0,0.0,0.0,0.0,0.0,0.0,0.0,0.0,0.0,0.0,0.0,0.0,0.0,0.0,0.0,0.0,0.0,0.0,0.0,0.0,0.0,0.0,0.0,0.0,0.0,0.0,0.0,0.0,0.0,0.0,0.0,0.0,0.0,0.0,0.0,0.0,0.0,0.0,0.0,0.0,0.0,0.0,0.0,0.0,0.0,0.0,0.0,0.0,0.0,0.0,0.0,0.0,0.0,0.0,0.0,0.0,0.0,0.0,0.0,0.0,0.0,0.0,0.0,0.0,0.0,0.0,0.0,0.0,0.0,0.0,0.0,0.0,0.0,0.0,-2.6603,-2.7883,-2.9055,-2.8188,-2.7121,-2.6109,-2.3699,-2.1449,-1.9726,0.0,0.0,0.0,0.0,0.0,0.0,0.0,0.0,0.0,0.0,0.0,0.0,0.0,0.0,0.0,0.0,0.0,0.0,0.0,0.0,0.0,0.0,0.0,0.0,0.0,0.0,0.0,0.0,0.0,0.0,0.0,0.0,0.0,0.0,0.0,0.0,0.0,0.0,0.0,0.0,0.0,0.0,0.0,0.0,0.0,0.0,0.0,0.0,0.0,0.0,0.0,0.0,0.0,0.0,0.0,0.0,0.0,0.0,0.0,0.0,0.0,0.0,0.0,0.0,0.0,0.0,0.0,0.0,0.0,0.0,0.0,0.0,0.0,0.0,0.0,0.0,0.0,0.0,0.0,0.0,0.0,0.0,0.0,0.0,0.0,0.0,0.0,0.0,0.0,0.0,0.0,0.0,0.0,0.0,0.0,0.0,0.0,0.0,0.0,0.0,0.0,0.0,-2.5375,-2.694,-2.8254,-2.9172,-2.8052,-2.6906,-2.6144,-2.3389,-2.1075,-1.9673,0.0,0.0,0.0,0.0,0.0,0.0,0.0,0.0,0.0,0.0,0.0,0.0,0.0,0.0,0.0,0.0,0.0,0.0,0.0,0.0,0.0,0.0,0.0,0.0,0.0,0.0,0.0,0.0,0.0,0.0,0.0,0.0,0.0,0.0,0.0,0.0,0.0,0.0,0.0,0.0,0.0,0.0,0.0,0.0,0.0,0.0,0.0,0.0,0.0,0.0,0.0,0.0,0.0,0.0,0.0,0.0,0.0,0.0,0.0,0.0,0.0,0.0,0.0,0.0,0.0,0.0,0.0,0.0,0.0,0.0,0.0,0.0,0.0,0.0,0.0,0.0,0.0,0.0,0.0,0.0,0.0,0.0,0.0,0.0,0.0,0.0,0.0,0.0,0.0,0.0,0.0,0.0,0.0,0.0,0.0,0.0,0.0,0.0,0.0,0.0,0.0,0.0,-2.505,-2.7245,-2.8541,-2.8152,-2.7501,-2.6691,-2.5673,-2.1719,-1.9462,0.0,0.0,0.0,0.0,0.0,0.0,0.0,0.0,0.0,0.0,0.0,0.0,0.0,0.0,0.0,0.0,0.0,0.0,0.0,0.0,0.0,0.0,0.0,0.0,0.0,0.0,0.0,0.0,0.0,0.0,0.0,0.0,0.0,0.0,0.0,0.0,0.0,0.0,0.0,0.0,0.0,0.0,0.0,0.0,0.0,0.0,0.0,0.0,0.0,0.0,0.0,0.0,0.0,0.0,0.0,0.0,0.0,0.0,0.0,0.0,0.0,0.0,0.0,0.0,0.0,0.0,0.0,0.0,0.0,0.0,0.0,0.0,0.0,0.0,0.0,0.0,0.0,0.0,0.0,0.0,0.0,0.0,0.0,0.0,0.0,0.0,0.0,0.0,0.0,0.0,0.0,0.0,0.0,0.0,0.0,0.0,0.0,0.0,0.0,0.0,0.0,0.0,0.0,-2.5295,-2.7032,-2.8281,-2.8697,-2.7412,-2.6042,-2.4856,-2.2449,-2.0566,-1.9562,0.0,0.0,0.0,0.0,0.0,0.0,0.0,0.0,0.0,0.0,0.0,0.0,0.0,0.0,0.0,0.0,0.0,0.0,0.0,0.0,0.0,0.0,0.0,0.0,0.0,0.0,0.0,0.0,0.0,0.0,0.0,0.0,0.0,0.0,0.0,0.0,0.0,0.0,0.0,0.0,0.0,0.0,0.0,0.0,0.0,0.0,0.0,0.0,0.0,0.0,0.0,0.0,0.0,0.0,0.0,0.0,0.0,0.0,0.0,0.0,0.0,0.0,0.0,0.0,0.0,0.0,0.0,0.0,0.0,0.0,0.0,0.0,0.0,0.0,0.0,0.0,0.0,0.0,0.0,0.0,0.0,0.0,0.0,0.0,0.0,0.0,0.0,0.0,0.0,0.0,0.0,0.0,0.0,0.0,0.0,0.0,0.0,0.0,0.0,0.0,0.0,0.0,-2.4996,-2.649,-2.7605,-2.8094,-2.6954,-2.5594,-2.4406,-2.2537,-2.0864,-1.9448,0.0,0.0,0.0,0.0,0.0,0.0,0.0,0.0,0.0,0.0,0.0,0.0,0.0,0.0,0.0,0.0,0.0,0.0,0.0,0.0,0.0,0.0,0.0,0.0,0.0,0.0,0.0,0.0,0.0,0.0,0.0,0.0,0.0,0.0,0.0,0.0,0.0,0.0,0.0,0.0,0.0,0.0,0.0,0.0,0.0,0.0,0.0,0.0,0.0,0.0,0.0,0.0,0.0,0.0,0.0,0.0,0.0,0.0,0.0,0.0,0.0,0.0,0.0,0.0,0.0,0.0,0.0,0.0,0.0,0.0,0.0,0.0,0.0,0.0,0.0,0.0,0.0,0.0,0.0,0.0,0.0,0.0,0.0,0.0,0.0,0.0,0.0,0.0,0.0,0.0,0.0,0.0,0.0,0.0,0.0,0.0,0.0,0.0,0.0,0.0,0.0,0.0,-2.4397,-2.5786,-2.667,-2.6797,-2.6149,-2.5262,-2.4106,-2.2251,-2.0621,-1.9441,0.0,0.0,0.0,0.0,0.0,0.0,0.0,0.0,0.0,0.0,0.0,0.0,0.0,0.0,0.0,0.0,0.0,0.0,0.0,0.0,0.0,0.0,0.0,0.0,0.0,0.0,0.0,0.0,0.0,0.0,0.0,0.0,0.0,0.0,0.0,0.0,0.0,0.0,0.0,0.0,0.0,0.0,0.0,0.0,0.0,0.0,0.0,0.0,0.0,0.0,0.0,0.0,0.0,0.0,0.0,0.0,0.0,0.0,0.0,0.0,-2.2284,0.0,0.0,0.0,0.0,0.0,0.0,0.0,0.0,0.0,0.0,0.0,0.0,0.0,0.0,0.0,0.0,0.0,0.0,0.0,0.0,0.0,0.0,0.0,0.0,0.0,0.0,0.0,0.0,0.0,0.0,0.0,0.0,0.0,0.0,0.0,0.0,0.0,0.0,0.0,0.0,0.0,-2.4633,-2.5507,-2.6011,-2.6237,-2.5504,-2.4393,-2.2833,-2.1917,-2.0969,-1.9935,-1.8554,0.0,0.0,0.0,0.0,0.0,0.0,0.0,0.0,0.0,0.0,0.0,0.0,0.0,0.0,0.0,0.0,0.0,0.0,0.0,0.0,0.0,0.0,0.0,0.0,0.0,0.0,0.0,0.0,0.0,0.0,0.0,0.0,0.0,0.0,0.0,0.0,0.0,0.0,0.0,0.0,0.0,0.0,0.0,0.0,0.0,0.0,0.0,0.0,0.0,0.0,0.0,0.0,0.0,0.0,0.0,0.0,0.0,0.0,0.0,0.0,-2.3328,0.0,0.0,0.0,0.0,0.0,0.0,0.0,0.0,0.0,0.0,0.0,0.0,0.0,0.0,0.0,0.0,0.0,0.0,0.0,0.0,0.0,0.0,0.0,0.0,0.0,0.0,0.0,0.0,0.0,0.0,0.0,0.0,0.0,0.0,0.0,0.0,0.0,0.0,0.0,0.0,-2.371,-2.4919,-2.5711,-2.5839,-2.5224,-2.4299,-2.308,-2.2255,-2.1342,-2.0326,-1.9275,0.0,0.0,0.0,0.0,0.0,0.0,0.0,0.0,0.0,0.0,0.0,0.0,0.0,0.0,0.0,0.0,0.0,0.0,0.0,0.0,0.0,0.0,0.0,0.0,0.0,0.0,0.0,0.0,0.0,0.0,0.0,0.0,0.0,0.0,0.0,0.0,0.0,0.0,0.0,0.0,0.0,0.0,0.0,0.0,0.0,0.0,0.0,0.0,0.0,0.0,0.0,0.0,0.0,-2.9651,-2.9553,-2.9357,-2.9321,-2.855,-2.731,-2.6813,-2.5636,-2.3883,-2.341,0.0,0.0,0.0,0.0,0.0,0.0,0.0,0.0,0.0,0.0,0.0,0.0,0.0,0.0,0.0,0.0,0.0,0.0,0.0,0.0,0.0,0.0,0.0,0.0,-2.537,-2.439,0.0,0.0,0.0,0.0,0.0,0.0,0.0,0.0,0.0,0.0,0.0,0.0,-2.2735,-2.4386,-2.5453,-2.5511,-2.5144,-2.4521,-2.3684,-2.2779,-2.1785,-2.0696,-2.0088,-1.9083,0.0,0.0,0.0,0.0,0.0,0.0,0.0,0.0,0.0,0.0,0.0,0.0,0.0,0.0,0.0,0.0,0.0,0.0,0.0,0.0,0.0,0.0,0.0,0.0,0.0,0.0,0.0,0.0,0.0,0.0,0.0,0.0,-2.3177,-2.3453,0.0,0.0,0.0,0.0,0.0,0.0,0.0,0.0,0.0,0.0,0.0,0.0,0.0,-2.9409,-2.9928,-3.076,-3.1208,-3.1303,-3.1438,-3.1542,-3.1542,-3.1338,-3.07,-2.972,-2.9654,0.0,-2.5551,-2.3969,0.0,0.0,0.0,0.0,0.0,0.0,0.0,0.0,0.0,0.0,0.0,0.0,0.0,0.0,0.0,0.0,0.0,0.0,0.0,0.0,0.0,0.0,-2.7086,-2.84,-2.7878,-2.7115,0.0,-2.5446,-2.3469,-2.2292,-2.1795,0.0,0.0,0.0,0.0,0.0,0.0,0.0,-2.3189,-2.4254,-2.4973,-2.5167,-2.5193,-2.4715,-2.3359,-2.3071,-2.2416,-2.1105,-2.0657,-2.0241,-1.9696,-1.9373,0.0,0.0,0.0,0.0,0.0,0.0,0.0,0.0,0.0,0.0,0.0,0.0,0.0,0.0,0.0,0.0,0.0,0.0,0.0,0.0,0.0,0.0,0.0,0.0,0.0,0.0,0.0,0.0,0.0,-2.4464,-2.5033,-2.4813,-2.5136,-2.5132,0.0,0.0,0.0,0.0,0.0,0.0,0.0,0.0,0.0,-2.9452,-3.0384,-3.1348,-3.2209,-3.278,-3.3182,-3.3465,-3.3551,-3.3366,-3.2997,-3.2887,-3.2328,-3.1433,-3.1433,-3.0416,-2.8596,-2.6337,-2.5247,-2.4821,0.0,0.0,0.0,0.0,-2.2859,-2.3369,-2.3717,-2.3783,0.0,0.0,0.0,0.0,0.0,0.0,0.0,0.0,0.0,0.0,0.0,0.0,0.0,-3.0726,-3.0559,-3.0227,-3.0688,-2.9353,-2.7224,0.0,-2.4086,-2.3628,-2.1694,0.0,0.0,0.0,0.0,-2.3008,-2.3956,-2.464,-2.5153,-2.5431,-2.5271,-2.4779,-2.3733,-2.3616,-2.304,-2.1629,-2.1248,-2.0789,-2.0174,-2.0008,-1.9848,0.0,0.0,0.0,0.0,0.0,0.0,0.0,0.0,0.0,0.0,0.0,0.0,0.0,0.0,0.0,0.0,0.0,0.0,0.0,0.0,0.0,0.0,0.0,0.0,0.0,0.0,0.0,0.0,-2.5721,-2.6264,-2.5915,-2.6639,-2.6827,0.0,0.0,0.0,0.0,0.0,0.0,-2.9014,-2.9856,-3.0713,-3.1496,-3.234,-3.3258,-3.4141,-3.4549,-3.4836,-3.4967,-3.5079,-3.4791,-3.4141,-3.4032,-3.353,-3.2743,-3.2743,-3.211,-3.0908,-2.8535,-2.7024,-2.6172,-2.5465,-2.4976,-2.4607,-2.4716,-2.5049,-2.5458,-2.6002,-2.6275,-2.6346,-2.5915,0.0,-2.4997,-2.3642,0.0,0.0,0.0,0.0,-2.7936,-2.9268,-3.0358,-3.1337,-3.2463,-3.2592,-3.254,-3.272,-3.2037,-3.0301,0.0,-2.6462,-2.6093,-2.4245,0.0,0.0,0.0,0.0,-2.4248,-2.4456,-2.4884,-2.5301,-2.5643,-2.5452,-2.4958,-2.414,-2.4144,-2.3591,-2.2073,-2.1819,-2.1391,-2.0603,-2.074,-2.0824,-2.0742,0.0,0.0,0.0,0.0,0.0,0.0,0.0,0.0,0.0,0.0,0.0,0.0,0.0,0.0,0.0,0.0,0.0,0.0,0.0,0.0,0.0,0.0,0.0,0.0,0.0,0.0,0.0,0.0,0.0,-2.6542,-2.7917,0.0,0.0,0.0,0.0,-2.87,-2.992,-3.0709,-3.0751,-3.1889,-3.275,-3.3246,-3.441,-3.5081,-3.5124,-3.5892,-3.5914,-3.5168,-3.553,-3.5452,-3.5124,-3.4687,-3.4207,-3.3726,-3.3726,-3.2918,-3.1425,-2.9797,-2.862,-2.7821,-2.7133,-2.6703,-2.6506,-2.6934,-2.7434,-2.7828,-2.789,-2.8208,-2.8754,-2.9526,-2.9685,-2.9509,-2.9545,-2.9076,0.0,0.0,-3.0119,-3.0846,-3.1483,-3.2204,-3.2931,-3.3495,-3.3623,-3.3495,-3.2982,-3.2689,-3.1975,0.0,-2.8886,-2.7882,-2.6612,0.0,-2.5349,-2.3758,-2.4187,-2.4608,-2.4441,-2.4641,-2.5052,-2.5654,-2.5791,-2.5384,-2.4296,-2.4556,-2.402,-2.2277,-2.2482,-2.231,-2.1659,-2.1891,-2.2258,-2.2749,-2.2723,0.0,0.0,0.0,0.0,0.0,0.0,0.0,0.0,0.0,0.0,0.0,0.0,0.0,0.0,0.0,0.0,0.0,0.0,0.0,0.0,0.0,0.0,0.0,0.0,0.0,0.0,0.0,0.0,-2.9754,-3.0721,0.0,-2.9849,-3.0559,-3.108,-3.1059,-3.2177,-3.302,-3.3406,-3.3995,-3.4553,-3.5076,-3.546,-3.5845,-3.6151,-3.6677,-3.6794,-3.6501,-3.625,-3.5941,-3.5496,-3.4787,-3.425,-3.3792,-3.3792,-3.3029,-3.1754,-3.1508,-3.0405,-2.8838,-2.8295,-2.8028,-2.7893,-2.8139,-2.8565,-2.9115,-2.9266,-2.9599,-2.9921,-3.0011,-2.9535,-2.9063,-2.9689,-2.9688,-2.9671,-3.0792,-3.1519,-3.2174,-3.3065,-3.3498,-3.3746,-3.3885,-3.3937,-3.3843,-3.3469,-3.3275,-3.2937,-3.2433,-3.0953,-2.9326,-2.7764,-2.7371,-2.6758,-2.5294,-2.5074,-2.5118,-2.5215,-2.4947,-2.4995,-2.5546,-2.5627,-2.524,-2.4155,-2.432,-2.3845,-2.2301,-2.2389,-2.2297,-2.187,-2.2414,-2.3043,-2.3607,-2.3755,-2.39,0.0,0.0,0.0,0.0,0.0,0.0,0.0,0.0,0.0,0.0,0.0,0.0,0.0,0.0,0.0,0.0,0.0,0.0,0.0,0.0,0.0,0.0,0.0,0.0,0.0,-3.0139,-3.1233,-3.2179,-3.3243,-3.3461,-3.233,-3.2987,-3.3463,-3.3277,-3.4423,-3.5277,-3.5678,-3.599,-3.626,-3.6494,-3.661,-3.6697,-3.6697,-3.7207,-3.7274,-3.6963,-3.6728,-3.6307,-3.5666,-3.5019,-3.4491,-3.4032,-3.4032,-3.341,-3.2405,-3.275,-3.188,-3.0317,-2.9889,-2.956,-2.9215,-2.9488,-2.9833,-3.0242,-3.0809,-3.1207,-3.1456,-3.1141,-3.0591,-3.0172,-3.0723,-3.0909,-3.114,-3.2092,-3.2631,-3.3139,-3.3901,-3.4131,-3.4131,-3.4131,-3.3979,-3.381,-3.3725,-3.3471,-3.3368,-3.3556,-3.2412,-3.0934,-2.9564,-2.9067,-2.8436,-2.7125,-2.6246,-2.5801,-2.6051,-2.54,-2.5133,-2.5654,-2.5723,-2.529,-2.4246,-2.446,-2.4017,-2.2548,-2.2683,-2.2621,-2.218,-2.318,-2.3901,-2.4224,-2.4723,-2.497,-2.4936,0.0,0.0,0.0,0.0,0.0,0.0,0.0,0.0,0.0,0.0,0.0,0.0,0.0,0.0,0.0,0.0,0.0,0.0,0.0,0.0,0.0,0.0,0.0,-3.012,-3.1846,-3.3236,-3.3749,-3.5322,-3.5648,-3.3775,-3.5302,-3.609,-3.5408,-3.6631,-3.7418,-3.7418,-3.7876,-3.792,-3.744,-3.7876,-3.7658,-3.6741,-3.7537,-3.7414,-3.6462,-3.6986,-3.6697,-3.571,-3.5325,-3.4949,-3.4479,-3.4479,-3.4029,-3.3298,-3.3375,-3.2931,-3.221,-3.1885,-3.1251,-3.0559,-3.1212,-3.1341,-3.1339,-3.2396,-3.3093,-3.3487,-3.3224,-3.3151,-3.3093,-3.3093,-3.3093,-3.3154,-3.3368,-3.3556,-3.3768,-3.4021,-3.4131,-3.4131,-3.4131,-3.3725,-3.3428,-3.3641,-3.3386,-3.3154,-3.3368,-3.3148,-3.2682,-3.1988,-3.1107,-3.0195,-2.9122,-2.7535,0.0,-2.6838,-2.6044,-2.5592,-2.5939,-2.6046,-2.5729,-2.4682,-2.5037,-2.464,-2.3033,-2.3375,-2.3362,-2.2745,-2.4171,-2.4892,-2.4714,-2.5632,-2.585,-2.5412,0.0,0.0,0.0,0.0,0.0,0.0,0.0,0.0,0.0,0.0,0.0,0.0,0.0,0.0,0.0,0.0,0.0,0.0,0.0,0.0,0.0,-3.039,-3.1327,-3.2372,-3.3609,-3.4877,-3.622,-3.7144,-3.7645,-3.7902,-3.7933,-3.8082,-3.8397,-3.8649,-3.8671,-3.8423,-3.8554,-3.8575,-3.8444,-3.8226,-3.7986,-3.7724,-3.8049,-3.7985,-3.748,-3.7473,-3.705,-3.6197,-3.5479,-3.4836,-3.4199,-3.4199,-3.375,-3.3044,-3.3407,-3.3176,-3.2534,-3.2286,-3.2166,-3.2229,-3.2307,-3.2553,-3.2915,-3.3634,-3.3981,-3.4139,-3.4268,-3.399,-3.3671,-3.3671,-3.3395,-3.3154,-3.3513,-3.3683,-3.381,-3.423,-3.4189,-3.4131,-3.4131,-3.3725,-3.3428,-3.3471,-3.3283,-3.3154,-3.3368,-3.3428,-3.2988,-3.1443,-3.009,-2.8827,-2.7728,-2.6701,0.0,-2.5997,-2.6091,-2.6463,-2.7212,-2.729,-2.7003,-2.6377,-2.558,-2.4657,-2.3548,-2.3158,-2.2991,-2.3,-2.3875,-2.4625,-2.5124,-2.5653,-2.5762,0.0,0.0,0.0,0.0,0.0,0.0,0.0,0.0,0.0,0.0,0.0,0.0,0.0,0.0,0.0,0.0,0.0,0.0,0.0,0.0,0.0,0.0,-3.2772,-3.4259,-3.6069,-3.6416,-3.7106,-3.8728,-3.9318,-3.9755,-4.0126,-4.0014,-3.997,-4.0191,-4.0079,-3.9926,-3.9733,-3.9558,-3.934,-3.9143,-3.8859,-3.851,-3.8117,-3.842,-3.8448,-3.8188,-3.7938,-3.7451,-3.6706,-3.5736,-3.4991,0.0,-3.4173,-3.3982,-3.3785,-3.3904,-3.3815,0.0,0.0,0.0,0.0,0.0,-3.3559,-3.4005,-3.461,-3.4848,-3.4851,-3.4719,-3.45,-3.4198,-3.3972,-3.3758,-3.3586,-3.3649,-3.3768,-3.3937,-3.4314,-3.423,-3.4131,-3.4131,-3.3725,-3.3428,-3.3513,-3.3326,-3.3197,-3.3471,0.0,0.0,-3.1638,-3.061,-2.9677,-2.8714,-2.7573,-2.6761,-2.6568,-2.6911,-2.7256,-2.7488,-2.7771,-2.7591,-2.6725,-2.6183,0.0,0.0,0.0,-2.3759,-2.4171,-2.4411,0.0,0.0,0.0,-2.598,-2.5637,0.0,0.0,0.0,-2.5159,-2.4911,0.0,0.0,0.0,0.0,0.0,0.0,0.0,0.0,0.0,0.0,0.0,0.0,0.0,0.0,0.0,0.0,-3.5596,-3.7501,-4.0105,-3.9755,-3.9689,-4.0935,-4.1437,-4.1546,-4.1197,-4.1481,-4.1546,-4.1197,-4.1109,-4.1066,-4.1,0.0,0.0,0.0,0.0,-3.9207,-3.827,-3.8597,-3.8678,-3.8547,-3.8174,-3.767,-3.7067,-3.5982,-3.5257,-3.4805,-3.4275,-3.4397,-3.4987,-3.4566,-3.4493,-3.4647,-3.3955,-3.3381,-3.302,-3.3997,-3.444,0.0,-3.536,0.0,0.0,-3.5077,-3.4876,-3.468,-3.4223,-3.413,-3.4121,-3.3871,-3.3946,-3.4173,-3.4356,-3.423,-3.4131,-3.4131,-3.3725,-3.3428,-3.3641,-3.3368,-3.324,-3.3641,-3.3018,-3.2457,-3.2432,-3.1978,-3.1372,-3.0719,-2.9224,-2.8073,-2.7847,-2.8075,-2.8028,-2.7412,0.0,0.0,-2.6746,-2.6881,-2.6242,-2.4406,-2.4632,-2.5089,-2.5697,-2.5426,-2.591,-2.7313,-2.6879,-2.6538,-2.6323,-2.6186,-2.6413,-2.6919,-2.6835,-2.6835,0.0,0.0,0.0,0.0,0.0,0.0,0.0,0.0,0.0,0.0,0.0,0.0,0.0,0.0,0.0,-3.6064,-3.7536,-3.9058,-4.1131,-4.159,-4.1677,-4.1568,-4.1634,-4.1808,-4.2114,-4.1874,-4.1808,-4.2114,-4.1786,-4.1393,-4.1022,-4.0913,-4.0651,-4.0148,-3.9819,-3.9535,-3.9338,-3.8847,-3.8512,-3.8178,0.0,0.0,-3.6378,-3.5853,-3.5435,-3.4907,-3.417,-3.4238,-3.4748,-3.3813,-3.3735,-3.4216,-3.4276,-3.4236,-3.4207,-3.4913,-3.5205,-3.532,-3.5985,-3.6231,-3.6229,-3.6128,-3.5755,-3.5332,-3.5207,-3.4735,0.0,-3.4356,-3.4255,-3.4173,-3.4356,-3.423,-3.4131,-3.4131,-3.3725,-3.3386,-3.3428,-3.3283,-3.324,-3.3641,-3.353,-3.3505,-3.3724,-3.183,-3.015,-2.9563,-2.8891,-2.8179,-2.7446,-2.8403,-2.9071,-2.8867,-2.9425,-2.9631,-2.934,-2.8069,-2.6917,-2.6072,-2.5333,-2.5205,-2.5761,-2.6062,-2.6633,-2.745,-2.7626,-2.7684,-2.7627,-2.7598,-2.7597,-2.7594,-2.7173,-2.7173,0.0,0.0,0.0,0.0,0.0,0.0,0.0,0.0,0.0,0.0,0.0,-3.1332,-3.249,0.0,-3.5622,-3.8101,-3.9281,-4.052,-4.2201,-4.2638,-4.2704,-4.2464,-4.2442,-4.2529,-4.2769,-4.2573,-4.2529,-4.2769,-4.2333,-4.1961,-4.1721,-4.1481,-4.124,-4.1,-4.052,-4.017,-3.9972,-3.9449,-3.8951,-3.8564,-3.79,-3.7363,-3.685,-3.6054,-3.5631,-3.5553,-3.4498,-3.4572,-3.5423,-3.454,-3.4167,-3.4142,-3.4423,-3.468,-3.5002,-3.5604,-3.5835,-3.5935,-3.6579,-3.6643,-3.6405,-3.6405,-3.6182,-3.5906,-3.5583,-3.5178,-3.478,-3.463,-3.4614,-3.4564,-3.4439,-3.4481,-3.4507,-3.4173,-3.3894,-3.3683,-3.3428,-3.3326,-3.3368,-3.3641,-3.3725,-3.3707,-3.3825,-3.2622,-3.1481,-3.0984,-3.0074,-2.9283,-2.8795,-2.9436,-2.979,-2.9529,-2.9943,-3.0114,-2.9656,-2.8217,-2.7203,-2.6927,-2.6156,-2.5979,-2.6532,-2.6756,-2.7206,-2.785,-2.8024,-2.8111,-2.8111,-2.8111,-2.8195,-2.836,-2.8079,-2.8049,0.0,0.0,0.0,0.0,0.0,0.0,0.0,-2.9477,-3.0005,-3.1106,-3.2513,-3.3862,-3.4907,-3.6445,-3.8073,-3.9801,-4.0757,-4.1721,-4.301,-4.3184,-4.3184,-4.3184,-4.3184,-4.3184,-4.3184,-4.3184,-4.3184,-4.3184,-4.2791,-4.2529,-4.242,-4.2049,-4.1743,-4.1568,-4.113,-4.0628,-4.0214,-3.9736,-3.9282,-3.8959,-3.8103,-3.7698,-3.7539,-3.6399,-3.5994,-3.6166,-3.5024,-3.4996,-3.5666,-3.5236,-3.4693,-3.4142,-3.4568,-3.5113,-3.5591,-3.5998,-3.6208,-3.6442,-3.6896,-3.6782,-3.6405,-3.6405,-3.6405,-3.6329,-3.5877,-3.5669,-3.5494,-3.4974,-3.4982,-3.5039,-3.4664,-3.4794,-3.4865,-3.4386,-3.4166,-3.3946,-3.3623,-3.352,-3.3563,-3.3751,-3.3794,-3.3742,-3.3643,-3.3394,-3.306,-3.2628,-3.1431,-3.0522,-3.0373,-3.0456,-3.0305,-2.9819,-3.019,-3.0138,-2.9325,-2.8279,-2.7616,-2.7586,-2.7122,-2.7122,-2.775,-2.7744,-2.804,-2.871,-2.8596,-2.8568,-2.8568,-2.8539,-2.8708,-2.9041,-2.9041,-2.8979,-2.5763,-2.636,-2.7422,-2.8765,-2.9096,-3.014,0.0,-3.3972,-3.3596,-3.5915,-3.6569,-3.6867,-3.74,-3.8616,-3.9844,-4.0835,-4.1757,-4.2485,-4.3097,-4.3184,-4.3184,-4.3184,-4.3184,-4.3184,-4.3184,-4.3184,-4.3184,-4.3184,-4.3119,-4.29,-4.2442,-4.2376,-4.1939,-4.1109,-4.0756,-4.0297,-3.9757,-3.9001,-3.8766,-3.8959,-3.7848,-3.7445,-3.7601,-3.6832,-3.6433,-3.6356,-3.5634,-3.4819,-3.3905,-3.4363,-3.441,-3.4199,-3.5268,-3.5902,-3.6133,-3.5671,-3.6002,-3.6646,-3.6522,-3.6455,-3.6405,-3.6405,-3.6405,-3.6427,-3.6518,-3.6391,-3.6103,-3.5786,-3.5479,-3.5293,-3.5208,-3.4832,-3.4528,-3.4753,-3.4255,-3.3811,-3.4063,-3.3972,-3.3884,-3.4103,-3.4121,-3.403,-3.3725,-3.3296,-3.2849,-3.2481,-3.1823,-3.1189,-3.0637,-3.0804,-3.0672,-3.0037,-3.0406,-3.0352,-2.9537,-2.9173,-2.8856,-2.8554,-2.8308,-2.8589,-2.9464,-2.9295,-2.9591,-3.0491,-3.0076,-2.9911,-2.9911,-2.9702,-2.9605,-2.9535,-2.9535,-2.9504,-2.763,-2.8096,-2.8701,-3.0275,-3.1125,-3.2329,-3.499,-3.5402,-3.5728,-3.7385,-3.8179,-3.8719,-3.9195,-3.9975,-4.0823,-4.1757,-4.2152,-4.2595,-4.3097,-4.2922,-4.2638,-4.2354,-4.1762,-4.1839,-4.3049,-4.3184,-4.3184,-4.3184,-4.3184,-4.3097,-4.2879,-4.2857,-4.2591,-4.1971,-4.0865,-4.0345,-4.0509,-3.9009,-3.8584,-3.9108,-3.8185,-3.7592,-3.7382,-3.6876,-3.6141,-3.5353,-3.566,-3.4891,-3.3409,-3.4199,-3.4367,-3.4177,-3.501,-3.5711,-3.6302,-3.6196,-3.6522,-3.6899,-3.6538,-3.6405,-3.6405,-3.6405,-3.6405,-3.6452,-3.6615,-3.6514,-3.6251,-3.5889,-3.5992,-3.6049,-3.5476,-3.5188,-3.5057,-3.4908,-3.4392,-3.3964,-3.4139,-3.4354,-3.4423,-3.4223,-3.4336,-3.4288,-3.376,-3.352,-3.3332,-3.3183,-3.2507,-3.1939,-3.1661,-3.1526,-3.1225,-3.066,-3.0634,-3.0557,-3.0249,-3.001,-2.9832,-2.9676,-2.9527,-2.9755,-3.0599,-3.047,-3.0587,-3.0959,-3.0859,-3.0575,-3.008,-3.0019,-2.9898,-2.9713,-2.9713,-2.9682,-2.8756,-2.9331,-3.0028,-3.162,-3.3008,-3.4336,-3.5865,-3.6639,-3.7376,-3.8647,-3.9362,-3.9908,-4.0236,-4.0737,-4.1325,-4.2152,-4.2391,-4.2609,-4.3119,-4.2617,-4.1934,-4.1247,-4.0223,-4.0256,-4.1844,-4.2306,-4.2688,-4.2966,-4.3097,-4.3184,-4.3184,-4.3184,-4.3027,-4.2596,-4.1007,-4.0177,-4.0333,-3.8782,-3.8253,-3.8726,-3.828,-3.7949,-3.7678,-3.6897,-3.5928,-3.4914,-3.5623,-3.499,-3.3564,-3.4372,-3.4532,-3.4323,-3.5057,-3.57,-3.627,-3.6812,-3.7097,-3.7111,-3.6606,-3.6405,-3.6405,-3.6452,-3.6499,-3.6546,-3.6828,-3.678,-3.6573,-3.6256,-3.6341,-3.6452,-3.5712,-3.5414,-3.5204,-3.4977,-3.4434,-3.4058,-3.4412,-3.4652,-3.4784,-3.452,-3.4608,-3.4553,-3.3938,-3.3768,-3.3725,-3.381,-3.3199,-3.2713,-3.2639,-3.228,-3.1862,-3.1287,-3.1083,-3.0929,-3.0773,-3.0622,-3.052,-3.0558,-3.033,-3.0603,-3.1504,-3.1278,-3.1309,-3.1568,-3.1461,-3.1028,-3.0306,-3.0244,-3.0038,-2.9716,-2.9716,-2.9682,-2.8133,-2.953,-3.117,-3.2583,-3.4182,-3.5894,-3.7996,-3.8444,-3.8915,-4.0584,-4.0563,-4.0323,-4.0384,-4.0791,-4.1309,-4.1805,-4.2327,-4.27,-4.3163,-4.2333,-4.1204,-3.9956,-3.8891,-3.8537,-3.9062,-4.0213,-4.1316,-4.2373,-4.29,-4.3184,-4.3184,-4.3184,-4.2944,-4.2442,-4.0947,-3.9584,-3.8425,-3.7928,-3.7685,-3.7642,-3.8017,-3.8395,-3.8668,-3.7117,-3.6107,-3.5699,-3.5699,-3.5167,-3.4316,-3.4905,-3.4928,-3.4636,-3.5787,-3.6143,-3.6077,-3.7468,-3.7663,-3.7111,-3.6606,-3.6405,-3.6452,-3.6615,-3.6662,-3.6781,-3.732,-3.7459,-3.7396,-3.7052,-3.6567,-3.6096,-3.607,-3.526,-3.4512,-3.483,-3.4307,-3.3947,-3.4876,-3.4881,-3.4791,-3.5041,-3.5085,-3.4863,-3.4185,-3.3852,-3.381,-3.4047,-3.3827,-3.3553,-3.3245,-3.2878,-3.2437,-3.1823,-3.1771,-3.1562,-3.1026,-3.0811,-3.0773,-3.0999,-3.0596,-3.0985,-3.2318,-3.1629,-3.1723,-3.282,-3.2089,-3.1367,-3.0804,-3.0584,-3.0178,-2.9617,-2.9617,-2.9617,-2.9793,-3.1254,-3.2729,-3.4615,-3.5832,-3.7148,-3.8993,-3.9341,-3.9626,-4.0737,-4.0171,-3.9628,-3.9952,-4.0102,-4.0468,-4.1287,-4.2011,-4.2653,-4.3119,-4.2595,-4.1673,-4.0251,-3.8583,-3.7554,-3.744,-3.7867,-3.8991,-4.1092,-4.1304,-4.1467,-4.1975,-4.2743,-4.2656,-4.1432,-3.9894,-3.8746,-3.8006,-3.6534,-3.6454,-3.7595,-3.7662,-3.7666,-3.7487,-3.6792,-3.6035,-3.5118,-3.554,-3.507,-3.4049,-3.4683,-3.4753,-3.4546,-3.5386,-3.5805,-3.6007,-3.7071,-3.7337,-3.7161,-3.696,-3.6707,-3.6405,-3.6499,-3.6593,-3.6756,-3.7108,-3.7366,-3.7422,-3.7078,-3.6765,-3.6441,-3.6157,-3.5202,-3.4409,-3.4632,-3.4356,-3.4234,-3.4933,-3.548,-3.5653,-3.5385,-3.5309,-3.4996,-3.4016,-3.3641,-3.3556,-3.381,-3.346,-3.3136,-3.3014,-3.2555,-3.2028,-3.1461,-3.1409,-3.1177,-3.0648,-3.066,-3.0736,-3.0811,-3.0558,-3.0985,-3.2345,-3.1875,-3.196,-3.2738,-3.2505,-3.198,-3.126,-3.0773,-3.0399,-3.0175,-2.9813,-2.9617,-3.1558,-3.3051,-3.4472,-3.6495,-3.7501,-3.8477,-4.0,-4.0139,-4.006,-4.0432,-3.952,-3.8701,-3.883,-3.8659,-3.8892,-4.0134,-4.0847,-4.1658,-4.2605,-4.2127,-4.1275,-4.0184,-3.8104,-3.6668,-3.6588,-3.5681,-3.6475,-3.9783,-4.0306,-4.0843,-4.172,-4.1841,-4.1664,-4.1075,-3.9293,-3.7983,-3.7246,-3.5794,-3.5789,-3.7193,-3.7344,-3.7239,-3.6784,-3.6771,-3.6143,-3.5044,-3.5363,-3.4918,-3.3968,-3.4461,-3.4602,-3.4549,-3.5341,-3.5917,-3.6454,-3.7468,-3.7538,-3.7186,-3.7186,-3.696,-3.6681,-3.655,-3.6687,-3.6922,-3.7155,-3.7413,-3.7592,-3.7384,-3.7078,-3.6701,-3.6209,-3.553,-3.4897,-3.4648,-3.462,-3.4724,-3.5128,-3.5689,-3.6018,-3.55,-3.5487,-3.5216,-3.4117,-3.3768,-3.3641,-3.3683,-3.3418,-3.3213,-3.3296,-3.3003,-3.2525,-3.188,-3.1829,-3.1573,-3.1009,-3.1177,-3.1293,-3.1293,-3.0971,-3.1337,-3.2563,-3.21,-3.2154,-3.2907,-3.2907,-3.2529,-3.1808,-3.1387,-3.1078,-3.0853,-3.0459,-3.0291,-3.3393,-3.4821,-3.63,-3.8256,-3.9038,-3.977,-4.0804,-4.0705,-4.0212,-3.9582,-3.8506,-3.7571,-3.6999,-3.6519,-3.6664,-3.8387,-3.9105,-4.0049,-4.1736,-4.1136,-4.0348,-3.9825,-3.7577,-3.615,-3.6555,-3.4047,-3.4127,-3.8329,0.0,-4.0953,-4.2098,-4.0613,-4.0197,-4.1197,-3.9149,-3.7364,-3.6114,-3.5721,-3.58,-3.6431,-3.708,-3.7174,-3.6825,-3.7044,-3.6497,-3.5438,-3.5246,-3.4787,-3.4108,-3.4339,-3.4483,-3.4657,-3.5601,-3.6512,-3.7392,-3.8517,-3.8215,-3.7236,-3.7236,-3.7186,-3.7109,-3.6792,-3.6875,-3.7155,-3.7413,-3.7716,-3.79,-3.79,-3.7456,-3.6836,-3.6305,-3.6079,-3.5791,-3.4863,-3.5014,-3.5443,-3.5521,-3.5739,-3.5862,-3.55,-3.5569,-3.547,-3.4565,-3.423,-3.4021,-3.3768,-3.3725,-3.381,-3.4021,-3.4089,-3.3756,-3.2941,-3.2848,-3.2593,-3.2005,-3.222,-3.238,-3.238,-3.1863,-3.199,-3.3013,-3.227,-3.2336,-3.3319,-3.3326,-3.3045,-3.2455,-3.2426,-3.2117,-3.1527,-3.1499,-3.1499,-3.4738,-3.6534,-3.8062,-3.8636,-3.9492,-4.0049,-3.9481,-3.915,-3.855,-3.7271,-3.599,-3.4912,-3.4214,-3.4752,-3.579,-3.755,-3.9146,-4.0853,-4.2605,-4.2401,-4.1805,-4.1269,-3.971,-3.8187,-3.6991,-3.6833,-3.6739,0.0,-3.6808,-3.7555,-3.9042,-4.0085,-4.0074,-3.8899,-3.8268,-3.7055,-3.5296,-3.5126,-3.5249,-3.5685,-3.6669,-3.7208,-3.7301,-3.7018,-3.656,-3.5894,-3.5209,-3.4606,-3.4108,-3.4111,-3.4516,-3.5245,-3.5756,-3.6765,-3.7892,-3.8617,-3.8417,-3.7789,-3.7789,-3.7262,-3.6581,-3.6666,-3.6875,-3.7155,-3.7413,-3.7716,-3.79,-3.79,-3.7182,-3.6509,-3.6713,-3.6063,-3.5302,-3.5219,-3.5513,-3.5811,-3.6055,-3.6319,-3.6412,-3.5997,-3.5288,-3.4637,-3.4241,-3.4131,-3.4089,-3.3979,-3.3852,-3.3683,-3.3598,-3.3581,-3.3267,-3.2458,-3.2382,-3.2155,-3.1599,-3.1939,-3.2166,-3.2166,-3.2171,-3.2698,-3.3864,-3.2992,-3.3001,-3.4186,-3.3621,-3.3206,-3.3101,-3.2623,-3.2314,-3.2174,-3.1696,-3.1499,-3.6565,-3.8026,-3.9151,-3.949,-4.0096,-4.0222,-3.8892,-3.8381,-3.7524,-3.5058,-3.3855,-3.2851,-3.1804,-3.2802,-3.436,-3.6101,-3.8167,-4.0337,-4.2319,-4.2418,-4.2289,-4.2376,-4.1018,-3.9488,-3.8081,-3.7757,-3.7182,-3.5916,-3.627,-3.7145,-3.8367,-3.8655,-3.8535,-3.8044,-3.7244,-3.6157,-3.4556,-3.4599,-3.4883,-3.5412,-3.6321,-3.6953,-3.7177,-3.6573,-3.5995,-3.548,0.0,-3.4017,-3.3993,-3.4164,-3.4786,-3.567,-3.6586,-3.7512,-3.8442,-3.9019,-3.8718,-3.8015,-3.8015,-3.7287,-3.6452,-3.6615,-3.6875,-3.7155,-3.7413,-3.7716,-3.7854,-3.7762,-3.7272,-3.6825,-3.6838,-3.6509,-3.6089,-3.5853,-3.6279,-3.6743,-3.6488,-3.6599,-3.6488,-3.5711,-3.494,-3.4356,-3.423,-3.423,-3.423,-3.423,-3.4105,-3.3937,-3.3725,-3.3513,-3.3199,-3.2659,-3.2591,-3.2466,-3.2164,-3.2555,-3.2803,-3.2803,-3.2857,-3.3423,-3.453,-3.3533,-3.3477,-3.4626,-3.3847,-3.3431,-3.3431,-3.3023,-3.2792,-3.2792,-3.2455,-3.2286,-3.8641,-3.9371,-3.9827,-4.0378,-4.0524,-4.0043,-3.8444,-3.7716,-3.638,-3.2966,-3.1763,-3.0954,-2.9591,-3.0764,-3.2608,-3.4546,-3.6729,-3.9105,-4.1654,-4.1913,-4.2133,-4.3119,-4.1845,-4.0521,-3.9536,-3.8133,-3.6937,-3.618,-3.7051,-3.7988,-3.8846,-3.7394,-3.6959,-3.8016,-3.6509,-3.5155,-3.4066,-3.4172,-3.4659,-3.548,-3.6008,-3.6406,-3.6738,-3.5924,-3.5312,-3.4696,0.0,0.0,-3.4022,-3.4472,-3.5207,-3.6233,-3.7567,-3.8488,-3.9044,-3.9521,-3.9019,-3.8115,-3.8089,-3.7385,-3.66,-3.6687,-3.6922,-3.7155,-3.7459,-3.7716,-3.7808,-3.7551,-3.7459,-3.7284,-3.6767,-3.7025,-3.7263,-3.6642,-3.7138,-3.7581,-3.6959,-3.6705,-3.6259,-3.52,-3.4751,-3.4476,-3.4424,-3.4476,-3.4476,-3.4397,-3.4397,-3.4272,-3.4063,-3.3725,-3.3411,-3.3197,-3.3197,-3.3197,-3.3197,-3.3513,-3.3768,-3.3768,-3.3706,-3.4152,-3.5225,-3.4142,-3.3992,-3.4946,-3.4171,-3.3725,-3.3605,-3.3466,-3.3361,-3.329,-3.3326,-3.3361,-3.9951,-4.0534,-4.0515,-4.0326,-4.0066,-3.9279,-3.7002,-3.5239,-3.3371,-3.0874,-2.9514,-2.8463,-2.7621,-2.9053,-3.1243,-3.408,-3.5935,-3.8272,-4.1951,-4.1829,-4.1834,-4.3049,-4.2656,-4.1939,-4.1072,-4.0228,-3.9493,-3.9017,-3.7709,-3.7343,-3.8147,-3.8151,-3.8242,-3.8296,-3.6855,-3.5656,-3.4759,-3.4181,-3.454,-3.5908,-3.5374,-3.5664,-3.6491,-3.5961,-3.5275,-3.4448,-3.4283,0.0,-3.4875,-3.491,-3.5994,-3.7546,-3.7919,-3.8711,-3.9572,-3.9672,-3.927,-3.8693,-3.8438,-3.7929,-3.7369,-3.7122,-3.7062,-3.7201,-3.769,-3.7716,-3.7551,-3.7505,-3.7155,-3.6896,-3.698,-3.6938,-3.6904,-3.7311,-3.7137,-3.701,-3.7343,-3.6678,-3.5871,-3.5675,-3.5375,-3.4972,-3.4476,-3.4816,-3.4972,-3.4476,-3.4272,-3.4063,-3.381,-3.3894,-3.3852,-3.3641,-3.3598,-3.3598,-3.3598,-3.3852,-3.4021,-3.4021,-3.4194,-3.4817,-3.6038,-3.526,-3.5113,-3.5784,-3.501,-3.4263,-3.3605,-3.3709,-3.364,-3.329,-3.3466,-3.3536,-4.111,-4.1586,-4.1468,-4.0899,-4.007,-3.8614,-3.5722,-3.3691,-3.1553,-2.8842,-2.7855,-2.7263,-2.6465,-2.789,-2.9988,-3.2455,-3.3806,-3.6162,-4.0651,-4.0633,-4.0875,-4.2688,-4.2883,-4.2441,-4.1289,-4.0983,-4.0484,-3.9478,-3.87,-3.8482,-3.8846,-3.8846,-3.8524,-3.7867,-3.7144,-3.6386,-3.5451,-3.5519,-3.5607,-3.5712,-3.5644,-3.5512,-3.521,-3.4972,-3.4469,-3.3943,-3.4456,0.0,-3.5335,-3.6179,-3.7127,-3.8214,-3.8701,-3.924,-3.9697,-3.9697,-3.9448,-3.9095,-3.8917,-3.8583,-3.8143,-3.7891,-3.7552,-3.7366,-3.7762,-3.7716,-3.7459,-3.732,-3.7015,-3.6709,-3.6875,-3.7032,-3.7242,-3.7521,-3.7464,-3.7337,-3.7377,-3.6852,-3.6248,-3.5697,-3.5652,-3.5626,-3.5338,-3.5521,-3.5521,-3.4946,-3.4783,-3.4552,-3.4131,-3.4189,-3.4063,-3.3598,-3.3641,-3.3725,-3.3725,-3.3937,-3.4131,-3.4131,-3.4272,-3.495,-3.6255,-3.5625,-3.5543,-3.6136,-3.536,-3.4587,-3.3854,-3.3882,-3.3779,-3.3605,-3.3709,-3.3709,-4.2166,-4.2562,-4.2376,-4.1665,-4.0188,-3.8061,-3.4724,-3.2476,-3.0272,-2.7392,-2.6763,-2.6523,-2.581,-2.7047,-2.884,-3.0898,-3.1978,-3.4292,-3.9295,-3.9603,-4.0254,-4.2591,-4.3088,-4.2716,-4.1506,-4.1402,-4.0983,-3.991,-4.0126,-4.0218,-3.9858,-3.9694,-3.9026,-3.7817,-3.7516,-3.6875,-3.5976,-3.6403,-3.6119,-3.5151,-3.5783,-3.5435,-3.4264,-3.4037,-3.3945,-3.3976,-3.4656,0.0,0.0,-3.7418,-3.8291,-3.8736,-3.9438,-3.9594,-3.9438,-3.949,-3.9267,-3.8918,-3.907,-3.8841,-3.8503,-3.8324,-3.8002,-3.7707,-3.7788,-3.7598,-3.7366,-3.7108,-3.6828,-3.6615,-3.6427,-3.6807,-3.726,-3.7385,-3.7604,-3.7724,-3.7308,-3.6964,-3.6522,-3.5744,-3.5908,-3.6165,-3.6123,-3.6201,-3.6096,-3.5547,-3.5469,-3.5286,-3.4773,-3.4617,-3.437,-3.3777,-3.3802,-3.3852,-3.3852,-3.4021,-3.4147,-3.4147,-3.4314,-3.495,-3.6255,-3.5841,-3.5807,-3.628,-3.5681,-3.494,-3.4094,-3.4054,-3.3951,-3.3882,-3.3917,-3.3848,-4.3118,-4.3467,-4.3188,-4.2188,-4.0134,-3.7545,-3.4261,-3.1504,-2.9085,-2.7212,-2.6291,-2.5791,-2.5693,-2.6369,-2.7807,-3.0442,-3.1677,-3.4015,-3.8853,-3.976,-4.0915,-4.3485,-4.3425,-4.3197,-4.3113,-4.2018,-4.1622,-4.2208,-4.2278,-4.1714,-4.0341,-4.0882,-4.0701,-3.935,-3.8057,-3.6925,-3.5976,-3.5382,-3.4899,-3.4412,-3.4812,-3.495,-3.4714,-3.4173,-3.4418,-3.5329,-3.5432,0.0,0.0,-3.8185,-3.8841,-3.9594,-3.9697,-3.9206,-3.8579,-3.8788,-3.8372,-3.7753,-3.828,-3.8116,-3.7742,-3.7894,-3.8118,-3.8225,-3.7707,-3.7366,-3.7062,-3.6803,-3.6593,-3.6263,-3.5523,-3.5722,-3.621,-3.6697,-3.7245,-3.7568,-3.7238,-3.6568,-3.6034,-3.6211,-3.6412,-3.6456,-3.6157,-3.6541,-3.6724,-3.6123,-3.6044,-3.5931,-3.5703,-3.5392,-3.508,-3.4796,-3.45,-3.4356,-3.4356,-3.4356,-3.4356,-3.4356,-3.4397,-3.495,-3.6255,-3.6239,-3.6266,-3.6309,-3.6222,-3.5513,-3.4094,-3.4264,-3.4191,-3.3882,-3.4025,-3.4059,-4.2426,-4.332,-4.3623,-4.2529,-4.0113,-3.7187,-3.4138,-3.1158,-2.8584,-2.6734,-2.6035,-2.5693,-2.5693,-2.5664,-2.6412,-2.8787,-2.8967,-3.0544,-3.5623,-3.635,-3.7657,-4.1155,-4.1813,-4.2111,-4.2493,-4.2477,-4.2511,-4.2559,-4.1926,-4.1452,-4.1025,-4.1331,-4.0912,-3.9578,-3.8983,-3.8259,-3.7368,-3.7011,-3.6253,-3.495,-3.5781,-3.5343,-3.3731,-3.4527,-3.5046,-3.5425,-3.625,0.0,0.0,-3.8893,-3.9387,-3.9697,-3.9697,-3.9283,-3.8631,-3.8579,-3.8238,-3.7719,-3.7481,-3.7372,-3.7335,-3.7291,-3.7329,-3.7419,-3.7288,-3.7062,-3.6879,-3.7188,-3.686,-3.6356,-3.6161,-3.6498,-3.7057,-3.7591,-3.7888,-3.8014,-3.7739,-3.7096,-3.659,-3.6544,-3.6729,-3.6928,-3.6949,-3.6988,-3.6936,-3.6679,-3.6486,-3.6293,-3.6017,-3.587,-3.5739,-3.5626,-3.4904,-3.4397,-3.4397,-3.4397,-3.4397,-3.4397,-3.4397,-3.495,-3.6255,-3.6294,-3.649,-3.6889,-3.6519,-3.5845,-3.4877,-3.4232,-3.4226,-3.4802,-3.4495,-3.4667,-4.1254,-4.2658,-4.3297,-4.2366,-3.9979,-3.6958,-3.3849,-3.0926,-2.834,-2.6368,-2.582,-2.5693,-2.5693,-2.5382,-2.5786,-2.7784,-2.7756,-2.9066,-3.3741,-3.4634,-3.6093,-3.9595,-4.0351,-4.0908,-4.1559,-4.2306,-4.2603,-4.2441,-4.1594,0.0,-4.1331,-4.1205,-4.0625,-3.9558,-3.926,-3.876,-3.7857,-3.7837,-3.7058,-3.5418,-3.6522,-3.5991,-3.3849,-3.5113,-3.5865,-3.6216,0.0,0.0,0.0,-3.9413,-3.9697,-3.9697,-3.9697,-3.9154,-3.8396,-3.8185,-3.7708,-3.7079,-3.659,-3.6412,-3.6486,-3.6427,-3.6333,-3.626,-3.65,-3.6614,-3.6709,-3.7165,-3.6579,-3.5853,-3.6101,-3.6582,-3.7144,-3.7853,-3.8056,-3.8015,-3.8015,-3.7425,-3.6875,-3.6709,-3.6875,-3.7062,-3.7366,-3.7227,-3.7073,-3.7053,-3.6929,-3.6774,-3.6538,-3.633,-3.627,-3.627,-3.5167,-3.4533,-3.4659,-3.4659,-3.458,-3.4397,-3.458,-3.5136,-3.6255,-3.6294,-3.6631,-3.7295,-3.6838,-3.6286,-3.5683,-3.4625,-3.4554,-3.5402,-3.4946,-3.521,-3.9968,-4.1275,-4.2111,-4.1578,-3.9622,-3.6874,-3.3348,-3.0622,-2.8289,-2.6143,-2.5693,-2.5693,-2.5693,-2.5693,-2.6202,-2.7835,-2.9086,-3.1035,-3.4401,-3.5933,-3.753,-3.9744,-3.964,-3.9717,-4.0724,-4.12,-4.1686,-4.2018,-4.1686,0.0,-4.0954,-4.0468,-4.0013,-3.9558,-3.8755,-3.7984,-3.7099,-3.7079,-3.6522,-3.5418,-3.6522,-3.6616,-3.5796,-3.5977,-3.6845,0.0,0.0,0.0,0.0,-3.9697,-3.9697,-3.9697,-3.9697,-3.8816,-3.7524,-3.7524,-3.6634,-3.5443,-3.5497,-3.5205,-3.482,-3.5413,-3.5216,-3.4812,-3.5278,-3.5851,-3.6333,-3.6621,-3.5568,-3.4456,-3.4879,-3.526,-3.5802,-3.6848,-3.7156,-3.7369,-3.7916,-3.7136,-3.6452,-3.6662,-3.6709,-3.6803,-3.7062,-3.7108,-3.7108,-3.7108,-3.7294,-3.7505,-3.7505,-3.6962,-3.6599,-3.6599,-3.537,-3.4813,-3.5243,-3.5286,-3.5025,-3.4424,-3.4946,-3.5588,-3.6282,-3.6294,-3.6631,-3.7295,-3.7302,-3.6954,-3.6286,-3.5674,-3.541,-3.541,-3.541,-3.5739,-3.6587,-3.8253,-3.9318,-3.8277,-3.6748,-3.4734,-3.2087,-3.0127,-2.8364,-2.6594,-2.611,-2.5965,-2.5965,-2.611,-2.6843,-2.8565,-2.9573,-3.1072,-3.3513,-3.5495,-3.7002,-3.7823,-3.9144,-4.0438,-4.1552,-4.1297,-4.1239,-4.1615,-4.1331,0.0,-4.0448,-4.0303,-3.9733,-3.8775,-3.8677,-3.816,-3.7079,-3.7636,-3.7421,-3.6609,-3.7421,-3.7233,-3.6099,-3.6784,0.0,0.0,0.0,0.0,0.0,-3.9697,-3.9697,-3.9697,-3.9697,-3.9154,-3.8295,-3.7355,-3.6367,-3.529,-3.4102,-3.3436,-3.3272,-3.3925,-3.4045,-3.4119,-3.5567,-3.5836,-3.571,-3.5765,-3.5603,-3.5278,-3.5077,-3.5373,-3.5916,-3.6888,-3.7264,-3.7606,-3.8165,-3.7541,-3.6935,-3.6791,-3.6609,-3.6593,-3.6781,-3.6828,-3.6922,-3.7062,-3.7155,-3.7227,-3.7227,-3.7232,-3.7221,-3.7221,-3.6638,-3.5841,-3.4891,-3.4813,-3.4555,-3.3962,-3.4606,-3.5378,-3.6044,-3.6215,-3.6632,-3.7301,-3.7284,-3.6782,-3.5695,-3.5059,-3.4758,-3.4788,-3.5626,-3.613,-3.3833,-3.5521,-3.6623,-3.6111,-3.4984,-3.3333,-3.1126,-2.9581,-2.8117,-2.6623,-2.6207,-2.6139,-2.6235,-2.6304,-2.6861,-2.8562,-2.9363,-3.0561,-3.2814,-3.4935,-3.6561,-3.7505,-3.8993,-4.0365,-4.1207,-4.103,-4.1096,-4.1473,0.0,0.0,-4.0241,-3.9819,-3.9012,-3.7579,-3.8187,-3.8176,-3.7238,-3.7723,-3.7723,-3.7238,-3.7723,-3.7556,-3.6834,-3.7544,0.0,0.0,0.0,0.0,0.0,-3.9697,-3.9697,-3.9672,-3.9471,-3.9011,-3.8368,-3.7187,-3.6143,-3.5136,-3.3607,-3.2952,-3.2867,-3.3242,-3.3592,-3.4123,-3.529,-3.5566,-3.5465,-3.5143,-3.5186,-3.5212,-3.4924,-3.5455,-3.6309,-3.6827,-3.7197,-3.7442,-3.7582,-3.6897,-3.6235,-3.6185,-3.6058,-3.6171,-3.6776,-3.6802,-3.6877,-3.7391,-3.7464,-3.7388,-3.7326,-3.7253,-3.7271,-3.732,-3.6667,-3.589,-3.5289,-3.5326,-3.501,-3.4212,-3.4857,-3.5505,-3.6084,-3.5896,-3.6282,-3.725,-3.7187,-3.6656,-3.5731,-3.5112,-3.4838,-3.4861,-3.5251,-3.5776,0.0,-3.3021,-3.3803,-3.4556,-3.3793,-3.2332,-3.0326,-2.8939,0.0,-2.6417,-2.6139,-2.6207,-2.6528,-2.6412,-2.6692,-2.8127,-2.8761,-2.9876,-3.2406,-3.4383,-3.6351,-3.8555,-3.9197,-3.9668,-4.0087,-4.0555,-4.1096,-4.1473,0.0,0.0,-4.0179,-3.9192,-3.7861,-3.618,-3.7374,-3.7856,-3.7357,-3.7463,-3.7529,-3.7488,-3.7488,-3.7613,-3.7902,-3.8073,0.0,0.0,0.0,0.0,0.0,-3.9697,-3.9697,-3.9647,-3.9094,-3.8564,-3.798,-3.7037,-3.6057,-3.4958,-3.3931,-3.3518,-3.3422,-3.3222,-3.3748,-3.4534,-3.4534,-3.5069,-3.5543,-3.4736,-3.4534,-3.4513,-3.4568,-3.5576,-3.6611,-3.6796,-3.6932,-3.6932,-3.6555,-3.5571,-3.4825,-3.509,-3.5138,-3.5599,-3.6893,-3.6945,-3.7096,-3.789,-3.7965,-3.7862,-3.7599,-3.7088,-3.6862,-3.7066,-3.5812,-3.5372,-3.6294,-3.647,-3.6044,-3.4951,-3.5443,-3.5901,-3.6191,-3.544,-3.5683,-3.7095,-3.6872,-3.6531,-3.6215,-3.5629,-3.5331,-3.5263,-3.4439,-3.4786,-2.853,0.0,-2.9996,-2.96,-2.9479,-2.9144,0.0,-2.7486,-2.7097,-2.6503,-2.64,-2.6649,-2.7381,-2.7467,-2.8003,-2.9695,-3.0683,-3.1717,-3.3058,-3.4901,-3.7003,-3.9495,-3.9713,-3.9789,-4.0082,-4.0555,-4.1096,0.0,0.0,-3.9423,-3.9654,-3.8113,-3.6972,-3.6416,-3.6708,-3.6515,-3.5884,-3.731,-3.7839,-3.7488,-3.7488,-3.7572,-3.7786,-3.8033,0.0,0.0,0.0,0.0,-3.9697,-3.9697,-3.9697,-3.9647,-3.9094,-3.8818,-3.854,-3.7491,-3.6249,-3.5105,-3.467,-3.3847,-3.3025,-3.3485,-3.4032,-3.4534,-3.4534,-3.4624,-3.4736,-3.459,-3.4534,-3.4624,-3.5323,-3.5468,-3.5826,-3.7559,-3.7249,-3.6611,-3.7012,-3.6169,-3.5239,-3.4672,-3.4704,-3.5127,-3.6088,-3.6677,-3.7245,-3.7891,-3.7859,-3.7579,-3.7356,-3.6953,-3.672,-3.6781,-3.6866,-3.6882,-3.6903,-3.6197,-3.544,-3.4717,-3.5179,-3.5427,-3.5331,-3.5114,-3.5155,-3.5521,-3.5032,-3.5059,-3.5629,-3.4812,-3.4424,-3.4424,-3.3979,-3.3953,-2.7097,-2.8231,-2.8991,-2.7927,-2.8257,-2.8544,-2.7036,-2.6511,-2.6222,-2.5693,-2.5897,-2.626,-2.6663,-2.7462,-2.8532,-3.0127,-3.0631,-3.1546,-3.3516,-3.4995,-3.675,-3.9111,-3.9126,-3.903,0.0,-3.9667,-3.995,0.0,0.0,-3.8528,-3.8983,-3.7646,-3.6702,-3.6219,-3.6643,-3.6345,-3.529,-3.6779,-3.7322,-3.6867,-3.6767,-3.7205,-3.791,-3.7805,-3.8359,0.0,0.0,0.0,-3.9697,-3.9697,-3.9697,-3.9622,-3.8793,-3.8467,-3.8316,-3.6949,-3.5915,-3.5067,-3.4611,-3.3907,-3.3351,-3.3934,-3.4571,-3.5102,-3.5102,-3.5378,-3.5598,-3.5212,-3.5102,-3.5223,-3.5902,-3.6108,-3.6467,-3.7541,-3.7048,-3.6331,-3.6331,-3.5549,-3.4584,-3.3825,-3.4106,-3.489,-3.613,-3.6892,-3.7712,-3.8768,-3.8717,-3.8364,-3.7834,-3.7287,-3.6958,-3.6879,-3.6734,-3.6726,-3.7025,-3.6238,-3.5497,-3.519,-3.5076,-3.5081,-3.5168,-3.4579,-3.4454,-3.4868,-3.423,-3.4356,-3.5223,-3.4356,-3.3894,-3.3894,-3.3683,-3.3598,-2.6804,-2.8292,-2.9228,-2.7884,-2.8479,-2.892,-2.6881,-2.6154,-2.5603,-2.4758,-2.5145,-2.5662,-2.5629,-2.6953,-2.8476,-2.9828,-3.0046,-3.1073,-3.4023,-3.5131,-3.6259,-3.8111,-3.8093,0.0,-3.8379,-3.8496,0.0,0.0,0.0,-3.7477,-3.8306,-3.7257,-3.6396,-3.5921,-3.666,-3.6439,-3.5012,-3.6113,-3.6473,-3.606,-3.5851,-3.6578,-3.8068,-3.7501,-3.8162,0.0,0.0,0.0,-3.9697,-3.9697,-3.9697,-3.9597,-3.8542,-3.809,-3.7865,-3.6479,-3.5599,-3.4993,-3.4267,-3.4011,-3.3967,-3.4548,-3.5212,-3.5795,-3.5959,-3.6503,-3.6989,-3.634,-3.6068,-3.6062,-3.6409,-3.6952,-3.7421,-3.7242,-3.6802,-3.6234,-3.5596,-3.486,-3.408,-3.3384,-3.3954,-3.5138,-3.6635,-3.7351,-3.8248,-3.9802,-3.9776,-3.9322,-3.8613,-3.7792,-3.7244,-3.7198,-3.636,-3.6135,-3.6942,-3.6431,-3.6038,-3.5978,-3.5131,-3.4812,-3.5168,-3.4105,-3.3852,-3.4538,-3.4021,-3.4037,-3.4786,-3.4037,-3.3641,-3.3641,-3.3428,-3.3428,-2.7748,-2.8765,-2.9104,-2.7617,-2.8041,-2.8441,-2.6935,-2.6758,-2.6596,-2.5302,-2.5233,-2.5603,-2.6129,-2.6699,-2.7642,-2.9257,-3.0997,-3.2944,-3.5306,-3.6064,-3.6627,-3.7332,0.0,-3.7827,-3.7429,0.0,0.0,0.0,0.0,-3.6848,-3.7863,-3.585,-3.5148,-3.616,-3.5706,-3.5161,-3.4779,-3.5728,-3.6102,-3.5892,-3.5493,-3.6084,-3.7451,-3.7345,-3.8162,0.0,0.0,-3.9697,-3.9697,-3.9697,-3.9697,-3.9622,-3.8994,-3.8442,-3.799,-3.7689,-3.6567,-3.5011,-3.4389,-3.4251,-3.4536,-3.5356,-3.5685,-3.5959,-3.6665,-3.6965,-3.7257,-3.7814,-3.7471,-3.6979,-3.7324,-3.71,-3.7014,-3.7717,-3.7243,-3.664,-3.6565,-3.626,-3.5853,-3.5348,-3.5723,-3.6383,-3.737,-3.7986,-3.8638,-3.962,-3.9346,-3.9045,-3.912,-3.8013,-3.7285,-3.7518,-3.7108,-3.6943,-3.7073,-3.691,-3.6824,-3.6836,-3.5556,-3.4684,-3.4298,-3.4105,-3.3937,-3.3852,-3.3768,-3.3768,-3.3894,-3.3598,-3.3428,-3.3428,-3.324,-3.3154,-2.6999,-2.7715,-2.816,-2.7511,-2.866,-2.9291,-2.7005,-2.6685,-2.6454,-2.4909,-2.5016,-2.5536,-2.5828,-2.7094,-2.895,-3.1516,-3.3341,-3.4671,-3.5555,-3.5492,-3.5624,0.0,0.0,-3.6478,-3.6616,0.0,0.0,0.0,0.0,0.0,-3.7604,-3.6336,-3.5796,-3.6332,-3.5542,-3.5024,-3.484,-3.4849,-3.5014,-3.5396,-3.513,-3.5569,-3.6577,-3.6359,-3.6929,-3.8031,0.0,-3.782,-3.782,-3.8161,-3.8502,-3.8662,-3.8175,-3.8187,-3.8392,-3.7599,-3.6351,-3.508,-3.4926,-3.5111,-3.5566,-3.5927,-3.658,-3.7281,-3.7708,-3.8133,-3.8607,-3.8998,-3.8254,-3.7421,-3.771,-3.7419,-3.7047,-3.7465,-3.6947,-3.6309,-3.638,-3.6362,-3.6141,-3.5392,-3.6067,-3.6967,-3.7591,-3.8188,-3.8921,-3.9775,-3.9727,-3.955,-3.9522,-3.8388,-3.7659,-3.7814,-3.7253,-3.6887,-3.681,-3.6781,-3.6456,-3.5771,-3.5227,-3.4555,-3.3751,-3.381,-3.381,-3.3725,-3.3598,-3.3556,-3.3556,-3.3368,-3.324,-3.324,-3.3154,-3.3111,-2.5829,-2.6413,-2.6999,-2.7021,-2.852,-2.9407,-2.7327,-2.6749,-2.6318,-2.511,-2.5328,-2.5722,-2.5761,-2.7807,-3.0547,-3.3595,-3.5166,-3.5996,-3.6054,-3.5619,-3.5614,-3.6091,-3.5741,-3.565,0.0,0.0,0.0,0.0,0.0,0.0,-3.7014,-3.6629,-3.6332,-3.6335,-3.5459,-3.5032,-3.5082,-3.4265,-3.4228,-3.4965,-3.4748,-3.5115,-3.5949,-3.5645,-3.5959,-3.6727,-3.6511,-3.6348,-3.6348,-3.6858,-3.7418,-3.7743,-3.7412,-3.784,-3.851,-3.7204,-3.6256,-3.5696,-3.5759,-3.595,-3.62,-3.6417,-3.7066,-3.7868,-3.8315,-3.8893,-3.9438,-3.9645,-3.871,-3.7735,-3.7966,-3.7688,-3.7337,-3.7211,-3.696,-3.6789,-3.6924,-3.7219,-3.7187,-3.6396,-3.7056,-3.7829,-3.812,-3.865,-3.9233,-3.9929,-4.0032,-3.9931,-3.9801,-3.8867,-3.8263,-3.8296,-3.7438,-3.6871,-3.6839,-3.6878,-3.6418,-3.519,-3.4942,-3.4487,-3.3666,-3.3683,-3.3725,-3.3725,-3.3513,-3.3386,-3.3326,-3.3197,-3.3111,-3.3111,-3.3111,-3.3111,-2.4783,-2.5343,-2.572,-2.5647,-2.6407,-2.7397,-2.8084,-2.757,-2.697,-2.6866,-2.6814,-2.6675,-2.654,-2.887,-3.1497,-3.3675,-3.5343,-3.666,-3.7509,0.0,-3.7955,-3.7767,-3.7242,0.0,0.0,0.0,0.0,0.0,0.0,0.0,-3.5631,-3.5519,-3.5641,-3.6204,-3.5029,-3.4632,-3.5198,-3.448,-3.4331,-3.4783,-3.4367,-3.4724,-3.5808,-3.5763,-3.6231,-3.7073,-3.7019,-3.6858,-3.6619,-3.6965,-3.7233,-3.7501,-3.7477,-3.7743,-3.7959,-3.7035,-3.6996,-3.7317,-3.7073,-3.6503,-3.5959,-3.6773,-3.6557,-3.6286,-3.7921,-3.8473,-3.8684,-3.949,-3.8868,-3.7966,-3.7965,-3.7965,-3.7814,-3.7312,-3.812,-3.9139,-3.961,-4.0177,-4.0539,-4.0488,-3.9956,-3.9517,-3.9544,-3.962,-3.9645,-3.9749,-3.9749,-3.9826,-4.0032,-3.9348,-3.8944,-3.917,-3.818,-3.7483,-3.7433,-3.7638,-3.7423,-3.6619,-3.5512,-3.4701,-3.434,-3.3937,-3.3725,-3.3725,-3.3513,-3.3326,-3.3111,-3.3111,-3.3111,-3.3111,-3.3111,-3.3111,-2.3682,-2.4206,-2.4715,-2.4769,-2.5111,-2.5857,-2.7429,-2.812,-2.8414,-2.8114,-2.8577,-2.8965,-2.868,-3.1158,-3.3674,-3.5066,-3.636,-3.7709,-3.8986,-3.8352,-3.7678,-3.737,-3.6719,0.0,0.0,0.0,0.0,0.0,0.0,0.0,-3.579,-3.6048,-3.5793,-3.5024,-3.4461,-3.4288,-3.4515,-3.4229,-3.4285,-3.4628,-3.4454,-3.4568,-3.5013,-3.4847,-3.4902,-3.5212,-3.5046,-3.4858,-3.4747,-3.5268,-3.574,-3.6286,-3.715,-3.715,-3.6634,-3.6694,-3.658,-3.6417,-3.6145,-3.62,-3.6363,-3.6526,-3.6611,-3.6827,-3.8027,-3.8421,-3.8579,-3.9413,-3.9396,-3.8969,-3.8642,-3.8015,-3.7538,-3.7663,-3.8475,-3.9262,-3.9469,-4.0353,-4.092,-4.0426,-4.0386,-4.0287,-3.98,-3.9697,-3.9697,-3.9697,-3.9697,-3.98,-4.0083,-3.9398,-3.902,-3.9297,-3.8403,-3.7676,-3.7511,-3.7762,-3.7593,-3.6903,-3.5856,-3.5115,-3.476,-3.3947,-3.3556,-3.3725,-3.3513,-3.3326,-3.3111,-3.3111,-3.3111,-3.3111,-3.3111,-3.3111,-2.2258,-2.2864,-2.3649,-2.3508,-2.3983,-2.5117,-2.7193,-2.8646,-2.9635,-3.0127,-3.0691,-3.1057,-3.0947,-3.2721,-3.4573,-3.5735,-3.6893,-3.8123,-3.9474,-3.8662,-3.7744,-3.7368,0.0,0.0,0.0,0.0,0.0,0.0,0.0,0.0,0.0,-3.586,-3.5496,-3.4275,-3.4146,-3.4142,-3.4255,-3.4255,-3.4311,-3.4534,-3.4534,-3.4534,-3.4457,-3.4311,-3.4255,-3.4199,-3.3974,-3.3861,-3.3805,-3.4289,-3.4847,-3.5488,-3.6557,-3.6634,-3.6114,-3.644,-3.6417,-3.6145,-3.6004,-3.6168,-3.6363,-3.62,-3.6417,-3.6881,-3.7761,-3.8185,-3.8579,-3.9413,-3.9572,-3.9396,-3.917,-3.8417,-3.7814,-3.8191,-3.8883,-3.9521,-3.9702,-4.0627,-4.128,-4.0743,-4.0811,-4.0744,-4.0185,-3.9852,-3.9749,-3.98,-3.9749,-3.98,-4.0083,-3.955,-3.9171,-3.9146,-3.8581,-3.8053,-3.7676,-3.7794,-3.7717,-3.7299,-3.6366,-3.5587,-3.4926,-3.4126,-3.3674,-3.3598,-3.3386,-3.324,-3.3111,-3.3111,-3.3111,-3.3111,-3.3111,-3.3111,-2.0387,-2.1338,-2.2402,-2.1782,-2.3135,-2.5255,-2.7843,-2.9077,-3.0388,-3.3125,-3.3115,-3.2763,-3.3115,-3.3187,-3.3755,-3.5533,-3.6729,-3.7754,-3.883,-3.8868,-3.857,0.0,0.0,0.0,0.0,0.0,0.0,0.0,0.0,0.0,0.0,-3.4604,-3.4561,-3.4108,-3.4086,-3.4255,-3.4457,-3.4534,-3.4534,-3.4534,-3.4534,-3.4534,-3.4534,-3.4534,-3.4534,-3.4534,-3.4534,-3.4367,-3.4142,-3.4423,-3.4847,-3.5423,-3.5708,-3.6145,-3.6657,-3.6386,-3.6634,-3.7096,-3.7096,-3.6503,-3.5795,-3.5795,-3.5795,-3.5959,-3.6804,-3.7684,-3.8579,-3.9413,-3.9295,-3.9045,-3.9546,-3.9295,-3.8919,-3.8919,-3.9496,-4.0171,-4.0767,-4.1445,-4.199,-4.199,-4.1421,-4.0896,-4.0896,-4.0236,-3.98,-4.0083,-3.9878,-3.98,-4.0083,-3.9826,-3.9471,-3.8969,-3.8839,-3.8546,-3.7957,-3.7888,-3.79,-3.79,-3.717,-3.6159,-3.4951,-3.451,-3.3994,-3.3411,-3.3197,-3.3111,-3.3111,-3.3111,-3.3111,-3.3111,-3.3111,-3.3111,-2.2639,-2.3149,-2.407,-2.4861,-2.6238,-2.8129,-3.0789,-3.0895,-3.123,-3.4289,-3.418,-3.3576,-3.3701,-3.424,-3.4864,-3.5541,-3.663,-3.7767,-3.8692,-3.8557,0.0,0.0,0.0,0.0,0.0,0.0,0.0,0.0,0.0,0.0,0.0,-3.418,-3.4161,-3.3487,-3.3861,-3.4142,-3.4199,-3.4423,-3.4534,-3.4534,-3.4534,-3.4534,-3.4534,-3.4534,-3.4534,-3.4534,-3.4534,-3.4457,-3.4423,-3.4479,-3.4758,-3.5146,-3.5202,-3.5368,-3.5478,-3.5423,-3.5478,-3.5566,-3.5323,-3.529,-3.5179,-3.4958,-3.5069,-3.5455,-3.6719,-3.7418,-3.8056,-3.931,-3.9572,-3.9496,-3.9647,-3.9572,-3.9446,-3.9446,-4.0083,-4.0663,-4.0844,-4.1445,-4.199,-4.199,-4.1842,-4.1644,-4.1644,-4.1495,-4.1145,-4.0719,-4.0593,-4.0389,-3.9878,-3.9749,-3.9471,-3.8969,-3.9019,-3.8759,-3.7983,-3.8063,-3.8085,-3.7926,-3.7697,-3.7118,-3.6159,-3.4944,-3.4172,-3.3994,-3.3399,-3.3111,-3.3111,-3.3111,-3.3111,-3.3111,-3.3111,-3.3111,-2.3736,-2.4266,-2.5264,-2.6689,-2.8085,-2.9871,-3.2575,-3.3124,-3.3709,-3.6054,-3.5591,-3.4741,-3.4882,-3.5058,-3.5244,-3.5371,-3.6079,-3.691,-3.7693,-3.7418,0.0,0.0,0.0,0.0,0.0,0.0,0.0,0.0,0.0,0.0,0.0,-3.3753,-3.3798,-3.3374,-3.3861,-3.4142,-3.4255,-3.4423,-3.4534,-3.4534,-3.4534,-3.4534,-3.4513,-3.4316,-3.4338,-3.4534,-3.4534,-3.4534,-3.4534,-3.4534,-3.4702,-3.498,-3.4869,-3.4869,-3.498,-3.4869,-3.4813,-3.4758,-3.459,-3.4646,-3.4813,-3.4702,-3.5235,-3.5982,-3.6989,-3.7791,-3.8554,-3.9465,-3.9697,-3.9697,-3.9697,-3.9697,-3.9697,-3.9697,-4.0083,-4.044,-4.044,-4.1021,-4.1544,-4.1544,-4.1544,-4.1723,-4.2309,-4.1653,-4.1149,-4.1383,-4.0924,-4.0389,-3.98,-3.9697,-3.9572,-3.922,-3.9196,-3.8967,-3.8428,-3.8332,-3.8204,-3.808,-3.7892,-3.7442,-3.6825,-3.5475,-3.4608,-3.4248,-3.3474,-3.3111,-3.3111,-3.3111,-3.3111,-3.3111,-3.3111,-3.3111,-2.4249,-2.4932,-2.6017,-2.769,-2.9258,-3.0946,-3.345,-3.5255,-3.6662,-3.7649,-3.6806,-3.5983,-3.6048,-3.5613,-3.5135,-3.5072,-3.5253,-3.5639,-3.601,-3.5836,0.0,0.0,0.0,0.0,0.0,0.0,0.0,0.0,0.0,0.0,0.0,-3.3346,-3.3515,-3.3572,-3.3896,-3.4255,-3.4534,-3.4534,-3.4513,0.0,-3.4469,-3.4425,-3.4382,-3.4032,-3.4098,-3.4534,-3.4534,-3.4534,-3.4534,-3.4534,-3.4702,-3.4924,-3.4646,-3.4702,-3.4924,-3.4646,-3.4534,-3.4534,-3.4534,-3.4568,-3.468,-3.498,-3.5982,-3.718,-3.7524,-3.8554,-3.9645,-3.9697,-3.9697,-3.9697,-3.9697,-3.9697,-3.9697,-3.9697,-3.9697,-3.9697,-3.9697,-4.0338,-4.0923,-4.0974,-4.1,-4.1434,-4.2764,-4.131,-4.0466,-4.1876,-4.0952,-3.9981,-3.9749,-3.9697,-3.9697,-3.9697,-3.9449,-3.9196,-3.9196,-3.8672,-3.8316,-3.8265,-3.7769,-3.7366,-3.7108,-3.6083,-3.5175,-3.4426,-3.36,-3.3144,-3.3144,-3.3093,-3.3111,-3.3111,-3.3111,-3.3111,-2.5898,-2.6272,-2.7242,-3.0068,-3.2437,-3.419,-3.4826,-3.523,-3.5533,-3.5765,-3.5583,-3.5345,-3.5238,-3.5048,-3.487,-3.4719,-3.496,-3.5238,-3.5344,0.0,0.0,0.0,0.0,0.0,0.0,0.0,0.0,0.0,0.0,0.0,-3.2245,-3.2581,-3.286,-3.3006,-3.3725,-3.4255,-3.4534,-3.4534,-3.4338,0.0,-3.3945,-3.3748,-3.3399,-3.4076,-3.4425,-3.4534,-3.4534,-3.4534,-3.4534,-3.4534,-3.4513,-3.459,-3.4534,-3.4513,-3.459,-3.4534,-3.4534,-3.4534,-3.4534,-3.4958,-3.5543,-3.5598,-3.6449,-3.7524,-3.8027,-3.8579,-3.9102,-3.9594,-3.9697,-3.9697,-3.9697,-3.9697,-3.9697,-3.9697,-3.9697,-3.9697,-3.9697,-4.0179,-4.0795,-4.1415,-4.1854,-4.232,-4.2847,-4.2536,-4.1999,-4.1255,-4.0364,-3.98,-3.9697,-3.9697,-3.9697,-3.9697,-3.9648,-3.9474,-3.9246,-3.8686,-3.8296,-3.798,-3.7463,-3.7155,-3.7108,-3.6259,-3.5623,-3.5248,-3.4268,-3.3721,-3.3721,-3.3294,-3.3111,-3.3111,-3.3111,-3.3111,-2.6087,-2.691,-2.8353,-3.1367,-3.3518,-3.4884,-3.4884,-3.5059,-3.5081,-3.4622,-3.4884,-3.5106,-3.4962,-3.5005,-3.4947,-3.4386,-3.4386,-3.4524,-3.4524,0.0,0.0,0.0,0.0,0.0,0.0,0.0,0.0,0.0,0.0,-3.1884,-3.1733,-3.1989,-3.2319,-3.2572,-3.3317,-3.3908,-3.4185,-3.4403,-3.4272,-3.3792,-3.3792,-3.3661,-3.342,-3.3945,-3.4054,-3.3857,-3.4316,-3.4382,-3.4185,-3.4425,-3.4534,-3.4534,-3.4534,-3.4666,-3.4818,-3.46,-3.4666,-3.4875,-3.508,-3.5433,-3.5904,-3.6449,-3.7203,-3.8027,-3.8473,-3.8893,-3.931,-3.9594,-3.9697,-3.9697,-3.9697,-3.9697,-3.9747,-4.0023,-3.9898,-3.9772,-4.0023,-4.03,-4.0706,-4.1381,-4.1537,-4.1799,-4.2604,-4.2522,-4.19,-4.0517,-3.9981,-3.9697,-3.9697,-3.9697,-3.9697,-3.9697,-3.9697,-3.9522,-3.9095,-3.8892,-3.8509,-3.7814,-3.7483,-3.7202,-3.6922,-3.6409,-3.5991,-3.5713,-3.4771,-3.4299,-3.4299,-3.3997,-3.3721,-3.347,-3.347,-3.3345,-2.5649,-2.7181,-2.9225,-3.1749,-3.3291,-3.4217,-3.4272,-3.4556,-3.4622,-3.3835,-3.4425,-3.4945,-3.4596,-3.4906,-3.4889,-3.3907,-3.3665,-3.3586,0.0,0.0,0.0,0.0,0.0,0.0,0.0,0.0,0.0,0.0,0.0,-3.165,-3.1278,-3.1508,-3.178,-3.2083,-3.2878,-3.341,-3.3661,-3.4076,-3.4032,-3.3551,-3.3551,-3.3595,-3.3661,-3.3748,-3.3617,-3.3355,-3.4163,-3.4294,-3.3945,-3.436,-3.4534,-3.4534,-3.4622,-3.4818,-3.5059,-3.4753,-3.4875,-3.5354,-3.5678,-3.5959,-3.634,-3.7311,-3.808,-3.8631,-3.8893,-3.931,-3.9697,-3.9697,-3.9697,-3.9645,-3.9517,-3.954,-3.9663,-3.9978,-3.9857,-3.989,-4.0287,-4.0621,-4.0849,-4.1039,-4.0796,-4.0862,-4.2031,-4.1802,-4.1029,-3.9851,-3.9697,-3.9697,-3.9697,-3.9697,-3.9697,-3.9697,-3.9697,-3.9521,-3.9095,-3.9121,-3.8715,-3.7752,-3.7599,-3.727,-3.664,-3.6499,-3.6272,-3.6003,-3.5219,-3.4831,-3.4831,-3.4731,-3.4474,-3.4048,-3.4048,-3.3746,-2.5159,-2.7441,-2.9817,-3.0694,-3.1949,-3.2998,-3.3214,-3.3365,-3.3365,-3.3256,-3.3945,-3.4379,-3.3667,-3.3711,-3.3728,-3.3344,-3.2705,-3.241,0.0,0.0,0.0,0.0,0.0,0.0,0.0,0.0,0.0,0.0,-3.1567,-3.0843,-3.0781,-3.1028,-3.1349,-3.1593,-3.2384,-3.2911,-3.3158,-3.3278,-3.3027,-3.2569,-3.2569,-3.2787,-3.3234,-3.3595,-3.3988,-3.4338,-3.4469,-3.4491,-3.4425,-3.4491,-3.4534,-3.4556,-3.4971,-3.4906,-3.4666,-3.4993,-3.539,-3.5721,-3.5763,-3.6611,-3.7761,-3.8133,-3.8684,-3.9206,-3.949,-3.9645,-3.9697,-3.9697,-3.9697,-3.9542,-3.8788,-3.8896,-3.9024,-3.834,-3.9032,-3.9892,-3.9965,-4.1037,-4.1588,-4.0324,-4.0319,-4.0526,-4.0759,-4.0331,-3.9927,-3.9697,-3.9697,-3.9697,-3.9697,-3.9697,-3.9697,-3.9697,-3.9697,-3.9672,-3.9597,-3.9196,-3.8642,-3.7989,-3.7486,-3.7031,-3.6477,-3.6405,-3.638,-3.6351,-3.5705,-3.5382,-3.5382,-3.4906,-3.4675,-3.458,-3.458,-3.4324,-2.5179,-2.6572,-2.8136,-2.9416,-3.0635,-3.1711,-3.2261,-3.2768,-3.3037,-3.2743,-3.3116,-3.3366,-3.2987,-3.2843,-3.2717,-3.2461,-3.2127,0.0,0.0,0.0,0.0,0.0,0.0,0.0,0.0,0.0,0.0,0.0,-3.1029,-3.0574,-3.0305,-3.0548,-3.0811,-3.1125,-3.1837,-3.2413,-3.2678,-3.2993,-3.3015,-3.2765,-3.2765,-3.3005,-3.3486,-3.3988,-3.4163,-3.4141,-3.4403,-3.436,-3.4141,-3.4403,-3.4666,-3.4928,-3.5124,-3.5518,-3.6015,-3.5971,-3.6352,-3.6951,-3.716,-3.7655,-3.8315,-3.8945,-3.8998,-3.8841,-3.8945,-3.8607,-3.8287,-3.8524,-3.8621,-3.864,-3.8496,-3.8625,-3.8777,-3.8695,-3.9603,-4.0272,-3.9714,-4.0722,-4.1422,-4.0418,-4.0411,-4.0425,-4.0099,-3.9848,-3.9697,-3.9697,-3.9697,-3.9697,-3.9697,-3.9697,-3.9697,-3.9697,-3.9697,-3.9572,-3.927,-3.9295,-3.8944,-3.8065,-3.7789,-3.7387,-3.6883,-3.6581,-3.6405,-3.6405,-3.6132,-3.6006,-3.6006,-3.5755,-3.5479,-3.5132,-3.5132,-3.4831,-2.4697,-2.5493,-2.6397,-2.7737,-2.9169,-3.0457,-3.1046,-3.1772,-3.2241,-3.1891,-3.185,-3.1878,-3.1909,-3.1977,-3.2048,-3.1852,-3.1638,0.0,0.0,0.0,0.0,0.0,0.0,0.0,0.0,0.0,0.0,0.0,-3.0574,-3.0367,-3.0015,-3.0235,-3.0495,-3.0776,-3.1408,-3.1841,-3.2197,-3.2525,-3.2765,-3.2896,-3.3059,-3.3333,-3.3814,-3.435,-3.4393,-3.401,-3.436,-3.4316,-3.401,-3.4382,-3.4797,-3.5212,-3.5212,-3.5855,-3.6805,-3.6442,-3.6864,-3.7667,-3.8117,-3.8411,-3.8696,-3.926,-3.8998,-3.8344,-3.8133,-3.7673,-3.7355,-3.77,-3.7911,-3.7988,-3.8162,-3.8461,-3.8761,-3.8847,-3.984,-4.0692,-4.0185,-4.0434,-4.0657,-4.0548,-4.04,-4.0174,-3.9772,-3.9697,-3.9697,-3.9697,-3.9697,-3.9697,-3.9697,-3.9697,-3.9697,-3.9697,-3.9697,-3.9521,-3.912,-3.9446,-3.927,-3.8291,-3.8216,-3.7914,-3.7211,-3.6832,-3.6556,-3.6405,-3.6405,-3.6405,-3.6405,-3.6405,-3.6157,-3.5708,-3.5708,-3.5408,-2.3252,-2.4374,-2.5551,-2.5508,-2.7488,-2.9437,-2.9273,-2.9797,-3.0362,-3.0319,-2.9897,-2.965,-2.9897,-3.0967,-3.1797,-3.1797,-3.1204,0.0,0.0,0.0,0.0,0.0,0.0,0.0,0.0,0.0,0.0,0.0,-3.0284,-3.0015,-2.9994,-3.0235,-3.0495,-3.0776,-3.1107,-3.1365,-3.1673,-3.1695,-3.1935,-3.2416,-3.2906,-3.3333,-3.3814,-3.4593,-3.4791,-3.4491,-3.4513,-3.4513,-3.4491,-3.4513,-3.4797,-3.5212,-3.5212,-3.5456,-3.5776,-3.5753,-3.6297,-3.7239,-3.7806,-3.8514,-3.9121,-3.8904,-3.8635,-3.8267,-3.7418,-3.7425,-3.777,-3.7794,-3.8114,-3.8265,-3.7497,-3.8343,-3.8998,-3.7657,-3.9104,-4.1027,-4.1883,-4.0577,-3.9492,-4.0342,-4.0099,-3.9722,-3.9697,-3.9697,-3.9697,-3.9697,-3.9697,-3.9697,-3.9697,-3.9697,-3.9697,-3.9697,-3.9697,-3.9697,-3.9647,-3.9672,-3.9446,-3.8919,-3.8818,-3.8391,-3.7236,-3.7161,-3.6933,-3.6405,-3.6405,-3.6405,-3.6405,-3.6405,-3.638,-3.6355,-3.6355,-3.6031,-2.2907,-2.3369,-2.4028,-2.4651,-2.5771,-2.6878,-2.7386,-2.8285,-2.9024,-2.9015,-2.8982,-2.9004,-2.9101,-2.9592,-2.9992,-2.9992,-2.9794,0.0,0.0,0.0,0.0,0.0,0.0,0.0,0.0,0.0,0.0,0.0,0.0,-3.0099,-3.0235,-3.0516,-3.0776,-3.1034,-3.1322,-3.1527,-3.1629,-3.1629,-3.187,-3.2394,-3.2547,-3.2874,-3.3387,-3.367,-3.3704,-3.3595,-3.3923,-3.4229,-3.4534,-3.4534,-3.4797,-3.5269,-3.5835,-3.6248,-3.6611,-3.715,-3.7882,-3.8492,-3.8316,-3.8566,-3.8858,-3.8376,-3.7743,-3.7098,-3.6824,-3.669,-3.6712,-3.6991,-3.7026,-3.7039,-3.7815,-3.7942,-3.8124,-3.8783,-3.9362,-3.9976,-4.0943,-4.0511,-4.0031,-3.9997,-3.9823,-3.9697,-3.9697,-3.9697,-3.9697,-3.9697,-3.9697,-3.9697,-3.9697,-3.9697,-3.9697,-3.9697,-3.9697,-3.9697,-3.9697,-3.9697,-3.9622,-3.9421,-3.9069,-3.8793,-3.8539,-3.816,-3.7882,-3.768,-3.7374,-3.6925,-3.6405,-3.6405,-3.6405,-3.6405,-3.6405,-3.6304,-2.2908,-2.2935,-2.324,-2.3717,-2.4506,-2.5223,-2.5525,-2.6542,-2.734,-2.6998,-2.7096,-2.7268,-2.7268,-2.7352,-2.7713,-2.8515,0.0,0.0,0.0,0.0,0.0,0.0,0.0,0.0,0.0,0.0,0.0,0.0,0.0,0.0,-3.0235,-3.062,-3.0983,-3.1322,-3.1424,-3.1527,-3.1629,-3.1629,-3.187,-3.2394,-3.2394,-3.2634,-3.3124,-3.3178,-3.3231,-3.3275,-3.3866,-3.4131,-3.4294,-3.4469,-3.4797,-3.5282,-3.5903,-3.6386,-3.6791,-3.738,-3.8088,-3.8638,-3.8114,-3.829,-3.8497,-3.7625,-3.6888,-3.6294,-3.5927,-3.5776,-3.5837,-3.6457,-3.6587,-3.6889,-3.8217,-3.8348,-3.85,-4.0147,-3.9981,-3.9618,-4.037,-4.0526,-4.04,-4.0049,-3.9973,-3.9973,-3.9973,-3.9823,-3.9697,-3.9697,-3.9697,-3.9697,-3.9697,-3.9697,-3.9697,-3.9697,-3.9697,-3.9697,-3.9697,-3.9697,-3.9697,-3.9697,-3.9346,-3.9171,-3.9146,-3.8767,-3.8463,-3.8261,-3.7731,-3.7203,-3.6681,-3.6505,-3.6405,-3.6405,-3.6405,-3.6405,0.0,0.0,0.0,-2.2623,-2.3634,-2.4578,-2.3667,-2.4516,-2.5214,-2.4207,-2.4218,-2.4467,-2.4467,-2.4352,-2.5054,-2.7426,0.0,0.0,0.0,0.0,0.0,0.0,0.0,0.0,0.0,0.0,0.0,0.0,-2.9994,-2.9994,-2.9994,-3.0516,-3.1086,-3.1578,-3.1322,-3.1322,-3.1629,-3.1629,-3.187,-3.2372,-3.2372,-3.259,-3.3081,-3.3347,-3.3453,-3.3498,-3.433,-3.4314,-3.3814,-3.4316,-3.4775,-3.5229,-3.5378,-3.5716,-3.6208,-3.6328,-3.692,-3.7528,-3.7221,-3.7614,-3.8003,-3.664,-3.6231,-3.6036,-3.4924,-3.4918,-3.5518,-3.6365,-3.7132,-3.7893,-3.8689,-3.9485,-4.0259,-4.142,-4.0895,-4.0209,-4.0427,-4.0526,-4.0526,-4.0526,-4.0526,-4.0526,-4.0526,-4.0049,-3.9697,-3.9697,-3.9697,-3.9697,-3.9697,-3.9697,-3.9697,-3.9697,-3.9697,-3.9697,-3.9697,-3.9697,-3.9697,-3.9697,-3.9697,-3.9446,-3.8969,-3.8944,-3.8668,-3.804,-3.7487,-3.7186,-3.7186,-3.6681,-3.6405,-3.6405,-3.6405,-3.6405,-2.357,0.0,0.0,0.0,0.0,0.0,-2.2049,-2.2821,-2.3471,-2.3171,-2.3577,-2.3971,-2.379,-2.4113,-2.4715,-2.5538,0.0,0.0,0.0,0.0,0.0,0.0,0.0,0.0,0.0,0.0,0.0,0.0,-2.9808,-3.0151,-3.0568,-3.1064,-3.1476,-3.1629,-3.1527,-3.1527,-3.1629,-3.1629,-3.1695,-3.1826,-3.1826,-3.1891,-3.2022,-3.2074,-3.2229,-3.248,-3.3215,-3.3558,-3.3624,-3.4516,-3.5046,-3.5432,-3.6044,-3.6367,-3.6651,-3.7493,-3.7715,-3.7468,-3.722,-3.6964,-3.6784,-3.6526,-3.6595,-3.6759,-3.6838,-3.7349,-3.7943,-3.8166,-3.8169,-3.8335,-3.9477,-4.0799,-4.1744,-4.1252,-4.0895,-4.0564,-4.0025,-4.0551,-4.0949,-4.0601,-4.0526,-4.0526,-4.0526,-4.0049,-3.9697,-3.9697,-3.9697,-3.9697,-3.9697,-3.9697,-3.9697,-3.9697,-3.9697,-3.9697,-3.9697,-3.9697,-3.9697,-3.9697,-3.9697,-3.9725,-3.9753,-3.9753,-3.95,-3.8968,-3.8386,-3.7783,-3.7186,-3.6681,-3.6405,-3.6405,-3.6405,-3.6405,-2.4231,-2.3636,-2.2935,-2.2292,0.0,0.0,-2.0748,-2.1174,-2.1553,0.0,-2.1398,-2.1845,-2.1926,-2.2255,-2.258,-2.2922,0.0,0.0,0.0,0.0,0.0,0.0,0.0,0.0,0.0,-2.8366,-2.8814,-2.9001,-2.927,-2.9754,-3.0478,-3.0979,-3.1286,-3.1323,-3.1367,-3.1367,-3.1323,-3.152,-3.1629,-3.1629,-3.1629,-3.1629,-3.1629,-3.1848,-3.209,-3.2391,-3.3365,-3.3754,-3.3852,-3.4613,-3.4875,-3.4993,-3.6062,-3.618,-3.598,-3.722,-3.7643,-3.7463,-3.6955,-3.6939,-3.7103,-3.6879,-3.6865,-3.7029,-3.7434,-3.7785,-3.824,-3.8592,-3.8892,-3.9364,-4.0072,-4.1053,-4.175,-4.1077,-4.0821,-4.0591,-4.0153,-4.0578,-4.1009,-4.0576,-4.0701,-4.0724,-4.0551,-4.0049,-3.9697,-3.9697,-3.9697,-3.9697,-3.9697,-3.9697,-3.9697,-3.9697,-3.9697,-3.9697,-3.9697,-3.9697,-3.9697,-3.9697,-3.9697,-3.98,-3.9929,-3.9929,-3.9803,-3.9474,-3.8918,-3.8138,-3.7186,-3.6681,-3.6405,-3.6405,-3.6405,-3.6531,-2.4971,-2.4571,-2.4058,-2.2965,-2.2506,0.0,-2.0,-1.9954,-1.9936,0.0,-1.8894,-1.9326,-1.9745,-1.9835,-2.0034,-2.051,0.0,0.0,0.0,0.0,0.0,0.0,0.0,0.0,-2.6695,-2.7464,-2.809,-2.8504,-2.8728,-2.9178,-3.0053,-3.0581,-3.0858,-3.0908,-3.1026,-3.1005,-3.0821,-3.1302,-3.1542,-3.1542,-3.1607,-3.1629,-3.1629,-3.2088,-3.2485,-3.2886,-3.4084,-3.441,-3.4193,-3.4531,-3.4508,-3.4343,-3.5484,-3.5502,-3.4964,-3.6209,-3.6996,-3.7366,-3.6716,-3.7207,-3.806,-3.7501,-3.7311,-3.7311,-3.7364,-3.7418,-3.7578,-3.8344,-3.9567,-4.0594,-4.0594,-4.0848,-4.1028,-4.0897,-4.0746,-4.0568,-4.043,-4.066,-4.079,-4.0478,-4.0824,-4.105,-4.0601,-4.0049,-3.9697,-3.9697,-3.9697,-3.9697,-3.9697,-3.9697,-3.9697,-3.9697,-3.9697,-3.9697,-3.9697,-3.9697,-3.9697,-3.9697,-3.9697,-3.9697,-3.9697,-3.9697,-3.9672,-3.9597,-3.9069,-3.8266,-3.7287,-3.6707,-3.6405,-3.6405,-3.648,-3.6757,-2.4485,-2.4036,-2.348,-2.2429,-2.1886,0.0,-2.0761,-2.0686,-2.0594,0.0,-2.0137,-2.034,-2.0231,-2.048,-2.0934,-2.1617,-2.1255,0.0,0.0,0.0,0.0,0.0,0.0,0.0,-2.619,-2.728,-2.8014,-2.8362,-2.9452,-3.012,-3.0125,-3.0594,-3.0895,-3.0908,-3.0575,-3.04,-3.0341,-3.0799,-3.104,-3.104,-3.1433,-3.1629,-3.1629,-3.1717,-3.2156,-3.2812,-3.344,-3.379,-3.3994,-3.4428,-3.4606,-3.4546,-3.4406,-3.491,-3.5739,-3.626,-3.6478,-3.663,-3.7424,-3.7252,-3.6896,-3.8069,-3.8477,-3.8582,-3.905,-3.9337,-3.9544,-3.9698,-4.0464,-4.1235,-4.1235,-4.1568,-4.1747,-4.1101,-4.1104,-4.0977,-4.0027,-4.0408,-4.0664,-4.0,-4.03,-4.0651,-4.0526,-4.0049,-3.9697,-3.9697,-3.9697,-3.9697,-3.9697,-3.9697,-3.9697,-3.9697,-3.9697,-3.9697,-3.9697,-3.9697,-3.9697,-3.9697,-3.9697,-3.9697,-3.9697,-3.9697,-3.9496,-3.9044,-3.8467,-3.8065,-3.7839,-3.6883,-3.6405,-3.6405,-3.6857,-3.7086,-2.4662,-2.438,-2.3932,-2.2726,-2.224,0.0,0.0,-2.0354,-2.0206,-1.9901,-1.9747,-1.9774,-2.0128,-1.9956,-2.0035,-2.0642,-2.0043,0.0,0.0,0.0,0.0,0.0,0.0,0.0,-2.4307,-2.5765,-2.6989,-2.7737,-2.8824,-2.9451,-2.9423,-3.0033,-3.0329,-3.0188,-3.0209,-3.01,-2.9838,-3.0319,-3.0559,-3.0559,-3.104,-3.1258,-3.128,-3.1711,-3.2271,-3.2955,-3.3256,-3.3582,-3.3852,-3.3874,-3.4005,-3.4303,-3.4711,-3.5236,-3.5853,-3.6825,-3.717,-3.7305,-3.8253,-3.8175,-3.7795,-3.9059,-3.944,-3.9492,-3.962,-3.98,-3.9878,-3.9878,-4.0286,-4.0695,-4.0566,-4.0925,-4.1156,-4.0461,-4.0618,-4.0747,-3.9902,-4.0105,-4.0361,-3.9799,-3.9923,-4.0099,-4.0099,-3.9873,-3.9697,-3.9697,-3.9697,-3.9697,-3.9697,-3.9697,-3.9697,-3.9697,-3.9697,-3.9697,-3.9697,-3.9697,-3.9697,-3.9697,-3.9697,-3.9697,-3.9697,-3.9697,-3.9572,-3.9295,-3.8718,-3.8442,-3.8442,-3.7588,-3.7186,-3.7186,-3.7462,-3.7739,-2.5331,-2.5119,0.0,0.0,0.0,-2.2435,0.0,0.0,0.0,-1.9765,-1.9282,-1.9196,-1.9991,0.0,0.0,0.0,0.0,0.0,0.0,0.0,0.0,0.0,0.0,0.0,0.0,-2.4077,-2.5545,-2.6574,-2.7441,-2.7973,-2.807,-2.8998,-2.9424,-2.9202,-2.9763,-2.9882,-2.9489,-3.0057,-3.0341,-3.0341,-3.0821,-3.0983,-3.0961,-3.1815,-3.2448,-3.2878,-3.3193,-3.3541,-3.3874,-3.3623,-3.3782,-3.4326,-3.5246,-3.5705,-3.5979,-3.7369,-3.7966,-3.8259,-3.9064,-3.922,-3.9171,-3.9956,-4.0134,-4.0083,-3.9826,-3.98,-3.98,-3.9697,-3.9826,-4.0006,-3.9874,-4.0082,-4.0287,-3.9926,-4.0133,-4.0313,-3.98,-3.9929,-4.0032,-3.9749,-3.9697,-3.9697,-3.9697,-3.9697,-3.9697,-3.9697,-3.9697,-3.9697,-3.9697,-3.9697,-3.9697,-3.9697,-3.9697,-3.9697,-3.9697,-3.9697,-3.9697,-3.9697,-3.9697,-3.9697,-3.9697,-3.9697,-3.9697,-3.9697,-3.9245,-3.9019,-3.9019,-3.8567,-3.8216,-3.8015,-3.8115,-3.8417,0.0,0.0,0.0,0.0,-2.4003,0.0,0.0,0.0,-2.1114,-2.08,0.0,-2.0121,-2.0251,0.0,0.0,0.0,0.0,0.0,0.0,0.0,0.0,0.0,0.0,0.0,0.0,-2.3005,-2.3926,-2.4187,-2.5579,-2.6247,-2.5791,-2.7475,-2.8334,-2.8077,-2.908,-2.9532,-2.9489,-3.0362,-3.0821,-3.0821,-3.1302,-3.1348,-3.1021,-3.1952,-3.2201,-3.1918,-3.3007,-3.3772,-3.4273,-3.4485,-3.4909,-3.5357,-3.4854,-3.5503,-3.6767,-3.7469,-3.8141,-3.8843,-3.9697,-3.9846,-3.9698,-4.0261,-4.0287,-4.0083,-4.0083,-4.0032,-4.0032,-3.98,-3.9749,-3.9849,-4.03,-4.0101,-3.9926,-4.03,-4.0283,-4.0083,-3.9749,-3.9929,-4.0032,-3.9749,-3.9697,-3.9697,-3.9697,-3.9697,-3.9697,-3.9697,-3.9697,-3.9697,-3.9697,-3.9697,-3.9697,-3.9697,-3.9697,-3.9697,-3.9697,-3.9697,-3.9697,-3.9697,-3.9697,-3.9697,-3.9697,-3.9697,-3.9697,-3.9697,-3.9647,-3.9597,-3.9597,-3.9546,-3.8994,-3.8015,-3.8542,-3.8818,0.0,0.0,0.0,0.0,0.0,0.0,-2.2519,0.0,-2.1713,0.0,0.0,0.0,0.0,0.0,0.0,0.0,-1.9099,0.0,0.0,0.0,0.0,0.0,0.0,0.0,0.0,0.0,0.0,0.0,0.0,-2.4847,-2.4875,-2.5857,-2.6552,-2.6843,-2.7297,-2.7798,-2.8369,-2.908,-2.9715,-3.0321,-3.0593,-3.0739,-3.0842,-3.1328,-3.1657,-3.1755,-3.25,-3.3309,-3.4088,-3.4263,-3.4992,-3.6075,-3.653,-3.6974,-3.7416,-3.8759,-3.916,-3.9186,-4.0201,-4.0077,-3.9573,-4.0287,-4.0338,-4.0185,-4.0491,-4.0338,-4.0083,-3.9981,-3.9826,-3.9747,-3.9973,-3.9951,-3.9954,-4.0025,-4.0055,-4.0032,-3.9749,-3.98,-3.9826,-3.9749,-3.9697,-3.9697,-3.9697,-3.9697,-3.9798,-4.0124,-3.9898,-3.9798,-4.0124,-3.9898,-3.9697,-3.9697,-3.9697,-3.9697,-3.9697,-3.9697,-3.9697,-3.9697,-3.9697,-3.9697,-3.9697,-3.9697,-3.9697,-3.9697,-3.9697,-3.9697,-3.9697,-3.9697,-3.9446,-3.8994,-3.9245,-3.9346,-2.6878,0.0,0.0,0.0,0.0,0.0,0.0,0.0,0.0,0.0,0.0,0.0,0.0,0.0,-1.954,-1.9563,0.0,-1.8262,0.0,0.0,0.0,0.0,0.0,0.0,0.0,0.0,0.0,0.0,0.0,0.0,-2.3668,-2.4349,-2.5011,-2.5584,-2.6062,-2.6726,-2.7641,-2.8195,-2.888,-2.9813,-2.9976,-3.0242,-3.058,-3.1021,-3.1497,-3.1955,-3.2586,-3.3481,-3.456,-3.4626,-3.5524,-3.7061,-3.8066,-3.8239,-3.8104,-3.9797,-4.0002,-3.9647,-4.0378,-4.0207,-3.9727,-4.0338,-4.0338,-4.0287,-4.0593,-4.044,-4.0083,-4.0032,-3.9826,-3.9722,-3.9873,-3.9952,-3.998,-3.9925,-3.9952,-3.9929,-3.9749,-3.9697,-3.9697,-3.9697,-3.9697,-3.9697,-3.9697,-3.9823,-4.0049,-4.045,-4.03,-4.0249,-4.0475,-4.0174,-3.9848,-3.9722,-3.9697,-3.9697,-3.9697,-3.9697,-3.9697,-3.9697,-3.9697,-3.9697,-3.9697,-3.9697,-3.9697,-3.9697,-3.9697,-3.9697,-3.9697,-3.9697,-3.9697,-3.9697,-3.9697,-3.9697,0.0,0.0,0.0,-2.6641,0.0,0.0,0.0,0.0,-2.2482,0.0,0.0,0.0,0.0,-2.0291,-1.9648,-1.9537,-1.9285,0.0,0.0,0.0,0.0,0.0,0.0,0.0,0.0,0.0,0.0,0.0,0.0,0.0,-2.1646,-2.3001,-2.3928,-2.4345,-2.5908,-2.7102,-2.7774,-2.8544,-2.9095,-2.9525,-2.9848,-3.0022,-3.0166,-3.136,-3.2097,-3.2523,-3.3731,-3.4984,-3.6191,-3.6238,-3.7155,-3.8637,-3.8663,-3.8689,-3.8794,-3.9942,-4.0409,-4.0334,-4.0091,-4.023,-4.0491,-4.0491,-4.0491,-4.044,-4.0185,-4.0134,-4.0032,-3.98,-3.9697,-3.9823,-4.035,-4.0099,-3.9823,-4.035,-4.0074,-3.9697,-3.9697,-3.9697,-3.9697,-3.9697,-3.9697,-3.9697,-3.9697,-4.0149,-4.0501,-4.0526,-4.0953,-4.105,-4.0576,-4.0501,-4.03,-3.9747,-3.9697,-3.9697,-3.9697,-3.9697,-3.9697,-3.9697,-3.9697,-3.9697,-3.9697,-3.9697,-3.9697,-3.9697,-3.9697,-3.9697,-3.9697,-3.9697,-3.9697,-3.9697,-3.9697,-3.9697,0.0,0.0,-2.8137,-2.7253,0.0,0.0,0.0,0.0,0.0,0.0,0.0,0.0,0.0,-2.0753,-2.0136,-1.9256,-1.9156,-1.8881,0.0,0.0,0.0,0.0,0.0,0.0,0.0,0.0,0.0,0.0,-1.978,0.0,0.0,-2.1971,-2.2832,-2.3462,-2.4356,-2.537,-2.6543,-2.7125,-2.8021,-2.9291,-2.9756,-3.018,-3.0722,-3.2134,-3.275,-3.2819,-3.4469,-3.5574,-3.6307,-3.6474,-3.7211,-3.8214,-3.8579,-3.871,-3.8815,-3.9599,-3.9886,-3.9894,-4.0203,-4.0185,-4.0006,-4.0185,-4.0236,-4.0236,-4.0338,-4.0236,-4.0083,-3.9981,-3.9826,-3.9747,-3.9923,-3.9848,-3.9747,-3.9923,-3.9823,-3.9697,-3.9697,-3.9697,-3.9697,-3.9697,-3.9998,-4.0249,-4.0249,-4.1003,-4.1354,-4.0626,-4.0375,-4.03,-4.0501,-4.0199,-3.9898,-3.9722,-3.9697,-3.9697,-3.9697,-3.9697,-3.9697,-3.9697,-3.9697,-3.9697,-3.9697,-3.9697,-3.9697,-3.9697,-3.9697,-3.9697,-3.9697,-3.9697,-3.9697,-3.9697,-3.9697,-3.9697,-2.9027,-2.8969,0.0,-2.7708,-2.7201,0.0,-2.4996,0.0,0.0,0.0,0.0,0.0,0.0,-2.0964,-2.0243,-1.9526,-1.9193,-1.8752,0.0,-1.7994,0.0,0.0,0.0,0.0,0.0,0.0,0.0,-1.9033,-1.9494,-2.0061,0.0,0.0,-2.2258,-2.3021,-2.3515,-2.4409,-2.5724,-2.6142,-2.7162,-2.8897,-2.9286,-3.0045,-3.1127,-3.2431,-3.3288,-3.3792,-3.5332,-3.6332,-3.6875,-3.7062,-3.7645,-3.8527,-3.8658,-3.8972,-3.9337,-3.9547,-3.9585,-3.9677,-4.0284,-4.0185,-3.9878,-4.0032,-4.0083,-4.0134,-4.0287,-4.0185,-4.0031,-4.0182,-3.9978,-3.9747,-3.9923,-3.9848,-3.9697,-3.9697,-3.9697,-3.9697,-3.9697,-3.9697,-3.9747,-3.9948,-4.0275,-4.0576,-4.0777,-4.1229,-4.1404,-4.0877,-4.0676,-4.0551,-4.0526,-4.0199,-3.9898,-3.9722,-3.9697,-3.9697,-3.9697,-3.9697,-3.9697,-3.9697,-3.9697,-3.9697,-3.9697,-3.9697,-3.9798,-3.9973,-3.9798,-3.9798,-3.9998,-3.9798,-3.9697,-3.9697,-3.9697,-3.9697]},{"header":{"parameterUnit":"m.s-1","parameterCategory":1,"la1":30.6,"la2":29.2853,"lo1":-89.7004,"lo2":-87.6739,"dy":0.0162,"dx":0.0183,"nx":112,"ny":82,"refTime":"2023-05-11T12:00:00:Z","depth":0,"parameterNumber":3,"parameterNumberName":"V-component_of_WINDS"},"data":[0.0,0.0,0.0,0.0,0.0,0.0,0.0,0.0,0.0,0.0,0.0,0.0,0.0,0.0,0.0,0.0,0.0,0.0,0.0,0.0,0.0,0.0,0.0,0.0,0.0,0.0,0.0,0.0,0.0,0.0,0.0,0.0,0.0,0.0,0.0,0.0,0.0,0.0,0.0,0.0,0.0,0.0,0.0,0.0,0.0,0.0,0.0,0.0,0.0,0.0,0.0,0.0,0.0,0.0,0.0,0.0,0.0,0.0,0.0,0.0,0.0,0.0,0.0,0.0,0.0,0.0,0.0,0.0,0.0,0.0,0.0,0.0,0.0,0.0,0.0,0.0,0.0,0.0,0.0,0.0,0.0,0.0,0.0,0.0,0.0,0.0,0.0,0.0,0.0,0.0,2.6915,2.7665,3.0123,3.1406,3.068,3.0897,3.0074,2.7765,0.0,0.0,0.0,0.0,0.0,0.0,0.0,0.0,0.0,0.0,0.0,0.0,0.0,0.0,0.0,0.0,0.0,0.0,0.0,0.0,0.0,0.0,0.0,0.0,0.0,0.0,0.0,0.0,0.0,0.0,0.0,0.0,0.0,0.0,0.0,0.0,0.0,0.0,0.0,0.0,0.0,0.0,0.0,0.0,0.0,0.0,0.0,0.0,0.0,0.0,0.0,0.0,0.0,0.0,0.0,0.0,0.0,0.0,0.0,0.0,0.0,0.0,0.0,0.0,0.0,0.0,0.0,0.0,0.0,0.0,0.0,0.0,0.0,0.0,0.0,0.0,0.0,0.0,0.0,0.0,0.0,0.0,0.0,0.0,0.0,0.0,0.0,0.0,0.0,0.0,0.0,0.0,0.0,0.0,0.0,0.0,0.0,0.0,0.0,0.0,0.0,0.0,0.0,0.0,2.5798,2.8191,2.9318,3.023,3.1101,3.0182,2.8852,2.7285,0.0,0.0,0.0,0.0,0.0,0.0,0.0,0.0,0.0,0.0,0.0,0.0,0.0,0.0,0.0,0.0,0.0,0.0,0.0,0.0,0.0,0.0,0.0,0.0,0.0,0.0,0.0,0.0,0.0,0.0,0.0,0.0,0.0,0.0,0.0,0.0,0.0,0.0,0.0,0.0,0.0,0.0,0.0,0.0,0.0,0.0,0.0,0.0,0.0,0.0,0.0,0.0,0.0,0.0,0.0,0.0,0.0,0.0,0.0,0.0,0.0,0.0,0.0,0.0,0.0,0.0,0.0,0.0,0.0,0.0,0.0,0.0,0.0,0.0,0.0,0.0,0.0,0.0,0.0,0.0,0.0,0.0,0.0,0.0,0.0,0.0,0.0,0.0,0.0,0.0,0.0,0.0,0.0,0.0,0.0,0.0,0.0,0.0,0.0,0.0,0.0,0.0,0.0,2.5249,2.6021,2.858,2.9174,2.9525,2.9956,2.8913,2.8058,2.7676,2.626,0.0,0.0,0.0,0.0,0.0,0.0,0.0,0.0,0.0,0.0,0.0,0.0,0.0,0.0,0.0,0.0,0.0,0.0,0.0,0.0,0.0,0.0,0.0,0.0,0.0,0.0,0.0,0.0,0.0,0.0,0.0,0.0,0.0,0.0,0.0,0.0,0.0,0.0,0.0,0.0,0.0,0.0,0.0,0.0,0.0,0.0,0.0,0.0,0.0,0.0,0.0,0.0,0.0,0.0,0.0,0.0,0.0,0.0,0.0,0.0,0.0,0.0,0.0,0.0,0.0,0.0,0.0,0.0,0.0,0.0,0.0,0.0,0.0,0.0,0.0,0.0,0.0,0.0,0.0,0.0,0.0,0.0,0.0,0.0,0.0,0.0,0.0,0.0,0.0,0.0,0.0,0.0,0.0,0.0,0.0,0.0,0.0,0.0,0.0,0.0,0.0,0.0,2.5697,2.6331,2.8636,2.8931,2.8947,2.8881,2.7758,2.7237,2.7756,2.5513,0.0,0.0,0.0,0.0,0.0,0.0,0.0,0.0,0.0,0.0,0.0,0.0,0.0,0.0,0.0,0.0,0.0,0.0,0.0,0.0,0.0,0.0,0.0,0.0,0.0,0.0,0.0,0.0,0.0,0.0,0.0,0.0,0.0,0.0,0.0,0.0,0.0,0.0,0.0,0.0,0.0,0.0,0.0,0.0,0.0,0.0,0.0,0.0,0.0,0.0,0.0,0.0,0.0,0.0,0.0,0.0,0.0,0.0,0.0,0.0,0.0,0.0,0.0,0.0,0.0,0.0,0.0,0.0,0.0,0.0,0.0,0.0,0.0,0.0,0.0,0.0,0.0,0.0,0.0,0.0,0.0,0.0,0.0,0.0,0.0,0.0,0.0,0.0,0.0,0.0,0.0,0.0,0.0,0.0,0.0,0.0,0.0,0.0,0.0,0.0,0.0,0.0,2.4924,2.6052,2.806,2.8296,2.8498,2.8851,2.7051,2.6184,2.6848,2.4501,0.0,0.0,0.0,0.0,0.0,0.0,0.0,0.0,0.0,0.0,0.0,0.0,0.0,0.0,0.0,0.0,0.0,0.0,0.0,0.0,0.0,0.0,0.0,0.0,0.0,0.0,0.0,0.0,0.0,0.0,0.0,0.0,0.0,0.0,0.0,0.0,0.0,0.0,0.0,0.0,0.0,0.0,0.0,0.0,0.0,0.0,0.0,0.0,0.0,0.0,0.0,0.0,0.0,0.0,0.0,0.0,0.0,0.0,0.0,0.0,0.0,0.0,0.0,0.0,0.0,0.0,0.0,0.0,0.0,0.0,0.0,0.0,0.0,0.0,0.0,0.0,0.0,0.0,0.0,0.0,0.0,0.0,0.0,0.0,0.0,0.0,0.0,0.0,0.0,0.0,0.0,0.0,0.0,0.0,0.0,0.0,0.0,0.0,0.0,0.0,0.0,0.0,2.5025,2.6001,2.8058,2.7882,2.7841,2.8369,2.6964,2.631,2.6902,0.0,0.0,0.0,0.0,0.0,0.0,0.0,0.0,0.0,0.0,0.0,0.0,0.0,0.0,0.0,0.0,0.0,0.0,0.0,0.0,0.0,0.0,0.0,0.0,0.0,0.0,0.0,0.0,0.0,0.0,0.0,0.0,0.0,0.0,0.0,0.0,0.0,0.0,0.0,0.0,0.0,0.0,0.0,0.0,0.0,0.0,0.0,0.0,0.0,0.0,0.0,0.0,0.0,0.0,0.0,0.0,0.0,0.0,0.0,0.0,0.0,0.0,0.0,0.0,0.0,0.0,0.0,0.0,0.0,0.0,0.0,0.0,0.0,0.0,0.0,0.0,0.0,0.0,0.0,0.0,0.0,0.0,0.0,0.0,0.0,0.0,0.0,0.0,0.0,0.0,0.0,0.0,0.0,0.0,0.0,0.0,0.0,0.0,0.0,0.0,0.0,0.0,2.4558,2.5122,2.6118,2.8048,2.7687,2.7559,2.8283,2.6612,2.5909,2.6892,0.0,0.0,0.0,0.0,0.0,0.0,0.0,0.0,0.0,0.0,0.0,0.0,0.0,0.0,0.0,0.0,0.0,0.0,0.0,0.0,0.0,0.0,0.0,0.0,0.0,0.0,0.0,0.0,0.0,0.0,0.0,0.0,0.0,0.0,0.0,0.0,0.0,0.0,0.0,0.0,0.0,0.0,0.0,0.0,0.0,0.0,0.0,0.0,0.0,0.0,0.0,0.0,0.0,0.0,0.0,0.0,0.0,0.0,0.0,0.0,0.0,0.0,0.0,0.0,0.0,0.0,0.0,0.0,0.0,0.0,0.0,0.0,0.0,0.0,0.0,0.0,0.0,0.0,0.0,0.0,0.0,0.0,0.0,0.0,0.0,0.0,0.0,0.0,0.0,0.0,0.0,0.0,0.0,0.0,0.0,0.0,0.0,0.0,0.0,0.0,0.0,0.0,2.3824,2.4965,2.6441,2.803,2.7742,2.7821,2.8764,2.5884,2.4798,0.0,0.0,0.0,0.0,0.0,0.0,0.0,0.0,0.0,0.0,0.0,0.0,0.0,0.0,0.0,0.0,0.0,0.0,0.0,0.0,0.0,0.0,0.0,0.0,0.0,0.0,0.0,0.0,0.0,0.0,0.0,0.0,0.0,0.0,0.0,0.0,0.0,0.0,0.0,0.0,0.0,0.0,0.0,0.0,0.0,0.0,0.0,0.0,0.0,0.0,0.0,0.0,0.0,0.0,0.0,0.0,0.0,0.0,0.0,0.0,0.0,0.0,0.0,0.0,0.0,0.0,0.0,0.0,0.0,0.0,0.0,0.0,0.0,0.0,0.0,0.0,0.0,0.0,0.0,0.0,0.0,0.0,0.0,0.0,0.0,0.0,0.0,0.0,0.0,0.0,0.0,0.0,0.0,0.0,0.0,0.0,0.0,0.0,0.0,0.0,0.0,0.0,0.0,2.4696,2.5708,2.6662,2.7471,2.7774,2.7684,2.7185,2.5825,2.5567,2.6925,0.0,0.0,0.0,0.0,0.0,0.0,0.0,0.0,0.0,0.0,0.0,0.0,0.0,0.0,0.0,0.0,0.0,0.0,0.0,0.0,0.0,0.0,0.0,0.0,0.0,0.0,0.0,0.0,0.0,0.0,0.0,0.0,0.0,0.0,0.0,0.0,0.0,0.0,0.0,0.0,0.0,0.0,0.0,0.0,0.0,0.0,0.0,0.0,0.0,0.0,0.0,0.0,0.0,0.0,0.0,0.0,0.0,0.0,0.0,0.0,0.0,0.0,0.0,0.0,0.0,0.0,0.0,0.0,0.0,0.0,0.0,0.0,0.0,0.0,0.0,0.0,0.0,0.0,0.0,0.0,0.0,0.0,0.0,0.0,0.0,0.0,0.0,0.0,0.0,0.0,0.0,0.0,0.0,0.0,0.0,0.0,0.0,0.0,0.0,0.0,0.0,0.0,2.5548,2.6432,2.7305,2.8033,2.8218,2.7993,2.7224,2.6214,2.588,2.6524,0.0,0.0,0.0,0.0,0.0,0.0,0.0,0.0,0.0,0.0,0.0,0.0,0.0,0.0,0.0,0.0,0.0,0.0,0.0,0.0,0.0,0.0,0.0,0.0,0.0,0.0,0.0,0.0,0.0,0.0,0.0,0.0,0.0,0.0,0.0,0.0,0.0,0.0,0.0,0.0,0.0,0.0,0.0,0.0,0.0,0.0,0.0,0.0,0.0,0.0,0.0,0.0,0.0,0.0,0.0,0.0,0.0,0.0,0.0,0.0,0.0,0.0,0.0,0.0,0.0,0.0,0.0,0.0,0.0,0.0,0.0,0.0,0.0,0.0,0.0,0.0,0.0,0.0,0.0,0.0,0.0,0.0,0.0,0.0,0.0,0.0,0.0,0.0,0.0,0.0,0.0,0.0,0.0,0.0,0.0,0.0,0.0,0.0,0.0,0.0,0.0,0.0,2.6334,2.7173,2.8166,2.9116,2.8914,2.8554,2.8162,2.6814,2.5924,2.58,0.0,0.0,0.0,0.0,0.0,0.0,0.0,0.0,0.0,0.0,0.0,0.0,0.0,0.0,0.0,0.0,0.0,0.0,0.0,0.0,0.0,0.0,0.0,0.0,0.0,0.0,0.0,0.0,0.0,0.0,0.0,0.0,0.0,0.0,0.0,0.0,0.0,0.0,0.0,0.0,0.0,0.0,0.0,0.0,0.0,0.0,0.0,0.0,0.0,0.0,0.0,0.0,0.0,0.0,0.0,0.0,0.0,0.0,0.0,0.0,3.6098,0.0,0.0,0.0,0.0,0.0,0.0,0.0,0.0,0.0,0.0,0.0,0.0,0.0,0.0,0.0,0.0,0.0,0.0,0.0,0.0,0.0,0.0,0.0,0.0,0.0,0.0,0.0,0.0,0.0,0.0,0.0,0.0,0.0,0.0,0.0,0.0,0.0,0.0,0.0,0.0,0.0,2.7178,2.8019,2.8511,2.857,2.9018,2.8687,2.7091,2.6177,2.5895,2.6455,2.5774,0.0,0.0,0.0,0.0,0.0,0.0,0.0,0.0,0.0,0.0,0.0,0.0,0.0,0.0,0.0,0.0,0.0,0.0,0.0,0.0,0.0,0.0,0.0,0.0,0.0,0.0,0.0,0.0,0.0,0.0,0.0,0.0,0.0,0.0,0.0,0.0,0.0,0.0,0.0,0.0,0.0,0.0,0.0,0.0,0.0,0.0,0.0,0.0,0.0,0.0,0.0,0.0,0.0,0.0,0.0,0.0,0.0,0.0,0.0,0.0,3.7242,0.0,0.0,0.0,0.0,0.0,0.0,0.0,0.0,0.0,0.0,0.0,0.0,0.0,0.0,0.0,0.0,0.0,0.0,0.0,0.0,0.0,0.0,0.0,0.0,0.0,0.0,0.0,0.0,0.0,0.0,0.0,0.0,0.0,0.0,0.0,0.0,0.0,0.0,0.0,0.0,2.8445,2.9112,2.9512,2.9399,2.9468,2.9022,2.775,2.6759,2.6296,2.655,2.6167,0.0,0.0,0.0,0.0,0.0,0.0,0.0,0.0,0.0,0.0,0.0,0.0,0.0,0.0,0.0,0.0,0.0,0.0,0.0,0.0,0.0,0.0,0.0,0.0,0.0,0.0,0.0,0.0,0.0,0.0,0.0,0.0,0.0,0.0,0.0,0.0,0.0,0.0,0.0,0.0,0.0,0.0,0.0,0.0,0.0,0.0,0.0,0.0,0.0,0.0,0.0,0.0,0.0,4.4691,4.4756,4.4884,4.4722,4.3546,4.1556,4.0994,3.9476,3.7399,3.7283,0.0,0.0,0.0,0.0,0.0,0.0,0.0,0.0,0.0,0.0,0.0,0.0,0.0,0.0,0.0,0.0,0.0,0.0,0.0,0.0,0.0,0.0,0.0,0.0,3.2327,3.1358,0.0,0.0,0.0,0.0,0.0,0.0,0.0,0.0,0.0,0.0,0.0,0.0,2.9429,3.0114,3.0603,3.0606,3.0098,2.9549,2.8923,2.7695,2.6842,2.661,2.6779,2.6692,0.0,0.0,0.0,0.0,0.0,0.0,0.0,0.0,0.0,0.0,0.0,0.0,0.0,0.0,0.0,0.0,0.0,0.0,0.0,0.0,0.0,0.0,0.0,0.0,0.0,0.0,0.0,0.0,0.0,0.0,0.0,0.0,3.8572,3.9226,0.0,0.0,0.0,0.0,0.0,0.0,0.0,0.0,0.0,0.0,0.0,0.0,0.0,4.5177,4.5865,4.7141,4.7828,4.7859,4.7724,4.7655,4.7655,4.69,4.5729,4.4269,4.4172,0.0,3.9345,3.8546,0.0,0.0,0.0,0.0,0.0,0.0,0.0,0.0,0.0,0.0,0.0,0.0,0.0,0.0,0.0,0.0,0.0,0.0,0.0,0.0,0.0,0.0,3.4903,3.4147,3.3819,3.3484,0.0,3.1918,3.0933,2.9717,2.9793,0.0,0.0,0.0,0.0,0.0,0.0,0.0,2.9022,3.022,3.1046,3.094,3.0767,3.025,2.9236,2.8112,2.7436,2.738,2.6739,2.686,2.7934,2.754,0.0,0.0,0.0,0.0,0.0,0.0,0.0,0.0,0.0,0.0,0.0,0.0,0.0,0.0,0.0,0.0,0.0,0.0,0.0,0.0,0.0,0.0,0.0,0.0,0.0,0.0,0.0,0.0,0.0,4.0715,4.0552,3.9999,4.0718,4.0812,0.0,0.0,0.0,0.0,0.0,0.0,0.0,0.0,0.0,4.5569,4.6453,4.7362,4.8432,4.8943,4.9426,4.9848,4.9742,4.9584,4.9267,4.8871,4.7929,4.6601,4.6601,4.5307,4.3,4.0652,3.9726,3.9626,0.0,0.0,0.0,0.0,3.7394,3.8228,3.9569,4.0076,0.0,0.0,0.0,0.0,0.0,0.0,0.0,0.0,0.0,0.0,0.0,0.0,0.0,3.5659,3.5544,3.5469,3.507,3.452,3.3395,0.0,3.1248,3.1498,3.0204,0.0,0.0,0.0,0.0,3.0742,3.115,3.1609,3.205,3.2478,3.1558,3.06,2.9837,2.8776,2.8137,2.8061,2.7319,2.7278,2.8218,2.7856,2.7634,0.0,0.0,0.0,0.0,0.0,0.0,0.0,0.0,0.0,0.0,0.0,0.0,0.0,0.0,0.0,0.0,0.0,0.0,0.0,0.0,0.0,0.0,0.0,0.0,0.0,0.0,0.0,0.0,4.2283,4.2133,4.0875,4.222,4.2518,0.0,0.0,0.0,0.0,0.0,0.0,4.5107,4.5865,4.6845,4.8153,4.886,4.9657,5.0617,5.0623,5.0805,5.1236,5.116,5.0978,5.0617,5.0455,4.971,4.8544,4.8544,4.7605,4.5824,4.2806,4.1416,4.1082,3.9494,3.9204,3.9667,3.9553,3.999,4.084,4.2019,4.2356,4.2265,4.1981,0.0,3.8308,3.658,0.0,0.0,0.0,0.0,3.5278,3.6063,3.6583,3.6935,3.7099,3.7246,3.7187,3.6821,3.6693,3.5714,0.0,3.2605,3.2951,3.1668,0.0,0.0,0.0,0.0,3.2546,3.2975,3.2948,3.3122,3.3647,3.2213,3.0958,3.0212,2.9354,2.8746,2.8508,2.7864,2.7752,2.8293,2.7901,2.7447,2.697,0.0,0.0,0.0,0.0,0.0,0.0,0.0,0.0,0.0,0.0,0.0,0.0,0.0,0.0,0.0,0.0,0.0,0.0,0.0,0.0,0.0,0.0,0.0,0.0,0.0,0.0,0.0,0.0,0.0,4.2373,4.4139,0.0,0.0,0.0,0.0,4.4194,4.5963,4.7174,4.724,4.8409,4.9479,5.0228,5.1377,5.2009,5.2074,5.2591,5.2624,5.2139,5.194,5.1946,5.2074,5.1426,5.0714,5.0001,5.0001,4.8803,4.67,4.4594,4.3966,4.42,4.2693,4.2734,4.3681,4.3418,4.3797,4.4426,4.4525,4.4278,4.4066,4.4399,4.2494,3.9879,3.8678,3.7215,0.0,0.0,3.5816,3.6276,3.6862,3.7375,3.7883,3.8531,3.8679,3.8531,3.7942,3.7937,3.7109,0.0,3.3376,3.3155,3.2936,0.0,3.1796,3.2034,3.3367,3.4026,3.3181,3.3761,3.4089,3.3737,3.2642,3.1417,3.0137,2.9723,2.9203,2.8449,2.8137,2.8174,2.8677,2.7459,2.7061,2.772,2.6723,0.0,0.0,0.0,0.0,0.0,0.0,0.0,0.0,0.0,0.0,0.0,0.0,0.0,0.0,0.0,0.0,0.0,0.0,0.0,0.0,0.0,0.0,0.0,0.0,0.0,0.0,0.0,0.0,4.6257,4.7306,0.0,4.5963,4.6945,4.7632,4.7599,4.85,4.9534,5.0591,5.0997,5.1469,5.2248,5.2695,5.3142,5.3596,5.3616,5.3536,5.3358,5.2867,5.2416,5.2011,5.1453,5.0778,5.0098,5.0098,4.9199,4.7749,4.7491,4.6486,4.4942,4.399,4.4207,4.5075,4.4276,4.4838,4.5923,4.5827,4.5146,4.3945,4.1496,3.9372,3.762,3.6827,3.6174,3.5834,3.6373,3.6985,3.7505,3.787,3.8113,3.8311,3.8554,3.8612,3.859,3.8502,3.8618,3.8394,3.7228,3.6081,3.5105,3.4516,3.418,3.4019,3.4105,3.475,3.5295,3.5514,3.5463,3.5286,3.4841,3.3855,3.2379,3.03,2.9966,2.9446,2.8479,2.821,2.8284,2.8566,2.7741,2.722,2.7097,2.581,2.5462,0.0,0.0,0.0,0.0,0.0,0.0,0.0,0.0,0.0,0.0,0.0,0.0,0.0,0.0,0.0,0.0,0.0,0.0,0.0,0.0,0.0,0.0,0.0,0.0,0.0,4.7309,4.8324,4.9433,5.0464,5.0554,4.9194,4.9838,5.0318,5.0395,5.1275,5.23,5.3396,5.361,5.3758,5.3977,5.4276,5.4405,5.4405,5.439,5.4107,5.3657,5.3439,5.2828,5.1894,5.1674,5.1135,5.0455,5.0455,4.9884,4.8958,4.9479,4.8509,4.6684,4.6356,4.6288,4.6415,4.6288,4.6716,4.7243,4.6548,4.5194,4.3295,4.031,3.8458,3.7342,3.694,3.6836,3.6948,3.7575,3.8038,3.8375,3.8487,3.8493,3.8493,3.8493,3.8575,3.8723,3.8797,3.9017,3.9156,3.8943,3.7866,3.6866,3.6427,3.5975,3.5829,3.6491,3.6457,3.6678,3.7552,3.6957,3.6144,3.5391,3.4369,3.2736,3.0277,3.0205,2.9659,2.8284,2.8326,2.8375,2.8326,2.787,2.7254,2.6493,2.5268,2.5025,2.5878,0.0,0.0,0.0,0.0,0.0,0.0,0.0,0.0,0.0,0.0,0.0,0.0,0.0,0.0,0.0,0.0,0.0,0.0,0.0,0.0,0.0,0.0,0.0,4.7737,4.9509,5.0936,5.1721,5.3492,5.3604,5.0908,5.3083,5.4013,5.2495,5.4308,5.5474,5.5474,5.6154,5.6219,5.5507,5.6154,5.583,5.447,5.4873,5.4437,5.3053,5.3689,5.3271,5.1958,5.2126,5.1815,5.1237,5.1237,5.0927,5.0428,5.0424,5.0108,4.9599,4.9809,4.9055,4.7968,4.9588,4.9553,4.8488,4.6699,4.4418,4.2193,4.1304,4.0305,3.9439,3.9439,3.9439,3.9337,3.9156,3.8943,3.876,3.8538,3.8493,3.8493,3.8493,3.8797,3.9053,3.887,3.909,3.9337,3.9156,3.847,3.8098,3.8632,3.7485,3.7122,3.8998,3.8513,0.0,3.9049,3.7983,3.6634,3.5376,3.4175,3.2492,3.0075,3.044,2.9957,2.7941,2.8419,2.853,2.8025,2.7745,2.7046,2.5929,2.5134,2.4909,2.5356,0.0,0.0,0.0,0.0,0.0,0.0,0.0,0.0,0.0,0.0,0.0,0.0,0.0,0.0,0.0,0.0,0.0,0.0,0.0,0.0,0.0,4.7473,4.8124,4.9494,5.1019,5.2568,5.4208,5.5329,5.6075,5.6325,5.5974,5.6062,5.6792,5.6763,5.6796,5.6964,5.7158,5.7191,5.6996,5.6672,5.6316,5.5928,5.5233,5.4755,5.4534,5.4017,5.3407,5.2667,5.2353,5.1891,5.1424,5.1424,5.1112,5.0641,5.1197,5.0602,4.9388,4.9597,4.9768,4.9866,4.963,4.8719,4.7337,4.5767,4.4285,4.2823,4.1663,4.0778,4.0127,4.0127,3.9798,3.9337,3.898,3.8833,3.8723,3.8352,3.8389,3.8493,3.8493,3.8797,3.9053,3.9017,3.9228,3.9337,3.9156,3.8796,3.871,3.9177,3.895,3.878,3.9143,3.8669,0.0,3.8724,3.8141,3.7358,3.6524,3.5485,3.4024,3.2069,3.1308,3.0246,2.863,2.8344,2.8077,2.7715,2.7225,2.612,2.4368,2.4719,2.4662,0.0,0.0,0.0,0.0,0.0,0.0,0.0,0.0,0.0,0.0,0.0,0.0,0.0,0.0,0.0,0.0,0.0,0.0,0.0,0.0,0.0,0.0,5.0585,5.1759,5.398,5.45,5.5402,5.7417,5.8292,5.8939,5.949,5.8906,5.8841,5.9446,5.9003,5.8777,5.8907,5.8648,5.8324,5.8032,5.7611,5.7093,5.651,5.6163,5.5812,5.5564,5.5072,5.4364,5.3407,5.2981,5.2492,0.0,5.1629,5.1708,5.2024,5.1712,5.121,0.0,0.0,0.0,0.0,0.0,4.8602,4.7236,4.5721,4.4205,4.2751,4.1746,4.1115,4.0756,4.0487,4.0054,3.9586,3.8966,3.876,3.8612,3.8277,3.8352,3.8493,3.8493,3.8797,3.9053,3.898,3.9192,3.9301,3.9017,0.0,0.0,3.907,3.8742,3.8676,3.9251,3.839,3.7865,3.8476,3.7902,3.7172,3.6561,3.5706,3.4455,3.2492,3.1976,0.0,0.0,0.0,2.8252,2.7381,2.664,0.0,0.0,0.0,2.4547,2.417,0.0,0.0,0.0,2.4723,2.4641,0.0,0.0,0.0,0.0,0.0,0.0,0.0,0.0,0.0,0.0,0.0,0.0,0.0,0.0,0.0,0.0,5.4293,5.6124,5.9457,5.8939,5.8842,6.0688,6.1433,6.1595,6.1077,6.1498,6.1595,6.1077,6.0947,6.0882,6.0785,0.0,0.0,0.0,0.0,5.799,5.6737,5.7223,5.7074,5.6218,5.633,5.5586,5.4059,5.3851,5.3394,5.2709,5.203,5.2464,5.3618,5.1977,5.1745,5.2346,5.1913,5.0794,4.9534,4.9581,4.8845,0.0,4.6083,0.0,0.0,4.1803,4.1564,4.1422,4.0786,4.0405,3.9951,3.9136,3.8708,3.8456,3.824,3.8352,3.8493,3.8493,3.8797,3.9053,3.887,3.9156,3.9265,3.887,3.9349,3.9461,3.8566,3.7774,3.7721,3.9054,3.7743,3.7001,3.824,3.7342,3.6445,3.613,0.0,0.0,3.2373,3.2464,3.1623,2.9086,2.9355,2.8862,2.7257,2.6329,2.5797,2.5581,2.4901,2.4693,2.498,2.5123,2.5451,2.5995,2.5914,2.5914,0.0,0.0,0.0,0.0,0.0,0.0,0.0,0.0,0.0,0.0,0.0,0.0,0.0,0.0,0.0,5.5667,5.6711,5.8043,6.0979,6.166,6.1789,6.1627,6.1724,6.1983,6.2437,6.2081,6.1983,6.2437,6.1951,6.1368,6.0818,6.0656,6.0267,5.9522,5.8896,5.8475,5.8184,5.7054,5.6431,5.6469,0.0,0.0,5.4572,5.4685,5.4305,5.3624,5.3123,5.2847,5.2747,5.2192,5.1823,5.1694,5.142,5.1117,5.0714,4.9515,4.8345,4.7192,4.5646,4.4246,4.308,4.2961,4.2611,4.2201,4.2051,4.1121,0.0,3.9697,3.906,3.8456,3.824,3.8352,3.8493,3.8493,3.8797,3.909,3.9053,3.9228,3.9265,3.887,3.8914,3.8884,3.8539,3.8357,3.8159,3.7924,3.7062,3.6723,3.7517,3.66,3.6222,3.7031,3.5935,3.5001,3.4582,3.3304,3.2078,3.1002,2.999,2.9123,2.8422,2.7826,2.728,2.6682,2.6274,2.6099,2.616,2.619,2.6361,2.6589,2.6013,2.6069,0.0,0.0,0.0,0.0,0.0,0.0,0.0,0.0,0.0,0.0,0.0,5.002,5.1369,0.0,5.4463,5.7976,5.8928,6.0073,6.2566,6.3214,6.3311,6.2955,6.2923,6.3052,6.3408,6.3117,6.3052,6.3408,6.2761,6.221,6.1854,6.1498,6.1141,6.0785,6.0073,5.9555,5.9122,5.8486,5.802,5.7716,5.7125,5.645,5.5806,5.5254,5.4737,5.4228,5.3377,5.3236,5.3518,5.2557,5.1867,5.1462,5.1275,5.1054,5.0691,4.9117,4.788,4.6725,4.5172,4.4058,4.329,4.329,4.312,4.2791,4.25,4.1462,4.0364,3.9925,3.8952,3.8052,3.8165,3.8127,3.8156,3.8456,3.8649,3.8833,3.9053,3.9192,3.9156,3.887,3.8797,3.8605,3.7981,3.7943,3.7936,3.7839,3.6564,3.6001,3.6939,3.6027,3.5582,3.6304,3.5606,3.4949,3.4723,3.3332,3.2348,3.2019,3.1034,2.9951,2.8828,2.8567,2.7867,2.6661,2.6478,2.6386,2.6386,2.6386,2.6639,2.7089,2.6704,2.6793,0.0,0.0,0.0,0.0,0.0,0.0,0.0,4.7173,4.744,4.836,5.0427,5.2393,5.3624,5.5324,5.7386,5.999,6.0854,6.1854,6.3764,6.4024,6.4024,6.4024,6.4024,6.4024,6.4024,6.4024,6.4024,6.4024,6.3441,6.3052,6.289,6.234,6.1886,6.1627,6.1122,6.0518,5.976,5.9892,5.963,5.9001,5.8534,5.7773,5.6849,5.5915,5.5293,5.49,5.3547,5.3378,5.4013,5.261,5.1799,5.1462,5.1129,5.0615,4.9896,4.8537,4.7401,4.633,4.466,4.3738,4.329,4.329,4.329,4.32,4.2662,4.1763,4.0831,4.0144,3.8937,3.7988,3.833,3.8054,3.7882,3.8527,3.8618,3.8708,3.9194,3.9334,3.9297,3.9084,3.9047,3.873,3.7777,3.758,3.7615,3.7783,3.6237,3.5422,3.652,3.5581,3.4938,3.5302,3.5037,3.4669,3.4184,3.3331,3.2766,3.2586,3.2109,3.1132,2.9563,2.93,2.8472,2.689,2.6725,2.664,2.664,2.6672,2.7006,2.762,2.762,2.7741,4.7573,4.8049,4.7857,4.8111,4.8186,4.9426,0.0,5.3713,5.3119,5.5437,5.6177,5.6635,5.7454,5.8619,6.0055,6.1694,6.2347,6.2987,6.3894,6.4024,6.4024,6.4024,6.4024,6.4024,6.4024,6.4024,6.4024,6.4024,6.3926,6.3603,6.2923,6.2825,6.2178,6.0947,6.0996,6.0738,6.0066,5.9628,5.9268,5.9001,5.87,5.7937,5.6808,5.7124,5.6777,5.585,5.4222,5.2981,5.2085,5.155,5.1377,5.1424,5.0602,4.9528,4.8388,4.7661,4.6919,4.607,4.4108,4.3349,4.329,4.329,4.329,4.322,4.3041,4.2327,4.144,4.0627,3.9751,3.9025,3.9102,3.86,3.8347,3.9194,3.906,3.8981,3.9795,4.0129,4.0203,4.0018,3.9951,3.9669,3.8797,3.8135,3.754,3.6875,3.6049,3.5722,3.635,3.528,3.4668,3.5169,3.4902,3.4534,3.4053,3.4006,3.3711,3.2992,3.2998,3.2599,3.1597,3.0736,2.985,2.8872,2.8231,2.7893,2.7893,2.8002,2.8217,2.846,2.846,2.8492,4.9086,4.8911,4.8604,4.9892,5.0792,5.2115,5.5056,5.5303,5.528,5.6483,5.7409,5.8222,5.8938,5.9827,6.0951,6.2347,6.2788,6.3149,6.3894,6.3635,6.3214,6.2793,6.3095,6.3512,6.3973,6.4024,6.4024,6.4024,6.4024,6.3894,6.357,6.3538,6.3293,6.2815,6.2329,6.1829,6.1348,6.0647,6.013,5.9791,5.9365,5.8725,5.7838,5.7606,5.6593,5.4963,5.3877,5.284,5.1941,5.1424,5.1312,5.1392,5.0115,4.9039,4.8066,4.7066,4.6018,4.4961,4.3738,4.329,4.329,4.329,4.329,4.325,4.3061,4.2376,4.1518,4.0744,3.9973,3.9341,3.9228,3.8909,3.8764,3.937,3.9044,3.89,3.9884,3.9958,3.995,4.007,4.0025,3.9705,3.8922,3.8561,3.8259,3.7922,3.6904,3.6259,3.6502,3.5634,3.4908,3.4731,3.4702,3.4614,3.4416,3.4522,3.4469,3.4139,3.4268,3.3706,3.2245,3.1829,3.0788,2.906,2.8651,2.8326,2.8112,2.8177,2.8249,2.8444,2.8444,2.8476,4.9432,4.9547,5.0223,5.1726,5.3211,5.4684,5.6027,5.669,5.7143,5.7566,5.8356,5.9166,5.9934,6.068,6.1556,6.2788,6.3145,6.3469,6.3926,6.3182,6.2464,6.2171,6.2235,6.2585,6.3369,6.3766,6.3887,6.37,6.3894,6.4024,6.4024,6.4024,6.3941,6.3901,6.3448,6.2914,6.2256,6.1763,6.1218,6.0642,6.0232,5.9424,5.8298,5.75,5.6126,5.441,5.3948,5.3242,5.2306,5.1685,5.1437,5.1247,4.9604,4.8466,4.7698,4.6487,4.5304,4.4227,4.3529,4.329,4.329,4.325,4.321,4.317,4.293,4.2404,4.1704,4.089,4.0184,3.9607,3.9489,3.9074,3.8842,3.9361,3.9007,3.8921,4.0114,4.0216,4.0102,4.0329,4.0254,3.9837,3.887,3.876,3.8797,3.8723,3.7856,3.7139,3.6892,3.6166,3.5386,3.4748,3.4826,3.4806,3.4631,3.4765,3.4802,3.4769,3.4968,3.4364,3.2623,3.2461,3.1446,2.9438,2.9209,2.8871,2.8385,2.8451,2.8442,2.8384,2.8384,2.8476,4.8483,5.0382,5.3314,5.3563,5.5103,5.7027,5.879,5.9198,5.9497,6.0453,6.0137,5.9922,6.0869,6.1629,6.2411,6.316,6.3798,6.4207,6.3991,6.2761,6.2105,6.287,6.1787,6.1225,6.191,6.3122,6.3621,6.2969,6.3603,6.4024,6.4024,6.4024,6.3667,6.2923,6.3812,6.3657,6.2399,6.2657,6.2256,6.1276,6.1136,5.9834,5.7599,5.6613,5.5732,5.4972,5.4972,5.4153,5.2843,5.2362,5.1782,5.0989,4.9032,4.7746,4.6911,4.5757,4.4885,4.4227,4.3529,4.329,4.325,4.3061,4.3021,4.297,4.2555,4.2433,4.2176,4.1331,4.0612,4.0089,4.006,3.916,3.8414,3.9282,3.9119,3.9225,4.0745,4.1203,4.1279,4.1118,4.108,4.055,3.881,3.8686,3.8723,3.8567,3.8657,3.8429,3.766,3.6836,3.6025,3.5421,3.5363,3.5131,3.4457,3.4597,3.4631,3.4428,3.4735,3.4337,3.303,3.261,3.1861,3.0672,3.0253,2.9766,2.9168,2.9342,2.9143,2.86,2.86,2.86,5.1088,5.2403,5.4069,5.5937,5.7204,5.8452,6.0332,6.0292,6.0011,6.068,5.9978,5.9448,6.0218,6.0587,6.1141,6.2378,6.3023,6.3534,6.3926,6.3149,6.2074,6.0957,6.115,6.0687,5.9053,6.1642,6.3472,6.358,6.3908,6.4314,6.4636,6.4272,6.4142,6.4569,6.4154,6.3851,6.3567,6.3119,6.2352,6.135,6.0712,5.9696,5.8421,5.7475,5.6428,5.5391,5.5121,5.4262,5.3062,5.265,5.1523,4.9914,4.8261,4.6874,4.5778,4.4971,4.4496,4.4287,4.4047,4.3648,4.329,4.321,4.313,4.2941,4.2688,4.2514,4.2205,4.136,4.1011,4.0829,4.0245,3.9788,3.9496,3.9665,3.9697,3.9906,4.0901,4.1359,4.1468,4.0976,4.0888,4.0436,3.8958,3.887,3.8943,3.8723,3.8406,3.8119,3.7811,3.7122,3.6441,3.5795,3.5737,3.5473,3.4794,3.4731,3.4664,3.4597,3.4769,3.4337,3.3058,3.3079,3.2451,3.0931,3.0779,3.0481,2.9991,2.9652,2.942,2.9203,2.879,2.86,5.3177,5.4467,5.5842,5.8263,5.9292,6.0107,6.1448,6.1077,6.038,6.0084,5.9285,5.875,5.8945,5.9105,5.9746,6.136,6.2154,6.2789,6.3613,6.2899,6.1918,6.1,6.1127,6.0725,5.9126,6.1491,6.3018,6.2748,6.3573,6.4111,6.4243,6.4584,6.493,6.5258,6.5072,6.4806,6.4512,6.4079,6.3096,6.1595,6.0495,5.9595,5.8866,5.7858,5.6869,5.5946,5.5375,5.4547,5.3577,5.2562,5.1059,4.9341,4.776,4.6492,4.5523,4.515,4.4736,4.4317,4.4317,4.4047,4.3618,4.327,4.305,4.285,4.2648,4.2474,4.2211,4.161,4.136,4.112,4.0303,4.0071,4.0056,3.9858,4.0089,4.0567,4.1403,4.1694,4.1617,4.0929,4.0733,4.0244,3.8818,3.876,3.887,3.8833,3.8443,3.8207,3.8135,3.7716,3.7252,3.6674,3.6615,3.632,3.5672,3.5473,3.5371,3.5371,3.5238,3.465,3.35,3.3459,3.2863,3.1433,3.1433,3.1208,3.0717,3.031,3.0011,2.9794,2.9414,2.9252,5.4625,5.6545,5.8661,6.034,6.1278,6.1829,6.2089,6.1499,6.0467,5.8821,5.8176,5.7716,5.7109,5.7324,5.825,6.0256,6.1235,6.2114,6.3206,6.215,6.1687,6.2814,6.1773,6.1217,6.1749,6.2544,6.2367,6.0894,0.0,6.3669,6.3153,6.4995,6.5757,6.5135,6.6296,6.6378,6.5152,6.528,6.4254,6.2003,6.0658,5.9636,5.8933,5.773,5.7014,5.6713,5.5727,5.5,5.432,5.2128,5.0526,4.9266,4.7567,4.6524,4.597,4.6209,4.5442,4.4377,4.4377,4.4317,4.4127,4.3269,4.289,4.2648,4.2474,4.2257,4.2092,4.2092,4.1599,4.1,4.0321,4.0157,4.01,3.9929,4.0368,4.1133,4.2145,4.2216,4.1804,4.0929,4.0558,3.9916,3.8472,3.8352,3.8538,3.876,3.8797,3.8723,3.8538,3.853,3.8407,3.7978,3.7955,3.7659,3.698,3.674,3.6599,3.6599,3.6014,3.5218,3.4261,3.3783,3.3122,3.2246,3.2182,3.1911,3.1341,3.1314,3.1015,3.0446,3.0418,3.0418,5.6549,5.8608,6.0324,6.1532,6.1544,6.123,6.1086,5.9857,5.8381,5.7119,5.6087,5.5198,5.4622,5.5345,5.6723,5.8659,6.0279,6.1869,6.3613,6.3608,6.316,6.2203,6.2332,6.2316,6.1716,6.2219,6.2683,0.0,6.3592,6.4559,6.5951,6.5734,6.5878,6.6534,6.5454,6.5162,6.5688,6.4359,6.3265,6.2436,6.1635,6.0717,5.9694,5.8812,5.8084,5.7442,5.6073,5.5114,5.432,5.2277,5.0456,4.8846,4.745,4.6324,4.556,4.6124,4.5783,4.5035,4.5035,4.4407,4.3499,4.312,4.289,4.2648,4.2474,4.2257,4.2092,4.2092,4.1843,4.1448,4.0953,4.0852,4.079,4.0604,4.1124,4.1744,4.1844,4.2337,4.2258,4.0597,3.945,3.8722,3.8448,3.8493,3.853,3.8575,3.8686,3.8833,3.8907,3.8973,3.8779,3.834,3.8251,3.7983,3.7327,3.6985,3.684,3.684,3.6523,3.5841,3.4687,3.4389,3.3729,3.2583,3.2326,3.2137,3.1965,3.1504,3.1205,3.107,3.0608,3.0418,5.9232,6.0854,6.19,6.2286,6.2038,6.1349,5.9746,5.868,5.7233,5.4503,5.3787,5.3216,5.1521,5.2879,5.4854,5.6803,5.8912,6.1087,6.3334,6.3784,6.3589,6.2825,6.3162,6.3348,6.3066,6.3306,6.3917,6.5128,6.4931,6.5155,6.612,6.6449,6.6745,6.7071,6.5997,6.5397,6.5507,6.3889,6.2931,6.2591,6.166,6.0598,5.9496,5.8814,5.7885,5.6779,0.0,5.4837,5.3746,5.1494,4.9795,4.8537,4.7358,4.6427,4.5813,4.6501,4.6142,4.5304,4.5304,4.4436,4.325,4.3061,4.289,4.2648,4.2474,4.2257,4.2133,4.2216,4.2129,4.1898,4.1365,4.1448,4.1607,4.1244,4.2011,4.2643,4.2347,4.2663,4.2347,4.0276,3.8975,3.824,3.8352,3.8352,3.8352,3.8352,3.8464,3.8612,3.8797,3.898,3.9043,3.8835,3.8841,3.8691,3.8332,3.7949,3.7735,3.7735,3.722,3.6395,3.5292,3.4573,3.3697,3.2573,3.226,3.2073,3.2073,3.1821,3.1667,3.1667,3.1341,3.1178,6.1989,6.3007,6.3275,6.2925,6.2551,6.1513,5.8498,5.7527,5.602,5.1622,5.1454,5.1262,4.8525,5.0326,5.2952,5.5152,5.7515,6.0073,6.2932,6.3323,6.3505,6.3926,6.3976,6.4222,6.4834,6.4899,6.5453,6.6809,6.633,6.5797,6.5295,6.6943,6.7541,6.6682,6.6719,6.6117,6.4749,6.3764,6.3011,6.2552,6.1436,6.0291,5.9079,5.848,5.7343,5.5795,0.0,0.0,5.2893,5.0392,4.9018,4.8411,4.7334,4.6689,4.6531,4.71,4.6501,4.5424,4.5293,4.4456,4.3329,4.305,4.285,4.2648,4.2433,4.2257,4.2175,4.2351,4.2433,4.2327,4.1741,4.2034,4.2397,4.2059,4.2817,4.3519,4.3178,4.2881,4.208,4.005,3.8935,3.8289,3.8231,3.8289,3.8289,3.8202,3.8202,3.8315,3.8501,3.8797,3.9119,3.9301,3.9301,3.9301,3.9301,3.898,3.876,3.876,3.793,3.6946,3.5924,3.4743,3.3624,3.2517,3.2145,3.1934,3.189,3.2036,3.2146,3.2218,3.2182,3.2146,6.3935,6.4399,6.3903,6.4068,6.2289,6.0053,5.8221,5.5314,5.2382,5.0259,4.912,4.82,4.7245,4.8713,5.1361,5.5073,5.6816,5.9216,6.3532,6.3799,6.3656,6.3973,6.4142,6.4427,6.4937,6.5326,6.5727,6.6238,6.6991,6.7196,6.6743,6.692,6.6237,6.4531,6.5141,6.4825,6.3357,6.3449,6.3121,6.2352,6.2523,6.1772,6.0284,5.9555,5.8418,5.6909,5.5132,0.0,5.2194,5.0089,4.8977,4.8491,4.7352,4.696,4.716,4.7279,4.68,4.601,4.5305,4.4507,4.3753,4.2987,4.2729,4.2607,4.2228,4.2257,4.2351,4.2392,4.2648,4.282,4.2541,4.268,4.3019,4.3493,4.3386,4.3237,4.3723,4.2286,4.0813,4.0412,3.9634,3.8841,3.8289,3.8667,3.8841,3.8289,3.8315,3.8501,3.8723,3.8649,3.8686,3.887,3.8907,3.8907,3.8907,3.8686,3.8538,3.8538,3.8227,3.7501,3.6274,3.5725,3.4657,3.2934,3.2505,3.2161,3.189,3.178,3.1853,3.2218,3.2036,3.1963,6.579,6.6229,6.5565,6.4353,6.2147,5.946,5.6072,5.3012,5.0251,4.7883,4.7289,4.6866,4.5838,4.7585,5.0156,5.3092,5.4232,5.6626,6.2003,6.1828,6.1902,6.3887,6.4179,6.4426,6.5123,6.527,6.5581,6.6192,6.6694,6.6821,6.661,6.661,6.5893,6.4285,6.4661,6.4149,6.2659,6.262,6.23,6.1699,6.1738,6.1047,5.9775,5.9371,5.8081,5.5936,5.4609,0.0,5.1173,4.9568,4.8715,4.8366,4.7474,4.7182,4.7309,4.7309,4.6804,4.6079,4.5667,4.4976,4.4169,4.3301,4.282,4.2514,4.2216,4.2257,4.2433,4.2555,4.2769,4.2981,4.289,4.3167,4.3604,4.3931,4.3671,4.3523,4.4054,4.2393,4.0792,4.0705,4.012,3.9567,3.9247,3.945,3.945,3.8812,3.8801,3.8798,3.8493,3.8389,3.8501,3.8907,3.887,3.8797,3.8797,3.8612,3.8493,3.8493,3.8315,3.7644,3.6334,3.5859,3.4776,3.2896,3.2472,3.2042,3.1569,3.1596,3.1706,3.189,3.178,3.178,6.7479,6.7784,6.6839,6.4465,6.1885,5.8748,5.4114,5.11,4.8564,4.5928,4.5891,4.594,4.4818,4.6494,4.8839,5.1296,5.2056,5.4481,6.0509,6.0261,6.0673,6.4045,6.4182,6.4384,6.5309,6.5144,6.527,6.5932,6.5801,6.579,6.6009,6.6062,6.5597,6.436,6.4491,6.3869,6.2313,6.211,6.1779,6.1346,6.1205,6.0459,5.9197,5.9103,5.7483,5.4771,5.3879,0.0,0.0,4.8984,4.8355,4.8049,4.7525,4.7396,4.7525,4.7482,4.7109,4.6586,4.6254,4.5578,4.4684,4.3701,4.3048,4.2526,4.2245,4.231,4.2514,4.2688,4.293,4.3061,4.322,4.3768,4.4306,4.4456,4.4322,4.4169,4.4265,4.271,4.128,4.1028,4.0676,4.0342,4.0118,4.0205,4.0089,3.9479,3.9392,3.9189,3.8705,3.853,3.8593,3.9114,3.8885,3.8686,3.8686,3.8538,3.8427,3.8427,3.8277,3.7644,3.6334,3.5919,3.473,3.2738,3.241,3.1947,3.131,3.141,3.1522,3.1596,3.1559,3.1633,6.9003,6.8229,6.6504,6.4964,6.136,5.7266,5.4039,5.0051,4.6772,4.5626,4.5081,4.4784,4.4615,4.5216,4.709,5.1295,5.2331,5.47,6.084,6.1371,6.211,6.4622,6.438,6.4345,6.5292,6.5167,6.4864,6.4531,6.4485,6.4852,6.5669,6.5425,6.4663,6.3434,6.4128,6.3795,6.2313,6.2697,6.2476,6.1763,6.248,6.1775,5.9975,5.934,5.7566,5.4793,5.2902,0.0,0.0,4.8438,4.7964,4.7396,4.7309,4.7666,4.8175,4.8007,4.824,4.843,4.7061,4.6135,4.538,4.4075,4.3466,4.3111,4.2526,4.2514,4.2729,4.29,4.313,4.3409,4.3966,4.4608,4.5318,4.5929,4.5789,4.527,4.4477,4.3101,4.1912,4.1656,4.1429,4.1025,4.0245,4.0583,4.0786,4.0118,4.0031,4.008,4.0178,3.9566,3.9217,3.9417,3.8739,3.824,3.824,3.824,3.824,3.824,3.8202,3.7644,3.6334,3.6239,3.5098,3.2764,3.2686,3.2188,3.131,3.1123,3.1261,3.1596,3.1384,3.1347,6.7731,6.7998,6.7013,6.5022,6.1328,5.7127,5.3329,4.9622,4.6531,4.5047,4.4643,4.4615,4.4615,4.4902,4.6094,4.887,4.881,5.046,5.6459,5.6784,5.7986,6.2326,6.2874,6.3473,6.4812,6.4635,6.4379,6.43,6.4715,6.5066,6.5336,6.5189,6.453,6.3338,6.3615,6.305,6.158,6.175,6.17,6.1461,6.1975,6.1371,5.9772,5.8908,5.6911,5.4032,5.2012,0.0,0.0,4.7922,4.7568,4.7309,4.7309,4.7654,4.8133,4.8175,4.8396,4.8605,4.7651,4.7089,4.6519,4.4738,4.4094,4.3812,4.2895,4.2729,4.2989,4.3445,4.3928,4.4497,4.5257,4.5987,4.6691,4.7364,4.6373,4.5203,4.4975,4.3626,4.2465,4.2505,4.2345,4.2016,4.158,4.1807,4.1748,4.0826,4.0789,4.0752,4.0265,3.9925,3.978,3.9829,3.885,3.8202,3.8202,3.8202,3.8202,3.8202,3.8202,3.7644,3.6334,3.6294,3.5315,3.3288,3.2881,3.2346,3.161,3.1505,3.1569,3.1751,3.2027,3.2186,6.6666,6.7446,6.6992,6.5082,6.1415,5.7182,5.3004,4.9491,4.6588,4.4764,4.4497,4.4615,4.4615,4.4748,4.5461,4.7285,4.712,4.8614,5.3997,5.4496,5.6113,6.0826,6.1545,6.2395,6.4301,6.4374,6.4365,6.4426,6.4976,0.0,6.5189,6.4992,6.4387,6.3305,6.3444,6.2789,6.1326,6.1293,6.122,6.1192,6.1541,6.0948,5.9525,5.8151,5.6027,5.3316,0.0,0.0,0.0,4.7495,4.7309,4.7309,4.7309,4.7709,4.8271,4.8438,4.8811,4.9094,4.8337,4.7884,4.7336,4.5795,4.5169,4.4877,4.4278,4.3828,4.3748,4.4488,4.5272,4.6097,4.6942,4.7459,4.7864,4.845,4.6891,4.5304,4.5304,4.4013,4.289,4.2981,4.289,4.2729,4.2514,4.2637,4.246,4.1697,4.165,4.1474,4.0848,4.0615,4.0459,4.0459,3.9401,3.8606,3.8492,3.8492,3.8405,3.8202,3.8405,3.7844,3.6334,3.6294,3.5451,3.3654,3.3169,3.2672,3.2058,3.2288,3.2364,3.2369,3.2802,3.2978,6.6353,6.6699,6.5943,6.5264,6.1599,5.719,5.3367,4.9726,4.6619,4.4941,4.4615,4.4615,4.4615,4.4615,4.5269,4.7255,4.8647,5.0893,5.492,5.654,5.8347,6.1055,6.075,6.1305,6.377,6.4671,6.4963,6.4702,6.4963,0.0,6.5381,6.4763,6.4034,6.3305,6.3709,6.3216,6.1743,6.1709,6.1541,6.1192,6.1541,6.0939,5.9427,5.7159,5.5012,0.0,0.0,0.0,0.0,4.7309,4.7309,4.7309,4.7309,4.7934,4.8903,4.8903,4.9622,5.0384,4.9195,4.8345,4.7707,4.7317,4.6733,4.6303,4.7028,4.6198,4.5169,4.6039,4.72,4.8306,4.9012,4.898,4.8828,4.9122,4.7558,4.5839,4.5387,4.4257,4.325,4.3021,4.2981,4.29,4.2729,4.2688,4.2688,4.2688,4.2526,4.2392,4.2392,4.1778,4.1368,4.1368,4.0421,3.961,3.9228,3.9189,3.8899,3.8231,3.8812,3.8331,3.6362,3.6294,3.5451,3.3654,3.3587,3.3273,3.2672,3.334,3.3677,3.3677,3.3677,3.3327,6.0592,6.1816,6.2164,6.0373,5.8243,5.5587,5.1851,4.9525,4.744,4.4812,4.4327,4.4412,4.4412,4.4327,4.5119,4.7776,4.8856,5.0458,5.3632,5.5985,5.8221,6.0382,6.2643,6.409,6.4445,6.4979,6.5201,6.5008,6.5189,0.0,6.473,6.4498,6.4208,6.3742,6.3115,6.2424,6.1709,6.1417,6.1365,6.1535,6.1365,6.061,5.9197,5.6643,0.0,0.0,0.0,0.0,0.0,4.7309,4.7309,4.7309,4.7309,4.7709,4.8252,4.8244,4.8701,4.9247,4.8366,4.7974,4.785,4.7342,4.6966,4.6961,4.7738,4.7341,4.6749,4.7786,4.8779,4.9687,5.0211,5.0051,4.9662,4.9287,4.8018,4.6752,4.6297,4.5038,4.4018,4.4138,4.3629,4.313,4.297,4.293,4.285,4.2729,4.2648,4.2637,4.2637,4.2268,4.207,4.207,4.123,4.0422,3.9698,3.961,3.9316,3.8642,3.9115,3.8524,3.6598,3.6373,3.5842,3.486,3.4015,3.3926,3.4621,3.4377,3.4682,3.5478,3.5471,3.535,5.6868,5.868,5.9472,5.864,5.6949,5.4662,5.1295,4.9353,4.7497,4.4749,4.427,4.4265,4.4207,4.4212,4.4926,4.7185,4.8389,4.9993,5.2641,5.5369,5.7945,6.0166,6.3012,6.4597,6.4063,6.4871,6.5291,6.5099,0.0,0.0,6.4399,6.3879,6.3506,6.3321,6.2316,6.1542,6.1065,6.0812,6.0812,6.1065,6.0812,5.9811,5.8096,5.553,0.0,0.0,0.0,0.0,0.0,4.7309,4.7309,4.7279,4.704,4.7219,4.7593,4.7384,4.7746,4.825,4.7663,4.7834,4.8271,4.7919,4.8198,4.8733,4.9247,4.8952,4.859,4.9496,5.0135,5.064,5.0934,5.0518,4.986,4.943,4.8366,4.7283,4.6722,4.5768,4.4947,4.4586,4.4034,4.3587,4.3538,4.3568,4.3658,4.3682,4.3671,4.3582,4.3223,4.3234,4.3064,4.2555,4.2088,4.1469,4.0595,4.0459,4.0009,3.9098,3.9572,3.8832,3.6559,3.6688,3.6362,3.5426,3.4753,3.4861,3.5809,3.5652,3.5919,3.6656,3.6985,3.6805,0.0,5.6622,5.7386,5.8665,5.6801,5.3943,5.1228,4.9007,0.0,4.4735,4.4265,4.427,4.426,4.4284,4.4754,4.6124,4.7749,4.9722,5.2113,5.5024,5.7893,6.052,6.2425,6.3328,6.2925,6.4432,6.5291,6.5099,0.0,0.0,6.4299,6.3027,6.224,6.2195,6.1439,6.073,6.0074,6.01,6.0059,5.9993,5.9993,5.8758,5.6325,5.4122,0.0,0.0,0.0,0.0,0.0,4.7309,4.7309,4.7249,4.6591,4.6575,4.6902,4.6457,4.6779,4.746,4.7241,4.7869,4.8744,4.9022,5.0034,5.1199,5.1199,5.0788,5.0409,5.1016,5.1199,5.1167,5.1129,5.0338,4.959,4.9501,4.8568,4.7484,4.6788,4.6462,4.5901,4.4611,4.4374,4.4356,4.4358,4.4619,4.4901,4.5256,4.5244,4.4923,4.4121,4.4297,4.4028,4.2828,4.2869,4.2625,4.1843,4.1586,4.092,3.9592,4.0149,3.9265,3.6508,3.7183,3.695,3.5588,3.5763,3.6056,3.6373,3.7056,3.7394,3.7404,3.8165,3.7796,4.9292,0.0,5.1693,5.0884,5.0548,4.9974,0.0,4.7368,4.6465,4.4548,4.4155,4.4461,4.557,4.5153,4.5696,4.9056,5.0193,5.1254,5.2904,5.6954,6.0384,6.2144,6.4175,6.477,6.3067,6.4432,6.5291,0.0,0.0,6.449,6.3614,6.3275,6.2455,6.1059,6.0792,6.0772,6.092,6.0884,6.0556,5.9993,5.9993,5.8413,5.5366,5.3815,0.0,0.0,0.0,0.0,4.7309,4.7309,4.7309,4.7249,4.6591,4.6364,4.6443,4.6092,4.6085,4.6375,4.7284,4.7781,4.8164,4.941,5.0455,5.1199,5.1199,5.1092,5.1016,5.1162,5.1199,5.1092,5.0563,4.984,4.9197,4.8728,4.8326,4.7929,4.7373,4.7136,4.6764,4.6115,4.5846,4.5572,4.5065,4.5394,4.5586,4.5357,4.4721,4.4292,4.4225,4.3747,4.3279,4.297,4.2691,4.2522,4.2452,4.2288,4.1495,3.985,4.038,3.9692,3.7394,3.7491,3.7453,3.7106,3.7567,3.7596,3.7056,3.7825,3.8231,3.8231,3.8575,3.8546,4.6465,4.8652,5.0469,4.9994,4.9943,4.969,4.8523,4.734,4.6112,4.484,4.4406,4.4692,4.5949,4.5704,4.6333,4.9525,5.0727,5.2501,5.6057,5.9857,6.2858,6.4452,6.5765,6.6094,0.0,6.5531,6.5999,0.0,0.0,6.4439,6.3615,6.2963,6.1843,6.013,6.0238,6.019,5.991,6.0018,5.9728,5.8999,5.8554,5.6882,5.4141,5.2635,5.0673,0.0,0.0,0.0,4.7309,4.7309,4.7309,4.7219,4.6232,4.5843,4.5765,4.5223,4.5353,4.6012,4.6988,4.7978,4.8982,5.0191,5.0655,5.0717,5.0717,5.0525,5.037,5.064,5.0717,5.0538,4.9528,4.8797,4.8284,4.805,4.7741,4.7455,4.7455,4.7606,4.7492,4.645,4.6728,4.683,4.583,4.6173,4.6466,4.61,4.5734,4.5317,4.4691,4.4436,4.3947,4.2989,4.301,4.2812,4.2034,4.2149,4.1653,4.0215,4.0262,3.9478,3.7548,3.7985,3.8098,3.772,3.8352,3.824,3.7443,3.824,3.8649,3.8649,3.8833,3.8907,4.5732,4.8391,5.1009,5.1089,5.0983,5.06,4.9767,4.7672,4.5834,4.5363,4.5015,4.5128,4.6355,4.6684,4.751,4.9888,5.1392,5.4228,5.9831,6.257,6.458,6.6177,6.6818,0.0,6.6474,6.6677,0.0,0.0,0.0,6.4424,6.3752,6.2468,6.1025,5.9488,5.9678,5.9172,5.7983,5.8501,5.8369,5.7568,5.6684,5.5002,5.2638,5.1263,4.9398,0.0,0.0,0.0,4.7309,4.7309,4.7309,4.7189,4.5933,4.5394,4.5226,4.4648,4.5055,4.6019,4.6949,4.8573,5.0357,5.086,5.064,5.0182,5.0065,4.967,4.9309,4.9789,4.9986,4.975,4.8426,4.7617,4.715,4.7242,4.6893,4.6691,4.7131,4.7871,4.7999,4.648,4.7273,4.7813,4.6576,4.6956,4.7338,4.7016,4.7089,4.6655,4.531,4.544,4.498,4.3075,4.3429,4.3159,4.1481,4.1724,4.1548,4.0666,4.0059,3.9089,3.7548,3.8464,3.8686,3.8023,3.8538,3.8472,3.7796,3.8472,3.887,3.887,3.9053,3.9053,4.7939,4.92,4.9409,4.6885,4.7723,4.8892,4.7729,4.6346,4.5491,4.6,4.5994,4.6548,4.8885,4.982,5.1176,5.4166,5.6064,5.8377,6.1617,6.2939,6.3922,6.4823,0.0,6.652,6.4993,0.0,0.0,0.0,0.0,6.447,6.3015,6.2251,6.1032,5.9297,5.8842,5.7802,5.6065,5.7315,5.7496,5.6612,5.5847,5.3876,5.096,5.0699,4.9398,0.0,0.0,4.7309,4.7309,4.7309,4.7309,4.7219,4.6471,4.5813,4.5376,4.6232,4.6281,4.6251,4.8546,5.007,5.0962,5.0493,5.026,5.0065,4.955,4.9278,4.9107,4.8728,4.8944,4.9072,4.7773,4.6956,4.6325,4.5755,4.5991,4.6373,4.6383,4.7362,4.8013,4.7122,4.7622,4.7955,4.7191,4.7649,4.7927,4.7322,4.6787,4.6326,4.5905,4.5102,4.4336,4.3831,4.3256,4.278,4.246,4.1719,4.1168,4.1,4.01,3.9203,3.8344,3.8464,3.8612,3.8686,3.876,3.876,3.8649,3.8907,3.9053,3.9053,3.9265,3.9337,4.6296,4.8003,4.9145,4.7173,4.8174,4.948,4.8719,4.7287,4.652,4.785,4.7927,4.8536,5.1242,5.1909,5.3043,5.6132,5.8781,6.1125,6.3003,6.4693,6.5955,0.0,0.0,6.7536,6.6571,0.0,0.0,0.0,0.0,0.0,6.2122,6.0924,5.9427,5.7582,5.7017,5.6051,5.4689,5.5099,5.5226,5.5029,5.4224,5.2857,5.116,5.0739,4.9792,4.846,0.0,4.8625,4.8625,4.8407,4.8187,4.7958,4.7247,4.6531,4.5957,4.7058,4.7588,4.7952,4.9649,5.0378,5.0441,5.0136,4.9661,4.9138,4.8811,4.848,4.8103,4.7837,4.7985,4.7896,4.6568,4.5697,4.5142,4.4847,4.482,4.5038,4.5532,4.6542,4.7207,4.6648,4.7754,4.8395,4.7364,4.7688,4.7849,4.7193,4.6824,4.641,4.5868,4.5245,4.4583,4.3885,4.3234,4.2621,4.2067,4.1573,4.1025,4.0432,3.9817,3.9316,3.8826,3.8723,3.8723,3.8797,3.8907,3.8943,3.8943,3.9156,3.9265,3.9265,3.9337,3.9373,4.5886,4.7529,4.9213,4.8621,4.9523,5.068,5.0991,4.9394,4.8472,5.064,5.0662,5.1032,5.3408,5.4135,5.5108,5.7462,6.03,6.2662,6.3888,6.5602,6.698,6.7699,6.7752,6.758,0.0,0.0,0.0,0.0,0.0,0.0,6.0698,5.9192,5.7582,5.5817,5.5127,5.4334,5.3509,5.3016,5.3086,5.3586,5.2747,5.1938,5.1222,5.0671,5.0065,4.9407,4.9567,4.9686,4.9686,4.9358,4.8984,4.8636,4.8101,4.7465,4.6924,4.7619,4.8442,4.9244,5.0016,5.0168,4.9939,4.9781,4.93,4.8687,4.8385,4.7922,4.7525,4.7352,4.7063,4.6598,4.5548,4.4915,4.4496,4.4347,4.4047,4.4038,4.4992,4.586,4.6438,4.6168,4.7536,4.8419,4.7391,4.7516,4.7593,4.7062,4.6975,4.6753,4.5989,4.5709,4.5198,4.4347,4.3642,4.279,4.173,4.1591,4.1163,4.0215,3.9756,3.9325,3.89,3.8833,3.8797,3.8797,3.898,3.909,3.9192,3.9301,3.9373,3.9373,3.9373,3.9373,4.9843,4.9604,4.9145,4.9931,5.0593,5.1662,5.3948,5.2542,5.1533,5.4478,5.4373,5.4093,5.5331,5.7276,5.8772,5.877,6.0603,6.2548,6.3997,0.0,6.4596,6.5745,6.5325,0.0,0.0,0.0,0.0,0.0,0.0,0.0,5.843,5.7399,5.6216,5.4828,5.3684,5.2823,5.2307,5.1847,5.1992,5.2677,5.1922,5.1118,5.0317,5.0253,4.9868,4.9197,4.9237,4.9358,4.9487,4.9278,4.9075,4.8872,4.8841,4.8636,4.8368,4.8047,4.8323,4.8963,4.9197,4.967,5.0065,4.947,4.963,4.9829,4.8646,4.826,4.8091,4.7482,4.6424,4.5447,4.5346,4.5244,4.5065,4.4466,4.4241,4.4336,4.5067,4.5713,4.6226,4.6168,4.6886,4.7409,4.7336,4.7322,4.7352,4.7266,4.7266,4.7149,4.6872,4.648,4.6105,4.5862,4.4703,4.3501,4.2404,4.217,4.1837,4.1299,4.0139,3.9136,3.8306,3.8612,3.8797,3.8797,3.898,3.9192,3.9373,3.9373,3.9373,3.9373,3.9373,3.9373,4.8556,4.8951,4.9571,5.0503,5.1771,5.3015,5.3977,5.4017,5.4437,5.6388,5.7161,5.7622,5.8156,5.7535,5.7597,5.9679,6.0364,6.1235,6.3154,6.3359,6.3489,6.4079,6.3599,0.0,0.0,0.0,0.0,0.0,0.0,0.0,5.7138,5.5909,5.4724,5.3547,5.2562,5.1927,5.1777,5.1592,5.1554,5.1702,5.1442,5.1129,5.0826,5.094,5.0902,5.064,5.0755,5.0838,5.0914,5.0602,5.0221,4.9829,4.9188,4.9188,4.9622,4.9139,4.9322,4.9781,4.9979,4.9939,4.9821,4.9701,4.959,4.943,4.8563,4.8301,4.8175,4.7495,4.695,4.6441,4.6052,4.5304,4.4736,4.4885,4.4554,4.428,4.4514,4.4719,4.5049,4.5493,4.6153,4.6756,4.7222,4.7309,4.7309,4.7309,4.7309,4.7222,4.6931,4.6539,4.6194,4.601,4.4667,4.3437,4.2491,4.2216,4.1843,4.1255,4.0617,3.9865,3.9031,3.8966,3.8943,3.8797,3.898,3.9192,3.9373,3.9373,3.9373,3.9373,3.9373,3.9373,4.828,4.9033,5.0002,5.0413,5.2173,5.4016,5.4839,5.5768,5.6928,5.8652,5.88,5.8564,5.8356,5.6389,5.5733,5.8458,5.8613,5.9127,6.1369,6.1423,6.1442,6.2037,0.0,0.0,0.0,0.0,0.0,0.0,0.0,0.0,0.0,5.4307,5.3376,5.2403,5.1834,5.1462,5.1387,5.1387,5.135,5.1199,5.1199,5.1199,5.1205,5.135,5.1387,5.1424,5.1573,5.1647,5.1684,5.1317,5.094,5.0448,4.963,4.9622,5.005,4.9812,4.9781,4.9979,5.0129,5.001,4.9821,4.9939,4.9781,4.939,4.8769,4.8438,4.8175,4.7495,4.716,4.695,4.6681,4.5783,4.5065,4.5514,4.5027,4.4572,4.4777,4.4629,4.4559,4.5051,4.5725,4.6358,4.6844,4.7179,4.7266,4.7222,4.7266,4.7222,4.6931,4.6718,4.6476,4.6139,4.4874,4.3679,4.2867,4.2344,4.1889,4.1424,4.1105,4.049,3.9563,3.9431,3.9254,3.8907,3.909,3.9265,3.9373,3.9373,3.9373,3.9373,3.9373,3.9373,4.9987,5.0268,5.0316,4.9651,5.1658,5.4469,5.7087,5.8002,5.9001,6.1488,5.9132,5.632,5.525,5.4156,5.3758,5.4847,5.523,5.6237,5.8665,5.817,5.8134,0.0,0.0,0.0,0.0,0.0,0.0,0.0,0.0,0.0,0.0,5.2655,5.2215,5.1531,5.1499,5.1387,5.1205,5.1199,5.1199,5.1199,5.1199,5.1199,5.1199,5.1199,5.1199,5.1199,5.1199,5.1312,5.1462,5.1275,5.094,5.0589,5.0292,4.9979,4.9653,4.9852,4.9622,4.9228,4.9228,4.967,5.0182,5.0182,5.0182,5.0065,4.9399,4.878,4.8175,4.7495,4.683,4.6429,4.713,4.683,4.6279,4.6279,4.5736,4.5405,4.6078,4.5627,4.5127,4.5127,4.5702,4.6225,4.6225,4.68,4.7222,4.6931,4.7106,4.7222,4.6931,4.7149,4.704,4.6339,4.5374,4.444,4.3761,4.2731,4.2092,4.2092,4.1645,4.0871,3.9592,3.9874,3.9802,3.9119,3.9301,3.9373,3.9373,3.9373,3.9373,3.9373,3.9373,3.9373,4.8275,4.7859,4.8015,4.9323,5.0945,5.3042,5.6267,5.7499,5.8427,5.9994,5.7025,5.4925,5.7355,5.4928,5.3558,5.6603,5.6137,5.5992,5.7771,5.7297,0.0,0.0,0.0,0.0,0.0,0.0,0.0,0.0,0.0,0.0,0.0,5.2885,5.2478,5.1937,5.1647,5.1462,5.1424,5.1275,5.1199,5.1199,5.1199,5.1199,5.1199,5.1199,5.1199,5.1199,5.1199,5.1205,5.1275,5.1237,5.1048,5.0781,5.0743,5.0628,5.055,5.0589,5.055,5.0441,5.0563,5.0634,5.0711,5.0864,5.0788,5.0518,4.951,4.8984,4.849,4.7581,4.716,4.707,4.7249,4.716,4.701,4.701,4.6416,4.5961,4.6166,4.5627,4.5127,4.5127,4.5264,4.5446,4.5446,4.5582,4.5898,4.6329,4.6491,4.6668,4.7106,4.7266,4.704,4.6339,4.5888,4.5082,4.3791,4.3307,4.2765,4.2121,4.1959,4.1587,4.0871,4.0377,4.001,3.9802,3.954,3.9373,3.9373,3.9373,3.9373,3.9373,3.9373,3.9373,4.7091,4.6864,4.7265,4.9027,5.0666,5.2396,5.4753,5.6516,5.7803,5.8262,5.5599,5.401,5.6782,5.4503,5.3122,5.5925,5.5424,5.5109,5.6278,5.6132,0.0,0.0,0.0,0.0,0.0,0.0,0.0,0.0,0.0,0.0,0.0,5.2602,5.2294,5.201,5.1647,5.1462,5.1387,5.1275,5.1199,5.1199,5.1199,5.1199,5.1167,5.0876,5.0908,5.1199,5.1199,5.1199,5.1199,5.1199,5.1086,5.0896,5.0972,5.0972,5.0896,5.0972,5.101,5.1048,5.1162,5.1124,5.101,5.1086,5.0672,5.0097,4.9309,4.8697,4.8145,4.7452,4.7309,4.7309,4.7309,4.7309,4.7309,4.7309,4.6931,4.6624,4.6624,4.6061,4.5537,4.5537,4.5537,4.5533,4.547,4.5755,4.6104,4.6366,4.646,4.6668,4.7222,4.7309,4.716,4.6741,4.6301,4.5624,4.4697,4.3902,4.3182,4.2665,4.2361,4.2135,4.1898,4.0899,4.0254,4.0099,3.9629,3.9373,3.9373,3.9373,3.9373,3.9373,3.9373,3.9373,4.6212,4.6645,4.7301,4.8693,5.0676,5.2404,5.2887,5.5073,5.6861,5.6213,5.4567,5.3473,5.4463,5.3298,5.2584,5.3749,5.377,5.3844,5.4535,5.479,0.0,0.0,0.0,0.0,0.0,0.0,0.0,0.0,0.0,0.0,0.0,5.1842,5.1733,5.1696,5.1577,5.1387,5.1199,5.1199,5.1167,0.0,5.1102,5.1038,5.0973,5.0455,5.0552,5.1199,5.1199,5.1199,5.1199,5.1199,5.1086,5.0934,5.1124,5.1086,5.0934,5.1124,5.1199,5.1199,5.1199,5.1129,5.1054,5.0896,5.0097,4.9116,4.8903,4.8145,4.7352,4.7309,4.7309,4.7309,4.7309,4.7309,4.7309,4.7309,4.7309,4.7309,4.7309,4.6815,4.6357,4.6312,4.6342,4.6321,4.606,4.6693,4.7066,4.6712,4.68,4.7019,4.7266,4.7309,4.7309,4.7309,4.6599,4.6096,4.5994,4.4486,4.35,4.3441,4.2784,4.2514,4.2688,4.1509,4.0642,4.0307,3.9778,3.9499,3.9499,3.9439,3.9373,3.9373,3.9373,3.9373,4.4632,4.4049,4.4238,4.777,5.0429,5.2272,5.2368,5.285,5.3305,5.3149,5.2754,5.2773,5.3874,5.3204,5.2807,5.3977,5.3962,5.3874,5.4038,0.0,0.0,0.0,0.0,0.0,0.0,0.0,0.0,0.0,0.0,0.0,5.1477,5.1265,5.1086,5.0946,5.1316,5.1387,5.1199,5.1199,5.0908,0.0,5.0325,5.0034,4.9515,5.0519,5.1038,5.1199,5.1199,5.1199,5.1199,5.1199,5.1167,5.1162,5.1199,5.1167,5.1162,5.1199,5.1199,5.1199,5.1199,5.0864,5.0409,5.037,4.971,4.8903,4.8563,4.8175,4.7752,4.7396,4.7309,4.7309,4.7309,4.7309,4.7309,4.7309,4.7309,4.7309,4.7309,4.7567,4.7659,4.7121,4.7411,4.7415,4.625,4.6217,4.6338,4.6324,4.6845,4.7222,4.7309,4.7309,4.7309,4.7309,4.7146,4.6731,4.6053,4.5196,4.4347,4.3691,4.3001,4.2648,4.2688,4.208,4.1802,4.1914,4.0748,4.0187,4.0187,3.9679,3.9373,3.9373,3.9373,3.9373,4.2884,4.3065,4.4185,4.7957,5.0282,5.1718,5.1718,5.1977,5.2009,5.1329,5.1718,5.2416,5.3074,5.3139,5.3177,5.3588,5.3588,5.3546,5.3546,0.0,0.0,0.0,0.0,0.0,0.0,0.0,0.0,0.0,0.0,5.1149,5.0783,5.0577,5.0366,5.0156,5.0696,5.0867,5.0681,5.1005,5.0811,5.0098,5.0098,4.9904,4.9548,5.0325,5.0487,5.0196,5.0876,5.0973,5.0681,5.1038,5.1199,5.1199,5.1199,5.1394,5.162,5.1297,5.1394,5.1582,5.0922,5.0486,5.0104,4.971,4.9147,4.8563,4.826,4.7922,4.7581,4.7396,4.7309,4.7309,4.7309,4.7309,4.7369,4.7698,4.7549,4.7399,4.7698,4.8027,4.8298,4.8237,4.8206,4.7979,4.7213,4.6813,4.6637,4.6712,4.7019,4.7309,4.7309,4.7309,4.7309,4.7309,4.7309,4.6997,4.6181,4.5739,4.4988,4.3885,4.3501,4.3175,4.285,4.2723,4.2514,4.2186,4.1346,4.0876,4.0876,4.0516,4.0187,3.9888,3.9888,3.9738,4.1549,4.3079,4.5436,4.8081,4.9823,5.0848,5.0811,5.1232,5.1329,5.0163,5.1038,5.2053,5.2145,5.2737,5.3215,5.2967,5.2844,5.2847,0.0,0.0,0.0,0.0,0.0,0.0,0.0,0.0,0.0,0.0,0.0,5.0651,5.0055,4.9817,4.9645,4.9403,4.9909,5.0119,4.9904,5.0519,5.0455,4.9742,4.9742,4.9807,4.9904,5.0034,4.9839,4.9451,5.0649,5.0843,5.0325,5.094,5.1199,5.1199,5.1329,5.162,5.1977,5.1523,5.1582,5.1682,5.06,5.0065,4.9789,4.9066,4.8521,4.8133,4.7922,4.7581,4.7309,4.7309,4.7309,4.7352,4.7409,4.7542,4.7795,4.8498,4.8243,4.7962,4.8547,4.8625,4.879,4.9344,4.8835,4.8268,4.8139,4.7561,4.7199,4.7282,4.7309,4.7309,4.7309,4.7309,4.7309,4.7309,4.7309,4.71,4.6488,4.6211,4.5531,4.4299,4.4121,4.3734,4.309,4.321,4.2942,4.2248,4.1786,4.1602,4.1602,4.1482,4.1085,4.0576,4.0576,4.0217,4.1665,4.4022,4.6356,4.6483,4.8042,4.9502,4.9357,4.935,4.935,4.9188,5.0325,5.121,5.0746,5.1418,5.206,5.2214,5.1834,5.1742,0.0,0.0,0.0,0.0,0.0,0.0,0.0,0.0,0.0,0.0,5.0518,4.9359,4.926,4.9058,4.8854,4.8649,4.9159,4.9372,4.9159,4.922,4.8965,4.8285,4.8285,4.8609,4.9155,4.9807,5.039,5.0908,5.1102,5.1135,5.1038,5.1135,5.1199,5.1232,5.1847,5.175,5.1394,5.1879,5.1373,5.0427,5.0253,4.959,4.8769,4.848,4.8091,4.7666,4.7482,4.7352,4.7309,4.7309,4.7309,4.7439,4.8007,4.8572,4.9169,4.9853,4.9959,4.9927,5.0018,5.0004,5.0005,5.0131,4.9128,4.8297,4.8253,4.7746,4.7268,4.7309,4.7309,4.7309,4.7309,4.7309,4.7309,4.7309,4.7309,4.7279,4.7189,4.6608,4.595,4.5173,4.4575,4.3937,4.328,4.329,4.326,4.313,4.2551,4.2261,4.2261,4.1692,4.1324,4.1302,4.1302,4.0905,4.2427,4.3045,4.3953,4.5405,4.6616,4.7684,4.8397,4.881,4.8864,4.8544,4.9329,5.0054,4.9838,5.0213,5.0621,5.0832,5.0674,0.0,0.0,0.0,0.0,0.0,0.0,0.0,0.0,0.0,0.0,0.0,4.9657,4.8928,4.8498,4.8299,4.8131,4.7929,4.8444,4.8624,4.8447,4.8799,4.8832,4.8576,4.8576,4.8933,4.9645,5.039,5.0649,5.0617,5.1005,5.094,5.0617,5.1005,5.1394,5.1782,5.2074,5.2043,5.1795,5.1731,5.1081,5.0165,4.9425,4.8852,4.8385,4.788,4.7837,4.7964,4.788,4.8103,4.8458,4.8867,4.899,4.9124,4.9831,5.0224,5.0649,5.135,5.1148,5.0971,5.1407,5.0512,4.9584,4.9249,4.8697,4.8177,4.7788,4.7489,4.7309,4.7309,4.7309,4.7309,4.7309,4.7309,4.7309,4.7309,4.7309,4.716,4.68,4.683,4.6411,4.5364,4.5035,4.4556,4.3858,4.3499,4.329,4.329,4.306,4.291,4.291,4.2611,4.2282,4.1961,4.1961,4.1602,4.2348,4.2011,4.2142,4.4067,4.524,4.6125,4.6906,4.755,4.7799,4.7281,4.7779,4.8276,4.8209,4.9006,4.9705,4.9877,4.9781,0.0,0.0,0.0,0.0,0.0,0.0,0.0,0.0,0.0,0.0,0.0,4.8928,4.8597,4.8034,4.7803,4.7638,4.7504,4.7791,4.7879,4.7734,4.822,4.8576,4.8771,4.8897,4.9418,5.0131,5.0806,5.087,5.0422,5.094,5.0876,5.0422,5.0973,5.1588,5.2203,5.2203,5.2048,5.1717,5.1208,5.0277,4.9089,4.8243,4.7859,4.7679,4.7521,4.7837,4.8313,4.848,4.8986,4.9571,5.0143,5.0424,5.0757,5.1455,5.1623,5.1789,5.226,5.1803,5.1386,5.1783,5.0493,4.9102,4.8431,4.8147,4.7878,4.7399,4.7309,4.7309,4.7309,4.7309,4.7309,4.7309,4.7309,4.7309,4.7309,4.7309,4.71,4.6621,4.701,4.68,4.5633,4.5544,4.5185,4.4347,4.3798,4.3469,4.329,4.329,4.329,4.329,4.329,4.309,4.265,4.265,4.2291,4.0477,4.1586,4.2842,4.2139,4.3671,4.5113,4.4332,4.4594,4.5014,4.4949,4.5277,4.544,4.5277,4.7799,4.9912,4.9912,4.9455,0.0,0.0,0.0,0.0,0.0,0.0,0.0,0.0,0.0,0.0,0.0,4.8465,4.8034,4.8001,4.7803,4.7638,4.7504,4.7334,4.7163,4.6957,4.6989,4.7346,4.8058,4.867,4.9418,5.0131,5.0688,5.0978,5.1135,5.1167,5.1167,5.1135,5.1167,5.1588,5.2203,5.2203,5.1469,5.0388,5.0356,4.8607,4.6295,4.6791,4.6617,4.6314,4.751,4.803,4.8324,4.8984,4.9665,5.0237,5.0268,5.0809,5.1476,5.2086,5.2293,5.2343,5.2308,5.1775,5.1119,5.0471,4.9775,4.9096,4.8399,4.7788,4.7339,4.7309,4.7309,4.7309,4.7309,4.7309,4.7309,4.7309,4.7309,4.7309,4.7309,4.7309,4.7309,4.7249,4.7279,4.701,4.6279,4.6262,4.5651,4.4377,4.4287,4.3917,4.329,4.329,4.329,4.329,4.329,4.326,4.323,4.323,4.294,4.1433,4.1622,4.2147,4.2058,4.2573,4.3223,4.3827,4.3764,4.3747,4.4361,4.4523,4.4555,4.4492,4.5896,4.7078,4.7078,4.688,0.0,0.0,0.0,0.0,0.0,0.0,0.0,0.0,0.0,0.0,0.0,0.0,4.7935,4.7803,4.7671,4.7504,4.7335,4.7098,4.6961,4.6892,4.6892,4.7249,4.8026,4.8252,4.8738,4.9382,4.9567,4.9733,4.9807,5.0293,5.0746,5.1199,5.1199,5.1588,5.2165,5.1777,5.0819,4.959,4.9188,4.7731,4.5975,4.5765,4.6371,4.7244,4.7285,4.8636,5.025,5.0452,5.1319,5.2309,5.2829,5.2756,5.2652,5.2771,5.2584,5.2114,5.1234,5.0494,4.9809,4.9119,4.8818,4.8454,4.7772,4.7459,4.7309,4.7309,4.7309,4.7309,4.7309,4.7309,4.7309,4.7309,4.7309,4.7309,4.7309,4.7309,4.7309,4.7309,4.7309,4.7219,4.698,4.6561,4.6028,4.5424,4.4977,4.4649,4.4411,4.3953,4.3617,4.329,4.329,4.329,4.329,4.329,4.317,4.2412,4.2131,4.2142,4.2458,4.2233,4.2082,4.2903,4.2788,4.2607,4.3102,4.3363,4.3532,4.3532,4.4308,4.5003,4.5193,0.0,0.0,0.0,0.0,0.0,0.0,0.0,0.0,0.0,0.0,0.0,0.0,0.0,0.0,4.7803,4.7604,4.7369,4.7098,4.703,4.6961,4.6892,4.6892,4.7249,4.8026,4.8026,4.8382,4.8994,4.8957,4.8921,4.8986,4.9623,5.0246,5.0843,5.1102,5.1588,5.2062,5.092,4.9852,4.8823,4.763,4.6411,4.534,4.5323,4.6244,4.7539,4.7835,4.9287,5.0882,5.119,5.2055,5.3006,5.3294,5.311,5.2805,5.2481,5.1706,5.086,5.0022,4.9152,4.849,4.8325,4.8297,4.8147,4.7728,4.7638,4.7638,4.7638,4.7459,4.7309,4.7309,4.7309,4.7309,4.7309,4.7309,4.7309,4.7309,4.7309,4.7309,4.7309,4.7309,4.7309,4.7309,4.689,4.6476,4.6139,4.5692,4.5335,4.5096,4.4471,4.3945,4.3618,4.3409,4.329,4.329,4.329,4.329,0.0,0.0,0.0,4.3227,4.2638,4.1829,4.1409,4.1412,4.1449,4.1096,4.1632,4.2165,4.2165,4.3042,4.3946,4.4537,0.0,0.0,0.0,0.0,0.0,0.0,0.0,0.0,0.0,0.0,0.0,0.0,4.8001,4.8001,4.8001,4.7671,4.7301,4.6927,4.7098,4.7098,4.6892,4.6892,4.7249,4.7993,4.7993,4.8317,4.8929,4.8748,4.8675,4.8739,4.9256,4.9695,5.0131,5.0876,5.1556,5.1862,4.9712,4.86,4.7941,4.5773,4.4589,4.4232,4.5455,4.6243,4.7034,4.9179,4.9868,5.0058,5.0934,5.1647,5.2043,5.1455,5.1579,5.1799,5.1109,4.9751,4.8621,4.882,4.7882,4.7183,4.8073,4.8297,4.8297,4.8297,4.8297,4.8297,4.8297,4.7728,4.7309,4.7309,4.7309,4.7309,4.7309,4.7309,4.7309,4.7309,4.7309,4.7309,4.7309,4.7309,4.7309,4.7309,4.7309,4.701,4.6339,4.6309,4.598,4.5334,4.4676,4.4317,4.4317,4.3618,4.329,4.329,4.329,4.329,4.4096,0.0,0.0,0.0,0.0,0.0,4.1144,4.0855,4.0756,4.1375,4.146,4.1414,4.1519,4.2189,4.2699,4.2713,0.0,0.0,0.0,0.0,0.0,0.0,0.0,0.0,0.0,0.0,0.0,0.0,4.7703,4.7902,4.7637,4.7268,4.6996,4.6892,4.6961,4.6961,4.6892,4.6892,4.6989,4.7184,4.7184,4.7281,4.7475,4.744,4.7335,4.7258,4.8554,4.9171,4.9268,5.0456,5.0518,4.9674,4.86,4.7181,4.5666,4.518,4.5046,4.5251,4.5758,4.7311,4.8925,4.8582,4.9456,5.0595,5.0587,5.0938,5.1277,5.1111,5.0767,5.0299,4.9408,4.873,4.8233,4.8193,4.7882,4.7599,4.7595,4.8327,4.891,4.8386,4.8297,4.8297,4.8297,4.7728,4.7309,4.7309,4.7309,4.7309,4.7309,4.7309,4.7309,4.7309,4.7309,4.7309,4.7309,4.7309,4.7309,4.7309,4.7309,4.7133,4.6751,4.6751,4.6453,4.5828,4.5144,4.4631,4.4317,4.3618,4.329,4.329,4.329,4.329,4.4627,4.4105,4.3592,4.3399,0.0,0.0,4.0502,3.9928,3.9592,0.0,3.972,3.9922,4.0278,4.0988,4.1479,4.1246,0.0,0.0,0.0,0.0,0.0,0.0,0.0,0.0,0.0,4.5839,4.6113,4.6411,4.6841,4.7044,4.7045,4.7138,4.6934,4.6439,4.6833,4.6833,4.6439,4.673,4.6892,4.6892,4.6892,4.6892,4.6892,4.7216,4.7241,4.713,4.8546,4.9227,4.9254,5.001,4.9923,4.9171,4.7856,4.6832,4.5948,4.5152,4.5462,4.6366,4.6772,4.7923,4.9125,4.8609,4.9256,5.0156,4.9903,5.0029,5.0175,4.9954,4.9224,4.8395,4.7862,4.754,4.7398,4.7777,4.7585,4.7422,4.7641,4.8252,4.8656,4.8356,4.8506,4.864,4.8327,4.7728,4.7309,4.7309,4.7309,4.7309,4.7309,4.7309,4.7309,4.7309,4.7309,4.7309,4.7309,4.7309,4.7309,4.7309,4.7309,4.7222,4.7062,4.7062,4.6913,4.6526,4.5871,4.515,4.4317,4.3618,4.329,4.329,4.329,4.3439,4.4934,4.4441,4.3965,4.459,4.3464,0.0,4.0005,3.9373,3.8812,0.0,3.7895,3.8552,3.9172,4.0001,4.0513,4.0361,0.0,0.0,0.0,0.0,0.0,0.0,0.0,0.0,4.5206,4.4927,4.4953,4.5616,4.5752,4.6022,4.6389,4.6978,4.6843,4.5824,4.6544,4.6512,4.5694,4.6407,4.6763,4.6763,4.686,4.6892,4.6892,4.7572,4.7823,4.7738,4.8904,4.9486,4.9636,4.9544,4.9512,4.939,4.741,4.7006,4.7359,4.5419,4.5789,4.7293,4.7849,4.8161,4.8388,4.8872,4.9066,4.9066,4.9025,4.8984,4.8862,4.8313,4.7469,4.6698,4.6698,4.6579,4.6681,4.7674,4.7289,4.6978,4.7969,4.803,4.7971,4.8133,4.876,4.903,4.8386,4.7728,4.7309,4.7309,4.7309,4.7309,4.7309,4.7309,4.7309,4.7309,4.7309,4.7309,4.7309,4.7309,4.7309,4.7309,4.7309,4.7309,4.7309,4.7309,4.7279,4.7189,4.6561,4.5603,4.4436,4.3648,4.329,4.329,4.3379,4.3708,4.4978,4.4733,4.4276,4.4862,4.4259,0.0,4.2331,4.2063,4.1761,0.0,4.0723,4.0796,4.1025,4.1076,4.1197,4.1637,4.1603,0.0,0.0,0.0,0.0,0.0,0.0,0.0,4.4461,4.4627,4.4724,4.4735,4.5569,4.6159,4.6389,4.6222,4.6021,4.5824,4.5436,4.5177,4.4982,4.5662,4.6018,4.6018,4.6601,4.6892,4.6892,4.7022,4.7338,4.7741,4.8542,4.8822,4.8775,4.9283,4.8966,4.8098,4.7139,4.6327,4.5641,4.5078,4.5654,4.6779,4.7048,4.7681,4.8302,4.8182,4.8157,4.8072,4.7794,4.7508,4.7336,4.7206,4.7273,4.7331,4.7331,4.7714,4.8024,4.7911,4.7599,4.7347,4.7491,4.7732,4.7822,4.7565,4.8027,4.8446,4.8297,4.7728,4.7309,4.7309,4.7309,4.7309,4.7309,4.7309,4.7309,4.7309,4.7309,4.7309,4.7309,4.7309,4.7309,4.7309,4.7309,4.7309,4.7309,4.7309,4.707,4.6531,4.5843,4.5364,4.5095,4.3858,4.329,4.329,4.3828,4.4197,4.4837,4.4902,4.4656,4.4844,4.4607,0.0,0.0,4.1617,4.1429,4.0578,4.0044,3.9987,4.0815,4.0246,3.9857,4.0513,3.9765,0.0,0.0,0.0,0.0,0.0,0.0,0.0,4.3739,4.385,4.3935,4.4067,4.4812,4.5243,4.5308,4.5375,4.5177,4.4755,4.4787,4.4625,4.4237,4.4949,4.5305,4.5305,4.6018,4.6342,4.6374,4.7684,4.8297,4.8401,4.9188,4.9438,4.9254,4.8716,4.8004,4.7214,4.6378,4.6129,4.6097,4.5374,4.5799,4.6793,4.7133,4.7247,4.7302,4.7382,4.7422,4.7379,4.7322,4.7222,4.7106,4.7106,4.7169,4.7229,4.7392,4.7496,4.7554,4.7584,4.7348,4.7081,4.7239,4.7374,4.7361,4.7326,4.7578,4.7788,4.7788,4.7519,4.7309,4.7309,4.7309,4.7309,4.7309,4.7309,4.7309,4.7309,4.7309,4.7309,4.7309,4.7309,4.7309,4.7309,4.7309,4.7309,4.7309,4.7309,4.716,4.683,4.6142,4.5813,4.5813,4.4796,4.4317,4.4317,4.4646,4.4975,4.5001,4.5432,0.0,0.0,0.0,4.4509,0.0,0.0,0.0,4.0079,3.9315,3.914,4.0316,0.0,0.0,0.0,0.0,0.0,0.0,0.0,0.0,0.0,0.0,0.0,0.0,4.2883,4.2937,4.3365,4.4022,4.4335,4.4273,4.4653,4.456,4.3911,4.4334,4.4302,4.3719,4.4561,4.4982,4.4982,4.5694,4.615,4.6447,4.8411,4.9257,4.9206,4.9794,4.9844,4.9286,4.7796,4.6819,4.6178,4.5727,4.6113,4.6888,4.5737,4.5955,4.6826,4.7074,4.6741,4.6271,4.668,4.6887,4.6931,4.7149,4.7222,4.7222,4.7309,4.7149,4.7048,4.7415,4.7138,4.6859,4.7372,4.7094,4.6785,4.7222,4.7062,4.6975,4.7266,4.7309,4.7309,4.7309,4.7309,4.7309,4.7309,4.7309,4.7309,4.7309,4.7309,4.7309,4.7309,4.7309,4.7309,4.7309,4.7309,4.7309,4.7309,4.7309,4.7309,4.7309,4.7309,4.7309,4.7309,4.677,4.6501,4.6501,4.5963,4.5544,4.5304,4.5424,4.5783,0.0,0.0,0.0,0.0,4.6604,0.0,0.0,0.0,4.3289,4.253,0.0,4.1253,4.1407,0.0,0.0,0.0,0.0,0.0,0.0,0.0,0.0,0.0,0.0,0.0,0.0,4.1825,4.1756,4.2641,4.3642,4.4337,4.4559,4.4507,4.4476,4.45,4.4039,4.3783,4.3719,4.5014,4.5694,4.5694,4.6407,4.7362,4.846,4.8274,4.8765,4.9741,4.9167,4.812,4.6849,4.6498,4.5494,4.435,4.5732,4.6269,4.6223,4.5656,4.586,4.6292,4.5666,4.5536,4.5768,4.6417,4.6756,4.6931,4.6931,4.6975,4.6975,4.7222,4.7266,4.7385,4.8027,4.7684,4.7372,4.8027,4.7479,4.6931,4.7266,4.7062,4.6975,4.7266,4.7309,4.7309,4.7309,4.7309,4.7309,4.7309,4.7309,4.7309,4.7309,4.7309,4.7309,4.7309,4.7309,4.7309,4.7309,4.7309,4.7309,4.7309,4.7309,4.7309,4.7309,4.7309,4.7309,4.7309,4.7249,4.7189,4.7189,4.713,4.6471,4.5304,4.5933,4.6262,0.0,0.0,0.0,0.0,0.0,0.0,4.5166,0.0,4.4518,0.0,0.0,0.0,0.0,0.0,0.0,0.0,3.9708,0.0,0.0,0.0,0.0,0.0,0.0,0.0,0.0,0.0,0.0,0.0,0.0,4.3254,4.3193,4.3569,4.3972,4.4344,4.4112,4.3845,4.3477,4.4459,4.4789,4.4428,4.5894,4.7108,4.8065,4.8356,4.8981,4.9846,4.8754,4.7681,4.6597,4.5884,4.4787,4.3666,4.501,4.5253,4.4888,4.5082,4.5148,4.5178,4.5639,4.58,4.5927,4.6447,4.6712,4.6844,4.658,4.6712,4.6931,4.7019,4.7149,4.7369,4.7638,4.7402,4.7195,4.7595,4.7314,4.6975,4.7266,4.7222,4.7149,4.7266,4.7309,4.7309,4.7309,4.7309,4.7429,4.7818,4.7549,4.7429,4.7818,4.7549,4.7309,4.7309,4.7309,4.7309,4.7309,4.7309,4.7309,4.7309,4.7309,4.7309,4.7309,4.7309,4.7309,4.7309,4.7309,4.7309,4.7309,4.7309,4.701,4.6471,4.677,4.689,4.6908,0.0,0.0,0.0,0.0,0.0,0.0,0.0,0.0,0.0,0.0,0.0,0.0,0.0,4.2264,4.1952,0.0,3.8722,0.0,0.0,0.0,0.0,0.0,0.0,0.0,0.0,0.0,0.0,0.0,0.0,4.2261,4.2819,4.343,4.4091,4.4355,4.4369,4.4128,4.4795,4.5007,4.4724,4.616,4.7243,4.8001,4.846,4.8851,4.9206,4.8084,4.6939,4.5759,4.4922,4.4065,4.3297,4.4081,4.4086,4.3737,4.4588,4.472,4.4617,4.5639,4.605,4.6207,4.6506,4.6712,4.6756,4.6491,4.6624,4.6931,4.6975,4.7149,4.7339,4.7519,4.7298,4.7122,4.7475,4.7298,4.7062,4.7266,4.7309,4.7309,4.7309,4.7309,4.7309,4.7309,4.7459,4.7728,4.8207,4.8027,4.7967,4.8237,4.7878,4.7489,4.7339,4.7309,4.7309,4.7309,4.7309,4.7309,4.7309,4.7309,4.7309,4.7309,4.7309,4.7309,4.7309,4.7309,4.7309,4.7309,4.7309,4.7309,4.7309,4.7309,4.7309,0.0,0.0,0.0,4.7087,0.0,0.0,0.0,0.0,4.5968,0.0,0.0,0.0,0.0,4.3638,4.2988,4.2136,4.1952,0.0,0.0,0.0,0.0,0.0,0.0,0.0,0.0,0.0,0.0,0.0,0.0,0.0,4.2369,4.2584,4.3056,4.3807,4.4761,4.5555,4.6109,4.6693,4.7363,4.8062,4.8,4.8397,4.9227,4.8521,4.8037,4.7655,4.6856,4.5387,4.3418,4.3379,4.3216,4.3005,4.3034,4.3063,4.3179,4.4458,4.4879,4.4894,4.5215,4.5874,4.658,4.658,4.658,4.6624,4.6844,4.6887,4.6975,4.7222,4.7309,4.7459,4.8087,4.7788,4.7459,4.8087,4.7758,4.7309,4.7309,4.7309,4.7309,4.7309,4.7309,4.7309,4.7309,4.7848,4.8267,4.8297,4.8805,4.903,4.8356,4.8267,4.8027,4.7369,4.7309,4.7309,4.7309,4.7309,4.7309,4.7309,4.7309,4.7309,4.7309,4.7309,4.7309,4.7309,4.7309,4.7309,4.7309,4.7309,4.7309,4.7309,4.7309,4.7309,0.0,0.0,4.753,4.7683,0.0,0.0,0.0,0.0,0.0,0.0,0.0,0.0,0.0,4.4888,4.444,4.3251,4.2525,4.1792,0.0,0.0,0.0,0.0,0.0,0.0,0.0,0.0,0.0,0.0,3.9242,0.0,0.0,4.176,4.294,4.4242,4.5093,4.5651,4.5974,4.6629,4.7099,4.7334,4.7735,4.8299,4.8928,4.7306,4.6881,4.7309,4.5534,4.4226,4.3269,4.318,4.2806,4.244,4.2847,4.2992,4.3108,4.3979,4.4298,4.4502,4.5742,4.6534,4.7048,4.6844,4.68,4.68,4.6712,4.68,4.6931,4.7019,4.7149,4.7369,4.7578,4.7489,4.7369,4.7578,4.7459,4.7309,4.7309,4.7309,4.7309,4.7309,4.7668,4.7967,4.7967,4.8865,4.9284,4.8416,4.8117,4.8027,4.8267,4.7908,4.7549,4.7339,4.7309,4.7309,4.7309,4.7309,4.7309,4.7309,4.7309,4.7309,4.7309,4.7309,4.7309,4.7309,4.7309,4.7309,4.7309,4.7309,4.7309,4.7309,4.7309,4.7309,4.7953,4.7623,0.0,4.7872,4.7352,0.0,4.701,0.0,0.0,0.0,0.0,0.0,0.0,4.5737,4.5334,4.4114,4.3236,4.2491,0.0,4.1757,0.0,0.0,0.0,0.0,0.0,0.0,0.0,3.8174,3.8992,3.98,0.0,0.0,4.2757,4.3988,4.5052,4.5906,4.6526,4.692,4.7285,4.7621,4.8025,4.8199,4.816,4.6532,4.5923,4.6087,4.4319,4.3299,4.289,4.2729,4.2737,4.2789,4.2934,4.3282,4.3689,4.3921,4.4254,4.4748,4.6138,4.6844,4.7106,4.6975,4.6931,4.6887,4.6756,4.6844,4.7078,4.736,4.7328,4.7369,4.7578,4.7489,4.7309,4.7309,4.7309,4.7309,4.7309,4.7309,4.7369,4.7608,4.7997,4.8356,4.8596,4.9134,4.9344,4.8716,4.8476,4.8327,4.8297,4.7908,4.7549,4.7339,4.7309,4.7309,4.7309,4.7309,4.7309,4.7309,4.7309,4.7309,4.7309,4.7309,4.7429,4.7638,4.7429,4.7429,4.7668,4.7429,4.7309,4.7309,4.7309,4.7309]}]]